[[{"header":{"parameterUnit":"m.s-1","parameterCategory":1,"la1":30.6,"la2":29.2853,"lo1":-89.7004,"lo2":-87.6739,"dy":0.0162,"dx":0.0183,"nx":112,"ny":82,"refTime":"2024-05-19T06:00:00:Z","depth":0,"parameterNumber":2,"parameterNumberName":"U-component_of_WINDS"},"data":[0.0,0.0,0.0,0.0,0.0,0.0,0.0,0.0,0.0,0.0,0.0,0.0,0.0,0.0,0.0,0.0,0.0,0.0,0.0,0.0,0.0,0.0,0.0,0.0,0.0,0.0,0.0,0.0,0.0,0.0,0.0,0.0,0.0,0.0,0.0,0.0,0.0,0.0,0.0,0.0,0.0,0.0,0.0,0.0,0.0,0.0,0.0,0.0,0.0,0.0,0.0,0.0,0.0,0.0,0.0,0.0,0.0,0.0,0.0,0.0,0.0,0.0,0.0,0.0,0.0,0.0,0.0,0.0,0.0,0.0,0.0,0.0,0.0,0.0,0.0,0.0,0.0,0.0,0.0,0.0,0.0,0.0,0.0,0.0,0.0,0.0,0.0,0.0,0.0,0.0,0.0,-2.3244,-2.4759,-2.587,-2.6539,-2.5236,-2.3327,-2.0859,0.0,0.0,0.0,0.0,0.0,0.0,0.0,0.0,0.0,0.0,0.0,0.0,0.0,0.0,0.0,0.0,0.0,0.0,0.0,0.0,0.0,0.0,0.0,0.0,0.0,0.0,0.0,0.0,0.0,0.0,0.0,0.0,0.0,0.0,0.0,0.0,0.0,0.0,0.0,0.0,0.0,0.0,0.0,0.0,0.0,0.0,0.0,0.0,0.0,0.0,0.0,0.0,0.0,0.0,0.0,0.0,0.0,0.0,0.0,0.0,0.0,0.0,0.0,0.0,0.0,0.0,0.0,0.0,0.0,0.0,0.0,0.0,0.0,0.0,0.0,0.0,0.0,0.0,0.0,0.0,0.0,0.0,0.0,0.0,0.0,0.0,0.0,0.0,0.0,0.0,0.0,0.0,0.0,0.0,0.0,0.0,0.0,0.0,0.0,0.0,0.0,0.0,0.0,0.0,-2.028,-2.5501,-2.6282,-2.6465,-2.6583,-2.576,-2.4181,-2.1757,0.0,0.0,0.0,0.0,0.0,0.0,0.0,0.0,0.0,0.0,0.0,0.0,0.0,0.0,0.0,0.0,0.0,0.0,0.0,0.0,0.0,0.0,0.0,0.0,0.0,0.0,0.0,0.0,0.0,0.0,0.0,0.0,0.0,0.0,0.0,0.0,0.0,0.0,0.0,0.0,0.0,0.0,0.0,0.0,0.0,0.0,0.0,0.0,0.0,0.0,0.0,0.0,0.0,0.0,0.0,0.0,0.0,0.0,0.0,0.0,0.0,0.0,0.0,0.0,0.0,0.0,0.0,0.0,0.0,0.0,0.0,0.0,0.0,0.0,0.0,0.0,0.0,0.0,0.0,0.0,0.0,0.0,0.0,0.0,0.0,0.0,0.0,0.0,0.0,0.0,0.0,0.0,0.0,0.0,0.0,0.0,0.0,0.0,0.0,0.0,0.0,0.0,0.0,-2.0409,-2.274,-2.6227,-2.6602,-2.6602,-2.6602,-2.5456,-2.3666,-2.116,-1.8566,0.0,0.0,0.0,0.0,0.0,0.0,0.0,0.0,0.0,0.0,0.0,0.0,0.0,0.0,0.0,0.0,0.0,0.0,0.0,0.0,0.0,0.0,0.0,0.0,0.0,0.0,0.0,0.0,0.0,0.0,0.0,0.0,0.0,0.0,0.0,0.0,0.0,0.0,0.0,0.0,0.0,0.0,0.0,0.0,0.0,0.0,0.0,0.0,0.0,0.0,0.0,0.0,0.0,0.0,0.0,0.0,0.0,0.0,0.0,0.0,0.0,0.0,0.0,0.0,0.0,0.0,0.0,0.0,0.0,0.0,0.0,0.0,0.0,0.0,0.0,0.0,0.0,0.0,0.0,0.0,0.0,0.0,0.0,0.0,0.0,0.0,0.0,0.0,0.0,0.0,0.0,0.0,0.0,0.0,0.0,0.0,0.0,0.0,0.0,0.0,0.0,0.0,-2.329,-2.5236,-2.6473,-2.6778,-2.6814,-2.6631,-2.4961,-2.2877,-2.0454,-1.7557,0.0,0.0,0.0,0.0,0.0,0.0,0.0,0.0,0.0,0.0,0.0,0.0,0.0,0.0,0.0,0.0,0.0,0.0,0.0,0.0,0.0,0.0,0.0,0.0,0.0,0.0,0.0,0.0,0.0,0.0,0.0,0.0,0.0,0.0,0.0,0.0,0.0,0.0,0.0,0.0,0.0,0.0,0.0,0.0,0.0,0.0,0.0,0.0,0.0,0.0,0.0,0.0,0.0,0.0,0.0,0.0,0.0,0.0,0.0,0.0,0.0,0.0,0.0,0.0,0.0,0.0,0.0,0.0,0.0,0.0,0.0,0.0,0.0,0.0,0.0,0.0,0.0,0.0,0.0,0.0,0.0,0.0,0.0,0.0,0.0,0.0,0.0,0.0,0.0,0.0,0.0,0.0,0.0,0.0,0.0,0.0,0.0,0.0,0.0,0.0,0.0,0.0,-2.3547,-2.6473,-2.6583,-2.7273,-2.7402,-2.6657,-2.4437,-2.2283,-2.0417,-1.6514,0.0,0.0,0.0,0.0,0.0,0.0,0.0,0.0,0.0,0.0,0.0,0.0,0.0,0.0,0.0,0.0,0.0,0.0,0.0,0.0,0.0,0.0,0.0,0.0,0.0,0.0,0.0,0.0,0.0,0.0,0.0,0.0,0.0,0.0,0.0,0.0,0.0,0.0,0.0,0.0,0.0,0.0,0.0,0.0,0.0,0.0,0.0,0.0,0.0,0.0,0.0,0.0,0.0,0.0,0.0,0.0,0.0,0.0,0.0,0.0,0.0,0.0,0.0,0.0,0.0,0.0,0.0,0.0,0.0,0.0,0.0,0.0,0.0,0.0,0.0,0.0,0.0,0.0,0.0,0.0,0.0,0.0,0.0,0.0,0.0,0.0,0.0,0.0,0.0,0.0,0.0,0.0,0.0,0.0,0.0,0.0,0.0,0.0,0.0,0.0,0.0,0.0,-2.2703,-2.5493,0.0,-2.6869,-2.6841,-2.6336,-2.4551,-2.2236,-1.9424,0.0,0.0,0.0,0.0,0.0,0.0,0.0,0.0,0.0,0.0,0.0,0.0,0.0,0.0,0.0,0.0,0.0,0.0,0.0,0.0,0.0,0.0,0.0,0.0,0.0,0.0,0.0,0.0,0.0,0.0,0.0,0.0,0.0,0.0,0.0,0.0,0.0,0.0,0.0,0.0,0.0,0.0,0.0,0.0,0.0,0.0,0.0,0.0,0.0,0.0,0.0,0.0,0.0,0.0,0.0,0.0,0.0,0.0,0.0,0.0,0.0,0.0,0.0,0.0,0.0,0.0,0.0,0.0,0.0,0.0,0.0,0.0,0.0,0.0,0.0,0.0,0.0,0.0,0.0,0.0,0.0,0.0,0.0,0.0,0.0,0.0,0.0,0.0,0.0,0.0,0.0,0.0,0.0,0.0,0.0,0.0,0.0,0.0,0.0,0.0,0.0,0.0,-1.9308,-2.2776,-2.5383,0.0,-2.6833,-2.6743,-2.6151,-2.4389,-2.1937,-1.8704,0.0,0.0,0.0,0.0,0.0,0.0,0.0,0.0,0.0,0.0,0.0,0.0,0.0,0.0,0.0,0.0,0.0,0.0,0.0,0.0,0.0,0.0,0.0,0.0,0.0,0.0,0.0,0.0,0.0,0.0,0.0,0.0,0.0,0.0,0.0,0.0,0.0,0.0,0.0,0.0,0.0,0.0,0.0,0.0,0.0,0.0,0.0,0.0,0.0,0.0,0.0,0.0,0.0,0.0,0.0,0.0,0.0,0.0,0.0,0.0,0.0,0.0,0.0,0.0,0.0,0.0,0.0,0.0,0.0,0.0,0.0,0.0,0.0,0.0,0.0,0.0,0.0,0.0,0.0,0.0,0.0,0.0,0.0,0.0,0.0,0.0,0.0,0.0,0.0,0.0,0.0,0.0,0.0,0.0,0.0,0.0,0.0,0.0,0.0,0.0,0.0,0.0,-2.0191,-2.407,-2.6602,-2.6602,-2.731,-2.7339,-2.6187,-2.388,-2.131,0.0,0.0,0.0,0.0,0.0,0.0,0.0,0.0,0.0,0.0,0.0,0.0,0.0,0.0,0.0,0.0,0.0,0.0,0.0,0.0,0.0,0.0,0.0,0.0,0.0,0.0,0.0,0.0,0.0,0.0,0.0,0.0,0.0,0.0,0.0,0.0,0.0,0.0,0.0,0.0,0.0,0.0,0.0,0.0,0.0,0.0,0.0,0.0,0.0,0.0,0.0,0.0,0.0,0.0,0.0,0.0,0.0,0.0,0.0,0.0,0.0,0.0,0.0,0.0,0.0,0.0,0.0,0.0,0.0,0.0,0.0,0.0,0.0,0.0,0.0,0.0,0.0,0.0,0.0,0.0,0.0,0.0,0.0,0.0,0.0,0.0,0.0,0.0,0.0,0.0,0.0,0.0,0.0,0.0,0.0,0.0,0.0,0.0,0.0,0.0,0.0,0.0,0.0,-2.1033,-2.4447,-2.6814,-2.7383,-2.7145,-2.6724,-2.6151,-2.418,-2.1714,-1.8694,0.0,0.0,0.0,0.0,0.0,0.0,0.0,0.0,0.0,0.0,0.0,0.0,0.0,0.0,0.0,0.0,0.0,0.0,0.0,0.0,0.0,0.0,0.0,0.0,0.0,0.0,0.0,0.0,0.0,0.0,0.0,0.0,0.0,0.0,0.0,0.0,0.0,0.0,0.0,0.0,0.0,0.0,0.0,0.0,0.0,0.0,0.0,0.0,0.0,0.0,0.0,0.0,0.0,0.0,0.0,0.0,0.0,0.0,0.0,0.0,0.0,0.0,0.0,0.0,0.0,0.0,0.0,0.0,0.0,0.0,0.0,0.0,0.0,0.0,0.0,0.0,0.0,0.0,0.0,0.0,0.0,0.0,0.0,0.0,0.0,0.0,0.0,0.0,0.0,0.0,0.0,0.0,0.0,0.0,0.0,0.0,0.0,0.0,0.0,0.0,0.0,0.0,-2.1804,-2.4814,-2.6906,-2.7714,-2.709,-2.6469,-2.6144,-2.4325,-2.1987,-1.9095,0.0,0.0,0.0,0.0,0.0,0.0,0.0,0.0,0.0,0.0,0.0,0.0,0.0,0.0,0.0,0.0,0.0,0.0,0.0,0.0,0.0,0.0,0.0,0.0,0.0,0.0,0.0,0.0,0.0,0.0,0.0,0.0,0.0,0.0,0.0,0.0,0.0,0.0,0.0,0.0,0.0,0.0,0.0,0.0,0.0,0.0,0.0,0.0,0.0,0.0,0.0,0.0,0.0,0.0,0.0,0.0,0.0,0.0,0.0,0.0,0.0,0.0,0.0,0.0,0.0,0.0,0.0,0.0,0.0,0.0,0.0,0.0,0.0,0.0,0.0,0.0,0.0,0.0,0.0,0.0,0.0,0.0,0.0,0.0,0.0,0.0,0.0,0.0,0.0,0.0,0.0,0.0,0.0,0.0,0.0,0.0,0.0,0.0,0.0,0.0,0.0,0.0,-2.2584,-2.5152,-2.6943,-2.7824,-2.72,-2.6571,-2.6179,-2.4444,-2.2276,-1.9702,0.0,0.0,0.0,0.0,0.0,0.0,0.0,0.0,0.0,0.0,0.0,0.0,0.0,0.0,0.0,0.0,0.0,0.0,0.0,0.0,0.0,0.0,0.0,0.0,0.0,0.0,0.0,0.0,0.0,0.0,0.0,0.0,0.0,0.0,0.0,0.0,0.0,0.0,0.0,0.0,0.0,0.0,0.0,0.0,0.0,0.0,0.0,0.0,0.0,0.0,0.0,0.0,0.0,0.0,0.0,0.0,0.0,0.0,0.0,0.0,-2.4043,0.0,0.0,0.0,0.0,0.0,0.0,0.0,0.0,0.0,0.0,0.0,0.0,0.0,0.0,0.0,0.0,0.0,0.0,0.0,0.0,0.0,0.0,0.0,0.0,0.0,0.0,0.0,0.0,0.0,0.0,0.0,0.0,0.0,0.0,0.0,0.0,0.0,0.0,0.0,0.0,0.0,-2.3419,-2.5511,-2.7152,-2.8583,-2.8026,-2.7251,-2.6545,-2.5298,-2.3439,-2.0813,-1.827,0.0,0.0,0.0,0.0,0.0,0.0,0.0,0.0,0.0,0.0,0.0,0.0,0.0,0.0,0.0,0.0,0.0,0.0,0.0,0.0,0.0,0.0,0.0,0.0,0.0,0.0,0.0,0.0,0.0,0.0,0.0,0.0,0.0,0.0,0.0,0.0,0.0,0.0,0.0,0.0,0.0,0.0,0.0,0.0,0.0,0.0,0.0,0.0,0.0,0.0,0.0,0.0,0.0,0.0,0.0,0.0,0.0,0.0,0.0,0.0,-2.6686,0.0,0.0,0.0,0.0,0.0,0.0,0.0,0.0,0.0,0.0,0.0,0.0,0.0,0.0,0.0,0.0,0.0,0.0,0.0,0.0,0.0,0.0,0.0,0.0,0.0,0.0,0.0,0.0,0.0,0.0,0.0,0.0,0.0,0.0,0.0,0.0,0.0,0.0,0.0,0.0,-2.4199,-2.5841,-2.7226,-2.884,-2.8282,-2.7475,-2.6667,-2.5409,-2.3754,-2.1665,-1.9314,0.0,0.0,0.0,0.0,0.0,0.0,0.0,0.0,0.0,0.0,0.0,0.0,0.0,0.0,0.0,0.0,0.0,0.0,0.0,0.0,0.0,0.0,0.0,0.0,0.0,0.0,0.0,0.0,0.0,0.0,0.0,0.0,0.0,0.0,0.0,0.0,0.0,0.0,0.0,0.0,0.0,0.0,0.0,0.0,0.0,0.0,0.0,0.0,0.0,0.0,0.0,0.0,0.0,-3.4945,-3.5073,-3.5073,-3.5073,-3.544,-3.5922,-3.3243,-3.199,-3.1599,-2.8796,0.0,0.0,0.0,0.0,0.0,0.0,0.0,0.0,0.0,0.0,0.0,0.0,0.0,0.0,0.0,0.0,0.0,0.0,0.0,0.0,0.0,0.0,0.0,0.0,-2.7732,-2.7321,-2.3979,0.0,0.0,0.0,0.0,0.0,0.0,0.0,0.0,0.0,0.0,0.0,-2.4842,-2.6209,-2.7372,-2.884,-2.8411,-2.7622,-2.6675,-2.5472,-2.407,-2.2402,-2.0391,-1.8671,0.0,0.0,0.0,0.0,0.0,0.0,0.0,0.0,0.0,0.0,0.0,0.0,0.0,0.0,0.0,0.0,0.0,0.0,0.0,0.0,0.0,0.0,0.0,0.0,0.0,0.0,0.0,0.0,0.0,0.0,0.0,0.0,-2.5191,-2.6825,0.0,0.0,0.0,0.0,0.0,0.0,0.0,0.0,0.0,0.0,0.0,0.0,0.0,-3.4348,-3.4692,-3.682,-3.7955,-3.8083,-3.9478,-4.0141,-4.0141,-4.0141,-4.0196,-4.027,-3.9848,0.0,-3.3403,-3.2271,0.0,0.0,0.0,0.0,0.0,0.0,0.0,0.0,0.0,0.0,0.0,0.0,0.0,0.0,0.0,0.0,0.0,0.0,0.0,0.0,0.0,0.0,-3.0332,-2.9843,-2.9806,-2.9751,0.0,-2.6264,-2.3199,-2.15,-2.0068,0.0,0.0,0.0,0.0,0.0,0.0,0.0,-2.5136,-2.6715,-2.7989,-2.8895,-2.8913,-2.8235,-2.673,-2.6409,-2.5379,-2.3182,-2.1596,-2.037,-1.9599,-1.683,0.0,0.0,0.0,0.0,0.0,0.0,0.0,0.0,0.0,0.0,0.0,0.0,0.0,0.0,0.0,0.0,0.0,0.0,0.0,0.0,0.0,0.0,0.0,0.0,0.0,0.0,0.0,0.0,0.0,-2.5144,-2.7677,-2.8393,-2.8661,-2.8239,0.0,0.0,0.0,0.0,0.0,0.0,0.0,0.0,0.0,-3.6633,-3.7386,-3.8634,-4.0435,-4.1517,-4.2304,-4.2745,-4.3461,-4.3809,-4.3809,-4.3809,-4.3809,-4.3773,-4.3315,-4.1662,-3.9038,-3.6431,-3.4266,-3.2394,0.0,0.0,0.0,0.0,-2.9824,-2.9751,-3.1953,-3.2118,-3.1243,-3.0797,0.0,0.0,0.0,0.0,0.0,0.0,0.0,0.0,0.0,0.0,-3.2761,-3.2858,-3.3261,-3.3366,-3.243,-3.0834,-2.8576,0.0,-2.4263,-2.3245,-2.0637,0.0,0.0,0.0,0.0,-2.3914,-2.6439,-2.7357,-2.8117,-2.8913,-2.9005,-2.8269,-2.6468,-2.6156,-2.5153,-2.3047,-2.2168,-2.1412,-2.0699,-1.9,-1.737,0.0,0.0,0.0,0.0,0.0,0.0,0.0,0.0,0.0,0.0,0.0,0.0,0.0,0.0,0.0,0.0,0.0,0.0,0.0,0.0,0.0,0.0,0.0,0.0,0.0,0.0,0.0,0.0,-2.7886,-2.9996,-3.0198,-3.1659,-3.177,0.0,0.0,0.0,0.0,0.0,0.0,-3.5293,-3.6307,-3.8178,-4.1038,-4.1332,-4.258,-4.4984,-4.5021,-4.5314,-4.5902,-4.5902,-4.5902,-4.5902,-4.5902,-4.5902,-4.5865,-4.5278,-4.4672,-4.3827,-4.0008,-3.7826,-3.6707,-3.4669,-3.3733,-3.3628,-3.4449,-3.4376,-3.4229,-3.6905,-3.7,-3.5885,-3.5495,-3.4119,-3.2241,-3.0008,0.0,0.0,0.0,0.0,-3.0693,-3.2693,-3.3825,-3.4596,-3.5188,-3.5826,-3.5954,-3.4706,-3.4431,-3.3073,0.0,-2.8007,-2.7328,-2.3924,0.0,0.0,0.0,0.0,-2.5089,-2.7493,-2.797,-2.8338,-2.8932,-2.9005,-2.8246,-2.6381,-2.5991,-2.5027,-2.3072,-2.2682,-2.2251,-2.1608,-2.0772,-1.9399,-1.7441,0.0,0.0,0.0,0.0,0.0,0.0,0.0,0.0,0.0,0.0,0.0,0.0,0.0,0.0,0.0,0.0,0.0,0.0,0.0,0.0,0.0,0.0,0.0,0.0,0.0,0.0,0.0,0.0,0.0,-3.3476,-3.5037,0.0,0.0,0.0,0.0,-3.4637,-3.5587,-3.7129,-3.9475,-4.1075,-4.2708,-4.4415,-4.5204,-4.5681,-4.5847,-4.5847,-4.5865,-4.5902,-4.5902,-4.5902,-4.5902,-4.5902,-4.5902,-4.5902,-4.5865,-4.581,-4.5535,-4.2251,-3.9976,-3.8487,-3.7603,-3.6795,-3.6211,-3.7015,-3.729,-3.7401,-3.8322,-3.8579,-3.8634,-3.935,-3.7991,-3.5734,-3.4027,-3.2394,0.0,0.0,-3.2981,-3.377,-3.4656,-3.5532,-3.6174,-3.6211,-3.6266,-3.6266,-3.6193,-3.6156,-3.4945,0.0,-3.0063,-2.9531,-2.7798,0.0,-2.7255,-2.6539,-2.7071,-2.7622,-2.778,-2.8473,-2.8968,-2.9005,-2.9005,-2.8333,-2.672,-2.6562,-2.5721,-2.3761,-2.3335,-2.2991,-2.2643,-2.1681,-2.0395,-1.8833,-1.6621,0.0,0.0,0.0,0.0,0.0,0.0,0.0,0.0,0.0,0.0,0.0,0.0,0.0,0.0,0.0,0.0,0.0,0.0,0.0,0.0,0.0,0.0,0.0,0.0,0.0,0.0,0.0,0.0,-3.7569,-3.9166,0.0,-3.7881,-3.8652,-3.9166,-3.8949,-4.0653,-4.2084,-4.2947,-4.4507,-4.5883,-4.6985,-4.7829,-4.8526,-4.9058,-4.9058,-4.9058,-4.9058,-4.9058,-4.8783,-4.8288,-4.8288,-4.7976,-4.7425,-4.6892,-4.6654,-4.6526,-4.4892,-4.3552,-4.2416,-4.1111,-4.0414,-4.0194,-4.0469,-4.0579,-4.0689,-4.1497,-4.1442,-4.0891,-4.0139,-3.9313,-3.8395,-3.7294,-3.656,-3.6266,-3.7074,-3.7496,-3.779,-3.8083,-3.8377,-3.8487,-3.7973,-3.7845,-3.7698,-3.718,-3.707,-3.6501,-3.4504,-3.3256,-3.1843,-2.9714,-2.9347,-2.9255,-2.8962,-2.9163,-2.9347,-2.9347,-2.9586,-2.9574,-2.906,-2.9005,-2.8258,-2.6427,-2.6277,-2.5446,-2.351,-2.3069,-2.2822,-2.2708,-2.218,-2.1177,-1.9642,-1.7901,-1.5923,0.0,0.0,0.0,0.0,0.0,0.0,0.0,0.0,0.0,0.0,0.0,0.0,0.0,0.0,0.0,0.0,0.0,0.0,0.0,0.0,0.0,0.0,0.0,0.0,0.0,0.0,-3.9111,-4.0175,-4.2194,-4.2873,-4.1258,-4.2818,-4.3699,-4.3168,-4.4856,-4.6049,-4.6342,-4.737,-4.8324,-4.9132,-4.9701,-5.0251,-5.0802,-5.0802,-5.0802,-5.0802,-5.0802,-5.0508,-4.9994,-4.9994,-4.9536,-4.871,-4.8177,-4.7792,-4.7443,-4.6654,-4.5993,-4.5351,-4.3754,-4.3112,-4.3075,-4.28,-4.269,-4.2782,-4.3331,-4.3149,-4.247,-4.113,-4.0708,-4.0561,-3.9753,-3.9515,-3.9625,-4.0157,-4.0304,-4.0304,-4.0304,-4.0304,-4.0102,-3.9294,-3.9093,-3.8872,-3.8065,-3.7915,-3.7676,-3.6868,-3.5349,-3.3623,-3.1751,-3.1201,-3.0925,-3.065,-3.0595,-3.0595,-3.0595,-3.0375,-3.0008,-2.9464,-2.9152,-2.8368,-2.6809,-2.6422,-2.5543,-2.3873,-2.3198,-2.2822,-2.2708,-2.2197,-2.1316,-2.0018,-1.8307,-1.6712,-1.524,0.0,0.0,0.0,0.0,0.0,0.0,0.0,0.0,0.0,0.0,0.0,0.0,0.0,0.0,0.0,0.0,0.0,0.0,0.0,0.0,0.0,0.0,0.0,-3.656,-3.9203,-4.1242,-4.1315,-4.4085,-4.5369,-4.3882,-4.5847,-4.7223,-4.7223,-4.7938,-4.8746,-4.9592,-4.9665,-5.0013,-5.082,-5.0857,-5.0875,-5.0875,-5.0875,-5.0875,-5.0875,-5.0875,-5.0857,-5.0839,-5.0839,-5.0398,-4.9647,-4.9647,-4.9132,-4.8288,-4.7498,-4.7168,-4.6984,-4.537,-4.4709,-4.4617,-4.3809,-4.3533,-4.3515,-4.3515,-4.3515,-4.3369,-4.2598,-4.2341,-4.2194,-4.1407,-4.1168,-4.1168,-4.1168,-4.1168,-4.1168,-4.1132,-4.1132,-4.093,-4.012,-3.9937,-3.9717,-3.8909,-3.8744,-3.8505,-3.7694,-3.6211,-3.4821,-3.4027,-3.3206,-3.2399,-3.1635,-3.1488,0.0,-3.1452,-3.076,-3.0265,-3.021,-2.95,-2.8693,-2.786,-2.7053,-2.611,-2.496,-2.3838,-2.3057,-2.2721,-2.1763,-2.0856,-2.0052,-1.7879,-1.6766,-1.6733,0.0,0.0,0.0,0.0,0.0,0.0,0.0,0.0,0.0,0.0,0.0,0.0,0.0,0.0,0.0,0.0,0.0,0.0,0.0,0.0,0.0,0.0,-4.0029,-3.9811,-4.2066,-4.4361,-4.6122,-4.7113,-4.7939,-4.8728,-4.9389,-4.9793,-4.9793,-4.9994,-5.0215,-5.0453,-5.1022,-5.1446,-5.1665,-5.2252,-5.2546,-5.2546,-5.2546,-5.2546,-5.2546,-5.2546,-5.2234,-5.1665,-5.1665,-5.1224,-5.0472,-5.0472,-4.9994,-4.9243,-4.8985,-4.8545,-4.781,-4.6214,-4.5223,-4.4654,-4.4452,-4.3993,-4.3515,-4.3515,-4.3515,-4.346,-4.3239,-4.3167,-4.313,-4.291,-4.2837,-4.2837,-4.2837,-4.2837,-4.2708,-4.2121,-4.1974,-4.1772,-4.0965,-4.0781,-4.0561,-3.9735,-3.957,-3.9331,-3.8524,-3.7533,-3.656,-3.5752,-3.4912,-3.427,-3.4032,-3.3513,0.0,-3.2357,-3.2069,-3.1494,-3.032,-3.0008,-2.931,-2.7915,-2.7053,-2.611,-2.496,-2.3838,-2.3057,-2.2721,-2.2262,-2.1651,-2.0873,-1.9176,-1.807,0.0,0.0,0.0,0.0,0.0,0.0,0.0,0.0,0.0,0.0,0.0,0.0,0.0,0.0,0.0,0.0,0.0,0.0,0.0,0.0,0.0,0.0,-4.0526,-4.3342,-4.3688,-4.515,-4.6746,-4.8141,-4.893,-4.9738,-5.071,-5.1096,-5.1298,-5.1298,-5.161,-5.1811,-5.1811,-5.2252,-5.2509,-5.2509,-5.328,-5.3555,-5.3185,-5.3537,-5.3537,-5.3185,-5.3185,-5.2968,-5.2509,-5.2509,-5.2068,-5.1298,-5.1298,-5.0637,-4.961,-4.961,-4.9077,0.0,0.0,0.0,0.0,0.0,-4.4415,-4.3956,-4.3608,-4.3515,-4.3515,-4.3515,-4.3515,-4.3515,-4.3515,-4.3515,-4.3515,-4.3515,-4.3515,-4.3404,-4.291,-4.28,-4.2598,-4.1791,-4.159,-4.1387,-4.0579,-4.0139,-3.9753,-3.9294,-3.8542,0.0,-3.7386,-3.634,-3.5426,-3.5059,-3.4601,-3.3995,-3.3206,-3.2803,-3.2234,-3.1311,-3.0595,-2.9758,-2.8646,-2.7654,0.0,0.0,0.0,-2.3219,-2.2117,-2.1925,0.0,0.0,0.0,0.0,0.0,0.0,0.0,0.0,-1.745,-1.7092,0.0,0.0,0.0,0.0,0.0,0.0,0.0,0.0,0.0,0.0,0.0,0.0,0.0,0.0,0.0,0.0,-4.3069,-4.6726,-4.7551,-4.8263,-4.8728,-4.8728,-5.0031,-5.0967,-5.1059,-5.172,-5.216,-5.2252,-5.2931,-5.3369,-5.3482,0.0,0.0,0.0,0.0,-5.4197,-5.3482,-5.4179,-5.4124,-5.3332,-5.3332,-5.3277,-5.3185,-5.3185,-5.2821,-5.2142,-5.2142,-5.1261,-4.9867,-4.9867,-4.9297,-4.8361,-4.7443,-4.7094,-4.6911,-4.5388,-4.4838,-4.4727,-4.3901,0.0,0.0,-4.3533,-4.3515,-4.3515,-4.3515,-4.3515,-4.3515,-4.3515,-4.3515,-4.3515,-4.3515,-4.3515,-4.3331,-4.2598,-4.2433,-4.2213,-4.1407,-4.0671,-4.012,-3.9953,-3.9313,-3.8817,-3.8726,-3.7441,-3.6138,-3.5279,-3.5059,-3.4711,-3.3899,-3.3183,-3.2693,-3.2601,0.0,0.0,-2.9717,-2.8596,-2.7282,-2.5737,-2.4802,-2.3449,-2.1585,-2.1386,-2.1326,-2.1326,-2.1326,-2.1647,-2.2296,-2.2296,-2.1972,-2.1258,-1.8584,-1.7991,0.0,0.0,0.0,0.0,0.0,0.0,0.0,0.0,0.0,0.0,0.0,0.0,0.0,0.0,0.0,-4.2388,-4.5665,-4.8211,-4.9143,-5.0432,-5.1279,-5.1279,-5.1555,-5.2013,-5.2674,-5.2894,-5.3243,-5.3885,-5.4087,-5.4454,-5.5097,-5.5133,-5.5133,-5.5133,-5.528,-5.528,-5.5133,-5.528,-5.495,-5.4179,0.0,0.0,-5.3185,-5.3185,-5.3133,-5.2968,-5.2968,-5.2417,-5.1536,-5.1536,-5.0675,-4.9206,-4.7681,-4.7094,-4.6984,-4.603,-4.5663,-4.5553,-4.4745,-4.447,-4.436,-4.3699,-4.3515,-4.3515,-4.3515,-4.3515,0.0,-4.3515,-4.3515,-4.3515,-4.3515,-4.3515,-4.346,-4.3313,-4.3276,-4.3039,-4.2249,-4.1956,-4.1442,-4.0139,-3.9772,-3.946,-3.8817,-3.79,-3.6997,-3.6174,-3.5445,-3.4711,-3.3899,-3.366,-3.333,-3.2674,-3.2326,-3.1579,-3.0198,-2.9294,-2.8136,-2.6637,-2.4698,-2.3539,-2.3452,-2.259,-2.209,-2.209,-2.209,-2.2175,-2.2296,-2.2296,-2.2243,-2.206,-2.1498,-2.1042,0.0,0.0,0.0,0.0,0.0,0.0,0.0,0.0,0.0,0.0,0.0,-3.5664,0.0,0.0,-4.2573,-4.4921,-4.7156,-4.9023,-5.0195,-5.1338,-5.2043,-5.2011,-5.2362,-5.2931,-5.372,-5.3812,-5.4124,-5.4932,-5.4987,-5.517,-5.5596,-5.5614,-5.5614,-5.5614,-5.5978,-5.5996,-5.5614,-5.5996,-5.5794,-5.4987,-5.4583,-5.4197,-5.3794,-5.339,-5.3185,-5.3185,-5.3185,-5.2747,-5.1958,-5.1573,-5.0674,-4.9519,-4.8673,-4.8086,-4.759,-4.6801,-4.6507,-4.6397,-4.559,-4.5039,-4.4635,-4.4232,-4.3828,-4.3515,-4.3515,-4.3515,-4.3515,-4.3515,-4.3515,-4.3515,-4.3515,-4.3515,-4.3515,-4.3515,-4.3515,-4.3404,-4.2983,-4.258,-4.2066,-4.1258,-4.0451,-3.9772,-3.9368,-3.8634,-3.7826,-3.7033,-3.6193,-3.5334,-3.4509,-3.4045,-3.3642,-3.3238,-3.2839,-3.2219,-3.124,-2.9481,-2.7972,-2.6872,-2.516,-2.4227,-2.4256,-2.3711,-2.3224,-2.2868,-2.2852,-2.2682,-2.2296,-2.2682,-2.2852,-2.2868,-2.3224,-2.2801,0.0,0.0,0.0,0.0,0.0,0.0,0.0,0.0,-3.3328,-3.62,-3.7479,-3.9064,-4.2245,-4.3485,-4.4749,-4.6969,-4.8452,-4.9748,-5.1027,-5.1855,-5.23,-5.2247,-5.2821,-5.3537,-5.4326,-5.4399,-5.4803,-5.5757,-5.5831,-5.5886,-5.6051,-5.6073,-5.6073,-5.6073,-5.6693,-5.673,-5.6069,-5.6712,-5.6638,-5.5812,-5.517,-5.4693,-5.4381,-5.3739,-5.3353,-5.3185,-5.3185,-5.2839,-5.216,-5.1353,-5.0637,-5.0051,-4.9721,-4.9169,-4.8453,-4.7626,-4.7333,-4.7223,-4.6416,-4.5718,-4.5113,-4.4801,-4.4268,-4.3699,-4.3551,-4.3515,-4.3515,-4.3515,-4.3515,-4.3515,-4.3515,-4.3515,-4.3515,-4.3515,-4.3515,-4.3515,-4.3515,-4.2983,-4.2488,-4.2323,-4.124,-4.0267,-3.9937,-3.935,-3.8615,-3.7639,-3.696,-3.6156,-3.5133,-3.4417,-3.3972,-3.3825,-3.322,-3.2601,-3.2014,-2.9671,-2.7917,-2.7166,-2.5932,-2.5099,-2.4832,-2.4622,-2.422,-2.3628,-2.3613,-2.3325,-2.2733,-2.3325,-2.3613,-2.3628,-2.422,-2.3864,-2.9632,-3.0209,-3.1123,-3.2459,-3.2408,-3.3427,0.0,0.0,-3.8142,-4.1747,-4.2584,-4.3391,-4.5727,-4.6203,-4.6995,-4.9262,-5.0227,-5.0987,-5.1854,-5.2607,-5.3066,-5.3075,-5.3148,-5.3537,-5.4326,-5.4399,-5.5023,-5.6547,-5.6675,-5.6987,-5.7685,-5.7721,-5.7721,-5.7721,-5.7813,-5.7813,-5.7721,-5.7813,-5.7464,-5.6657,-5.6583,-5.5794,-5.4399,-5.4308,-5.3885,-5.3185,-5.3185,-5.3148,-5.3004,-5.2197,-5.1793,-5.1573,-5.0161,-4.9537,-4.9353,-4.8489,-4.8177,-4.8048,-4.7241,-4.6911,-4.6599,-4.515,-4.4654,-4.4433,-4.3718,-4.3515,-4.3515,-4.3515,-4.3515,-4.3515,-4.3515,-4.3515,-4.3515,-4.3515,-4.3515,-4.3515,-4.3515,-4.3441,-4.3149,-4.2433,-4.2158,-4.157,-4.0139,-3.9827,-3.9255,-3.7731,-3.7419,-3.678,-3.5206,-3.4931,-3.4582,-3.388,-3.3715,-3.306,-3.1603,-3.0218,-2.9084,-2.8265,-2.6859,-2.6041,-2.6011,-2.5029,-2.4457,-2.4372,-2.4372,-2.4338,-2.4254,-2.4338,-2.4372,-2.4372,-2.4457,-2.4406,-3.3643,-3.4223,0.0,0.0,-3.6434,-3.7499,-3.9978,-4.051,-4.1153,-4.3589,-4.4451,-4.5281,-4.7068,-4.7696,-4.851,0.0,-5.0893,-5.1452,-5.2572,-5.2682,-5.258,-5.2517,-5.2913,-5.3702,-5.4968,-5.5097,-5.5757,-5.7373,-5.7501,-5.7648,-5.7978,-5.7997,-5.7997,-5.7997,-5.7997,-5.7997,-5.7997,-5.7997,-5.7831,-5.7483,-5.7024,-5.6455,-5.5757,-5.484,-5.3959,-5.3185,-5.3185,-5.3185,-5.3167,-5.2839,-5.2417,-5.1922,-5.1263,-5.0418,-4.95,-4.8618,-4.8306,-4.8251,-4.7921,-4.748,-4.6984,-4.6324,-4.5461,-4.4654,-4.4305,-4.3864,-4.3515,-4.3515,-4.3515,-4.3515,-4.3515,-4.3515,-4.3515,-4.3515,-4.3515,-4.3515,-4.3515,-4.3515,-4.3387,-4.3057,-4.2616,-4.1937,-4.0799,-4.0212,-3.9399,-3.7938,-3.7598,-3.7088,-3.5917,-3.5316,-3.4692,-3.3899,-3.3807,-3.325,-3.1883,-3.131,-3.0404,-2.8852,-2.7987,-2.7334,-2.6868,-2.6154,-2.5591,-2.5152,-2.5135,-2.4931,-2.4491,-2.4931,-2.5135,-2.5152,-2.5591,-2.5794,-3.5898,0.0,0.0,-3.8125,-3.9631,-4.1059,-4.1305,-4.232,-4.3606,-4.4925,-4.5618,-4.6428,-4.7883,-4.8562,-4.9526,-5.1387,-5.1732,-5.2209,-5.3357,-5.2917,-5.2372,-5.2059,-5.2325,-5.317,-5.4785,-5.5133,-5.5941,-5.7556,-5.7666,-5.7776,-5.7997,-5.7997,-5.7997,-5.7997,-5.7997,-5.7997,-5.7997,-5.7997,-5.7997,-5.7997,-5.7409,-5.7024,-5.6767,-5.5133,-5.4087,-5.3537,-5.3316,-5.3185,-5.3185,-5.3185,-5.2858,-5.2307,-5.2087,-5.1132,-4.9831,-4.8967,-4.8508,-4.8306,-4.8306,-4.7921,-4.7388,-4.7168,-4.6159,-4.4948,-4.4583,-4.4015,-4.3462,-4.3322,-4.3392,-4.3515,-4.3515,-4.3515,-4.3515,-4.3515,-4.3392,-4.3322,-4.348,-4.3392,-4.3321,-4.3462,-4.302,-4.2378,-4.1572,-4.0763,-3.9774,-3.8431,-3.7887,-3.728,-3.6321,-3.5381,-3.4548,-3.3867,-3.3807,-3.331,-3.2098,-3.204,-3.1242,-2.927,-2.8727,-2.8172,-2.7475,-2.696,-2.6504,-2.6074,-2.5961,-2.5707,-2.527,-2.5707,-2.5913,-2.593,-2.6437,-2.6691,0.0,0.0,-3.9825,-3.914,-4.1153,-4.3504,-4.4282,-4.5043,-4.5821,-4.6566,-4.6735,-4.7182,-4.8526,-4.8855,-4.9829,-5.2682,-5.3185,-5.3494,-5.4257,-5.3659,-5.2889,-5.2087,-5.1334,-5.1499,0.0,-5.3977,-5.5097,-5.673,-5.684,-5.7189,-5.796,-5.7997,-5.7997,-5.7997,-5.7997,-5.7997,-5.7997,-5.7997,-5.7997,-5.7997,-5.7978,-5.7556,-5.6767,-5.5133,-5.4399,-5.4326,-5.3555,-5.3185,-5.3185,-5.3185,-5.3206,-5.3096,-5.2307,-5.1481,-5.0674,-4.9867,-4.9022,-4.8306,-4.8306,-4.8288,-4.8141,-4.7351,-4.6526,-4.5608,-4.4315,-4.3724,-4.3392,-4.2883,-4.3105,-4.3515,-4.3515,-4.3515,-4.3515,-4.3515,-4.3087,-4.2864,-4.3392,-4.3087,-4.2883,-4.3392,-4.3478,-4.3221,-4.2396,-4.1607,-4.0615,-3.928,-3.838,-3.7414,-3.6077,-3.4984,-3.419,-3.384,-3.3807,-3.331,-3.2098,-3.1996,-3.1278,-2.959,-2.8796,-2.8217,-2.7808,-2.708,-2.6856,-2.7253,-2.6872,-2.6839,-2.7201,-2.6839,-2.6657,-2.6657,-2.6691,-2.6691,0.0,0.0,-4.1136,-4.2388,-4.379,-4.5074,-4.5897,-4.6935,-4.7576,-4.6935,-4.6732,-4.6793,-4.7213,-4.7369,-4.8197,-5.0502,-5.188,-5.2862,-5.3496,-5.4337,-5.415,-5.2229,-5.2692,0.0,0.0,0.0,0.0,-5.6657,-5.6804,-5.7152,-5.796,-5.7997,-5.7997,-5.7997,-5.7997,-5.7997,-5.7997,-5.7997,-5.7997,-5.7997,-5.7997,-5.7574,-5.6785,-5.6253,-5.5409,-5.4381,-5.4106,-5.3702,-5.3185,-5.3185,-5.3185,-5.3167,-5.2913,-5.2307,-5.1499,-5.0692,-4.959,-4.8483,-4.8335,-4.8306,-4.8269,-4.7994,-4.7351,-4.6451,-4.5095,-4.4258,-4.3535,-4.2425,-4.2521,-4.2976,-4.2976,-4.3232,-4.3515,-4.3515,-4.3375,-4.3178,-4.2995,-4.2826,-4.2617,-4.2406,-4.2694,-4.2686,-4.1851,-4.1825,-4.1152,-3.8956,-3.745,-3.6542,-3.645,-3.5186,-3.4392,-3.4577,-3.4119,-3.3395,-3.242,-3.2619,-3.2061,-3.0335,-3.0041,-2.9627,-2.8973,-2.7964,-2.7487,-2.7623,-2.7029,-2.6775,-2.6906,-2.6775,-2.6691,-2.6691,-2.6691,-2.6691,-3.9817,-4.1221,-4.2535,-4.4804,-4.5894,-4.6543,-4.7056,-4.7634,-4.7759,-4.6537,-4.5797,-4.5484,-4.5902,-4.6048,-4.6986,-4.9647,-5.1512,-5.287,-5.3577,-5.4563,-5.4446,-5.2286,-5.2672,-5.2915,0.0,0.0,0.0,-5.6171,-5.6638,-5.7152,-5.796,-5.7997,-5.7997,-5.7997,-5.7997,-5.7997,-5.7997,-5.7997,-5.7997,-5.7997,-5.7997,-5.7721,-5.7226,-5.6932,-5.6088,-5.4803,-5.4528,-5.394,-5.3185,-5.2915,-5.2959,-5.3185,-5.2915,-5.2465,-5.1885,-5.1096,-5.001,-4.8865,-4.8209,-4.7818,-4.7677,-4.7897,-4.7428,-4.6621,-4.578,-4.4953,-4.4,-4.2622,-4.2489,-4.2761,-4.2707,-4.2958,-4.3268,-4.3444,-4.3357,-4.3178,-4.3014,-4.2674,-4.2322,-4.2162,-4.2262,-4.2183,-4.1646,-4.1647,-4.098,-3.8744,-3.732,-3.6418,-3.6203,-3.5261,-3.4596,-3.4503,-3.4193,-3.3518,-3.2351,-3.2681,-3.2336,-3.0898,-3.0605,-3.0262,-2.9745,-2.8762,-2.8301,-2.8425,-2.7827,-2.7572,-2.7708,-2.7572,-2.752,-2.752,-2.752,-2.752,-4.0916,-4.2439,-4.4075,-4.6218,-4.7341,-4.7869,-4.7762,-4.7266,-4.6556,-4.5483,-4.4094,-4.3382,0.0,0.0,-4.606,-4.9913,-5.199,-5.3419,-5.4375,-5.451,-5.3963,0.0,0.0,0.0,0.0,0.0,0.0,-5.5485,0.0,-5.7043,-5.7895,-5.7909,-5.7886,-5.7886,-5.7909,-5.7932,-5.7932,-5.7973,-5.7997,-5.7997,-5.7997,-5.7997,-5.796,-5.7207,-5.6418,-5.5611,-5.4803,-5.4014,-5.3198,-5.2463,-5.2554,-5.3063,-5.2381,-5.2037,-5.1857,-5.1051,-5.0224,-4.9301,-4.7895,-4.699,-4.6548,-4.715,-4.6837,-4.6203,-4.6188,-4.5626,-4.4689,-4.3336,-4.2895,-4.2827,-4.2691,-4.2671,-4.277,-4.3286,-4.305,-4.2826,-4.3303,-4.2562,-4.1958,-4.25,-4.2142,-4.175,-4.1793,-4.1176,-4.0167,-3.8695,-3.7953,-3.7005,-3.5454,-3.5247,-3.4818,-3.3829,-3.4057,-3.3618,-3.2,-3.2231,-3.2109,-3.1252,-3.0548,-3.0176,-3.0176,-2.9467,-2.9207,-2.9523,-2.9192,-2.9157,-2.9471,-2.9157,-2.8993,-2.8993,-2.8993,-2.8993,-4.2455,-4.435,-4.6201,-4.7308,-4.7706,-4.7698,-4.7176,-4.7143,-4.6566,-4.4175,-4.2893,-4.2019,0.0,0.0,0.0,-4.661,-4.9764,0.0,-5.4177,-5.5509,0.0,-5.4076,0.0,-5.4373,-5.4193,-5.5051,0.0,0.0,-5.5609,-5.571,-5.7105,-5.6606,-5.6277,-5.6277,-5.6876,-5.7184,-5.7184,-5.7726,-5.7997,-5.7997,-5.7997,-5.7997,-5.7997,-5.7795,-5.7262,-5.6455,-5.5629,-5.484,-5.4029,-5.3237,-5.2725,-5.2358,-5.2159,-5.1778,-5.1218,-5.0425,-4.933,-4.8186,-4.7719,-4.7365,-4.7088,-4.6756,-4.6516,-4.6181,-4.5176,-4.4734,-4.4275,-4.2882,-4.2386,-4.23,-4.2253,-4.2141,-4.2062,-4.2206,-4.2462,-4.2616,-4.2286,-4.2021,-4.1707,-4.1424,-4.1228,-4.1268,-4.1707,-4.0814,-3.99,-3.9517,-3.8062,-3.6789,-3.6177,-3.5558,-3.5238,-3.5311,-3.4393,-3.3476,-3.2763,-3.2245,-3.1751,-3.123,-3.1021,-3.092,-3.092,-3.0209,-2.9876,-2.9954,-2.9319,-2.9047,-2.9121,-2.9047,-2.8993,-2.8993,-2.8993,-2.8993,-4.4363,-4.6028,-4.7539,-4.8546,-4.8081,-4.7002,-4.5617,-4.4893,-4.3686,-4.0793,-3.9697,0.0,0.0,0.0,0.0,0.0,0.0,0.0,-5.3093,-5.4801,-5.5416,0.0,-5.4426,0.0,-5.455,-5.5348,-5.6132,0.0,-5.6335,-5.644,-5.734,-5.6953,-5.6711,-5.6711,-5.7166,-5.7234,-5.6912,-5.7637,-5.7839,-5.7516,-5.7516,-5.7516,-5.7516,-5.7148,-5.6738,-5.6296,0.0,-5.5181,-5.4341,-5.3547,-5.2799,-5.2071,-5.1783,-5.1419,-5.0997,-5.0211,-4.9388,-4.8575,-4.7506,-4.7097,-4.6986,-4.6537,-4.6216,-4.5902,-4.5432,-4.5087,-4.4646,-4.3537,-4.2963,-4.256,-4.2185,-4.2021,-4.1925,-4.1817,-4.2059,-4.2203,-4.1874,-4.1599,-4.1223,-4.0672,-4.0552,-4.0726,-4.1313,-4.0784,-4.0158,-3.9846,-3.8561,-3.7381,-3.6671,-3.5878,-3.5349,-3.5275,-3.469,-3.4006,-3.3247,-3.2645,-3.2139,-3.1704,-3.1376,-3.119,-3.119,-3.0801,-3.0581,-3.0581,-3.0194,-2.9974,-2.9974,-2.9974,-2.9974,-2.9974,-2.9974,-2.9974,-4.6293,-4.7427,-4.8332,-4.9441,-4.819,-4.6039,-4.3663,-4.1767,-3.9698,-3.6793,0.0,-3.551,-3.5401,-3.6899,-3.9272,-4.2772,0.0,-4.9518,-5.1917,-5.3552,-5.4285,-5.3695,-5.3587,-5.3818,-5.452,-5.4682,-5.5309,-5.6642,-5.7333,-5.7732,-5.7862,-5.7732,-5.7732,-5.7862,-5.775,-5.7449,-5.6912,-5.7425,-5.7382,-5.6739,-5.6739,-5.6739,-5.6713,-5.6004,-5.5703,-5.5677,-5.5587,-5.5063,-5.4227,-5.3459,-5.263,-5.1765,-5.1189,-5.0903,-5.0753,-5.0048,-4.9706,-4.9354,-4.7421,-4.6627,-4.6446,-4.6235,-4.5808,-4.5485,-4.6014,-4.5808,-4.526,-4.4612,-4.392,-4.3189,-4.2351,-4.2033,-4.1901,-4.1635,-4.1639,-4.1686,-4.1686,-4.1268,-4.0733,-4.0204,-4.0096,-4.0254,-4.0709,-4.0803,-4.0579,-3.994,-3.9202,-3.8298,-3.7102,-3.6163,-3.5346,-3.4709,-3.4928,-3.4669,-3.3634,-3.3257,-3.2855,-3.2313,-3.1701,-3.1292,-3.119,-3.119,-3.119,-3.119,-3.119,-3.119,-3.119,-3.119,-3.119,-3.119,-3.119,-3.119,-4.7238,-4.8229,-4.8724,-4.835,-4.7075,-4.5122,-4.2251,-4.0268,0.0,0.0,0.0,-3.3688,-3.3713,-3.5385,-3.8009,-4.1879,0.0,0.0,0.0,0.0,-5.4462,0.0,0.0,0.0,0.0,0.0,0.0,0.0,0.0,-5.6376,-5.704,-5.6474,-5.6403,-5.7065,-5.6447,-5.6367,-5.6887,-5.6367,-5.6031,-5.592,-5.592,-5.592,-5.5893,-5.5762,-5.5692,-5.5644,-5.4995,0.0,-5.3503,-5.2731,-5.159,-5.0362,-5.0241,-4.985,-4.9359,-4.921,-4.8767,-4.8177,-4.7683,-4.6773,-4.5733,-4.5135,-4.4841,-4.4776,-4.4879,-4.4841,-4.4714,-4.4606,-4.4003,-4.3217,-4.2453,-4.1826,-4.1189,-4.0548,-4.0726,-4.1064,-4.1064,-4.0972,-4.0733,-4.0204,-4.0096,-4.0121,-4.0229,-4.0254,-4.0203,-4.0084,-3.9438,-3.8659,-3.7828,-3.6462,-3.5549,-3.5414,-3.4948,-3.4546,-3.4341,-3.371,-3.3036,-3.2327,-3.2175,-3.1853,-3.1224,-3.119,-3.119,-3.119,-3.119,-3.119,-3.119,-3.119,-3.119,-3.119,-3.119,-3.119,-4.8302,-4.9195,-4.9348,-4.8602,-4.702,-4.458,-4.0442,0.0,0.0,0.0,0.0,-3.1079,-3.0322,0.0,0.0,0.0,0.0,0.0,0.0,0.0,0.0,0.0,0.0,0.0,0.0,0.0,0.0,0.0,0.0,-5.5865,-5.6241,-5.592,-5.5893,-5.6241,-5.5893,-5.5695,-5.5685,-5.5695,-5.5524,-5.5131,-5.5131,-5.5131,-5.5114,-5.4743,-5.4774,-5.5079,-5.4326,-5.3739,-5.3334,-5.2573,-5.1365,-5.0004,-5.0004,-4.9593,-4.9001,-4.9001,-4.8781,-4.8338,-4.7534,-4.6805,-4.6092,-4.497,-4.4615,-4.4615,-4.4615,-4.4615,-4.4615,-4.4615,-4.4316,-4.3758,-4.2591,-4.2033,-4.1491,-4.0367,-4.0286,-4.0473,-4.0473,-4.0473,-4.0417,-4.0146,-4.0096,-4.0096,-4.0096,-4.0096,-4.0096,-4.0096,-3.9462,-3.887,-3.8514,-3.7161,-3.6062,-3.5633,-3.5278,-3.5081,-3.5081,-3.4404,-3.366,-3.2916,-3.2513,-3.1972,-3.1224,-3.119,-3.119,-3.119,-3.119,-3.119,-3.119,-3.119,-3.119,-3.119,-3.119,-3.119,-4.9061,-4.9922,-4.9792,-4.8895,-4.7121,-4.4257,-3.9074,-3.6307,0.0,0.0,-2.899,-2.8693,-2.7736,0.0,0.0,0.0,0.0,0.0,0.0,0.0,0.0,0.0,0.0,0.0,0.0,0.0,0.0,0.0,0.0,0.0,-5.5678,-5.5706,-5.5706,-5.5706,-5.5535,-5.5173,-5.462,-5.5012,-5.4939,-5.4374,-5.4374,-5.4374,-5.4342,-5.375,-5.3799,-5.4339,-5.358,-5.3103,-5.2881,-5.2137,-5.1022,-4.9809,-4.9809,-4.9462,-4.9001,-4.9001,-4.9001,-4.8798,-4.731,-4.6786,-4.6549,-4.5089,-4.4615,-4.4615,-4.4615,-4.4615,-4.4615,-4.4615,-4.4615,-4.4242,-4.2692,-4.2286,-4.1914,-4.0451,-4.0096,-4.0096,-4.0096,-4.0096,-4.0096,-4.0096,-4.0096,-4.0096,-4.0096,-4.0096,-4.0096,-4.0096,-3.9622,-3.9174,-3.9005,-3.7838,-3.6721,-3.5943,-3.5701,-3.56,-3.56,-3.5081,-3.4421,-3.3677,-3.3106,-3.2446,-3.1698,-3.1512,-3.1427,-3.1427,-3.1275,-3.119,-3.119,-3.119,-3.119,-3.119,-3.119,-3.119,-4.9151,-4.995,-4.9669,-4.8253,-4.6752,-4.4257,-3.9074,0.0,0.0,-2.9619,-2.7928,-2.7265,-2.8207,-2.9273,0.0,0.0,0.0,-4.1389,0.0,0.0,0.0,0.0,0.0,0.0,0.0,0.0,0.0,0.0,0.0,0.0,-5.5621,-5.5706,-5.5706,-5.5706,-5.5042,-5.4682,-5.4589,-5.3994,-5.3668,-5.3618,-5.3618,-5.3618,-5.3584,-5.3534,-5.3534,-5.3567,-5.277,0.0,0.0,-5.0623,-4.9814,-4.9077,-4.9077,-4.9046,-4.9001,-4.9001,-4.9001,-4.8798,-4.731,-4.6786,-4.6549,-4.5089,-4.4615,-4.4615,-4.4615,-4.4615,-4.4615,-4.4615,-4.4615,-4.4242,-4.2692,-4.2286,-4.1914,-4.0451,-4.0096,-4.0096,-4.0096,-4.0096,-4.0096,-4.0096,-4.0096,-4.0096,-4.0096,-4.0096,-4.0096,-4.0096,-4.0045,-3.9757,-3.9089,-3.8294,-3.7516,-3.6778,-3.6045,-3.56,-3.56,-3.5532,-3.5177,-3.4438,-3.4358,-3.3964,-3.3237,-3.2544,-3.2192,-3.2192,-3.1529,-3.119,-3.119,-3.119,-3.119,-3.119,-3.119,-3.119,-4.7613,-4.8823,-4.8925,-4.749,-4.6295,-4.4148,-3.9075,0.0,-3.256,-2.9619,-2.7774,-2.6843,-2.7332,-2.8264,-2.9883,-3.2706,-3.4566,-3.7161,0.0,0.0,0.0,0.0,0.0,0.0,0.0,0.0,0.0,0.0,0.0,0.0,-5.4328,-5.4391,-5.4391,-5.4391,-5.4074,-5.3946,-5.3946,-5.3651,-5.3501,-5.3501,-5.3501,-5.3501,-5.3501,-5.3501,-5.3501,-5.3433,-5.2198,0.0,0.0,-4.9932,-4.9255,-4.9001,-4.9001,-4.9001,-4.9001,-4.9001,-4.9001,-4.8798,-4.731,-4.6786,-4.6549,-4.5089,-4.4615,-4.4615,-4.4615,-4.4615,-4.4615,-4.4615,-4.4615,-4.4242,-4.2692,-4.1653,-4.084,-4.0248,-4.0096,-4.0096,-4.0096,-4.0096,-4.0096,-4.0096,-4.0096,-4.0096,-4.0096,-4.0096,-4.0096,-4.0096,-4.0096,-3.9994,-3.9706,-3.9005,-3.8278,-3.7533,-3.6366,-3.56,-3.56,-3.56,-3.5301,-3.4539,-3.4489,-3.4167,-3.344,-3.3119,-3.2949,-3.2949,-3.2242,-3.187,-3.187,-3.141,-3.119,-3.119,-3.119,-3.119,-4.5713,-4.715,-4.7553,-4.6343,-4.5257,-4.3266,0.0,0.0,-3.229,-2.9568,-2.7774,-2.6691,-2.6691,-2.7571,-2.8853,-3.0588,-3.2149,-3.4504,-3.8444,0.0,0.0,0.0,0.0,0.0,0.0,0.0,0.0,0.0,0.0,0.0,-5.3501,-5.3501,-5.3501,-5.3501,-5.3501,-5.3501,-5.3501,-5.3501,-5.3501,-5.3501,-5.3501,-5.3501,-5.3501,-5.3501,-5.3365,-5.3078,-5.1775,0.0,0.0,-4.9526,-4.9001,-4.9001,-4.9001,-4.9001,-4.9001,-4.9001,-4.9001,-4.8798,-4.731,-4.6786,-4.6549,-4.5089,-4.4615,-4.4615,-4.4615,-4.4615,-4.4615,-4.4615,-4.4445,-4.3927,-4.2625,-4.1356,-4.0383,-4.0146,-4.0096,-4.0096,-4.0096,-4.0096,-4.0096,-4.0096,-4.0096,-4.0096,-4.0096,-4.0096,-4.0096,-4.0096,-4.0096,-4.0096,-4.0096,-3.9469,-3.8717,-3.799,-3.6738,-3.5853,-3.5616,-3.56,-3.538,-3.4861,-3.4827,-3.459,-3.4061,-3.3846,-3.3728,-3.3728,-3.3,-3.253,-3.2293,-3.1785,-3.141,-3.119,-3.119,-3.119,-4.3583,-4.497,-4.544,-4.4727,-4.343,-4.1353,0.0,-3.4477,-3.1684,-2.945,-2.7774,-2.6691,-2.6691,-2.7317,-2.8314,-2.9871,-3.1968,-3.4709,-3.8464,0.0,0.0,0.0,0.0,0.0,0.0,0.0,0.0,0.0,0.0,0.0,-5.3501,-5.3501,-5.3501,-5.3501,-5.3501,-5.3501,-5.3501,-5.3501,-5.3501,-5.3501,-5.3501,-5.3501,-5.3501,-5.3501,-5.3078,-5.2266,0.0,0.0,0.0,-4.9306,-4.9001,-4.9001,-4.9001,-4.9001,-4.9001,-4.9001,-4.9001,-4.8798,-4.731,-4.6786,-4.6549,-4.5089,-4.4615,-4.4615,-4.4615,-4.4615,-4.4615,-4.4615,-4.4028,-4.3223,-4.2489,-4.1745,-4.1001,-4.0282,-4.0096,-4.0096,-4.0096,-4.0096,-4.0096,-4.0096,-4.0096,-4.0096,-4.0096,-4.0096,-4.0096,-4.0096,-4.0096,-4.0096,-4.0096,-3.9469,-3.8717,-3.799,-3.7229,-3.6451,-3.5667,-3.56,-3.56,-3.5583,-3.5583,-3.5583,-3.5583,-3.4878,-3.4472,-3.4472,-3.3761,-3.3034,-3.2293,-3.2293,-3.1921,-3.119,-3.119,-3.119,-3.9334,-4.069,-4.1423,-4.0281,-3.9577,-3.8322,-3.5188,-3.2949,-3.0903,-2.8653,-2.7385,-2.6691,-2.6691,-2.6894,-2.8213,-3.1782,-3.2949,0.0,0.0,0.0,0.0,0.0,0.0,0.0,0.0,0.0,0.0,0.0,0.0,0.0,-5.3501,-5.3501,-5.3501,-5.3501,-5.3501,-5.3501,-5.3501,-5.3501,-5.3501,-5.3501,-5.3501,-5.3501,-5.3501,-5.3501,-5.3061,0.0,0.0,0.0,-5.0033,-4.9306,-4.9001,-4.9001,-4.9001,-4.9001,-4.9001,-4.9001,-4.9001,-4.8866,-4.7902,-4.7225,-4.6633,-4.5669,-4.4993,-4.4615,-4.4615,-4.4615,-4.4615,-4.4615,-4.4012,-4.3341,-4.3115,-4.2134,-4.1136,-4.0899,-4.0485,-4.0096,-4.0096,-4.0096,-4.0096,-4.0096,-4.0096,-4.0096,-4.0096,-4.0096,-4.0096,-4.0096,-4.0096,-4.0096,-4.0096,-3.991,-3.9462,-3.8717,-3.799,-3.7026,-3.5701,-3.56,-3.56,-3.56,-3.56,-3.56,-3.56,-3.538,-3.5245,-3.5245,-3.4539,-3.4032,-3.3795,-3.3288,-3.2662,-3.1972,-3.2459,-3.2425,0.0,-3.6926,-3.7727,-3.7153,-3.6551,-3.5538,-3.346,-3.1613,-2.9871,-2.8162,-2.7198,-2.6691,-2.6691,-2.6928,-2.8129,-3.1241,-3.2442,0.0,0.0,0.0,0.0,0.0,0.0,0.0,0.0,0.0,0.0,0.0,0.0,0.0,-5.3501,-5.3501,-5.3501,-5.3501,-5.3501,-5.3501,-5.3501,-5.3501,-5.3501,-5.3501,-5.3501,-5.3501,-5.3501,-5.3196,-5.2621,0.0,0.0,-5.0371,0.0,-4.9187,-4.9001,-4.9001,-4.9001,-4.9001,-4.9001,-4.9001,-4.9001,-4.89,-4.8173,-4.7428,-4.6667,-4.594,-4.5196,-4.4615,-4.4615,-4.4615,-4.4615,-4.4615,-4.4231,-4.3792,-4.3477,-4.2523,-4.1542,-4.1271,-4.0629,-4.0096,-4.0096,-4.0096,-4.0096,-4.0096,-4.0096,-4.0096,-4.0096,-4.0096,-4.0096,-4.0096,-4.0096,-4.0096,-4.0096,-4.0096,-3.9825,-3.9073,-3.8582,-3.7821,-3.6563,-3.5921,-3.56,-3.56,-3.56,-3.56,-3.56,-3.56,-3.56,-3.56,-3.5165,-3.4776,-3.4489,-3.3761,-3.3169,-3.2733,-3.3186,-3.3152,0.0,-3.3575,0.0,0.0,-3.4117,-3.2899,-3.2158,-3.0398,0.0,-2.7891,-2.7182,-2.6742,-2.6911,-2.7401,-2.8179,-2.9365,-3.1227,0.0,0.0,0.0,0.0,0.0,0.0,0.0,0.0,0.0,0.0,0.0,0.0,0.0,-5.3501,-5.3501,-5.3501,-5.3501,-5.3501,-5.3501,-5.3501,-5.3501,-5.3501,-5.3501,-5.3501,-5.3467,-5.3399,-5.2638,-5.1877,0.0,-5.0388,-4.9678,-4.9001,-4.9001,-4.9001,-4.9001,-4.9001,-4.9001,-4.9001,-4.9001,-4.9001,-4.89,-4.8173,-4.7428,-4.6667,-4.5872,-4.5162,-4.4615,-4.4615,-4.4615,-4.4615,-4.4615,-4.4615,-4.4445,-4.369,-4.2895,-4.2117,-4.1441,-4.0663,-4.0096,-4.0096,-4.0096,-4.0096,-4.0096,-4.0096,-4.0096,-4.0096,-4.0096,-4.0096,-4.0096,-4.0096,-4.0096,-4.0096,-4.0096,-3.9842,-3.914,-3.9022,-3.8717,-3.8041,-3.6586,-3.5684,-3.5684,-3.5633,-3.56,-3.56,-3.56,-3.56,-3.56,-3.56,-3.5245,-3.4573,-3.3897,-3.3541,-3.3491,-3.3541,-3.3541,-2.877,0.0,-3.1038,-3.0649,-3.0296,-2.9839,0.0,-2.8449,-2.7875,-2.7114,0.0,-2.7232,-2.8991,-2.8483,-2.9362,-3.4189,-3.4895,-3.5876,0.0,0.0,0.0,0.0,0.0,0.0,0.0,0.0,0.0,0.0,0.0,-5.3501,-5.3501,-5.3501,-5.3501,-5.3501,-5.3501,-5.3501,-5.3501,-5.3501,-5.3501,-5.3501,-5.3501,-5.3179,-5.2587,-5.2384,-5.1589,-5.0338,-5.0168,-4.9678,-4.9001,-4.9001,-4.9001,-4.9001,-4.9001,-4.9001,-4.9001,-4.9001,-4.9001,-4.89,-4.8173,-4.7428,-4.6583,-4.5263,-4.475,-4.4615,-4.4615,-4.4615,-4.4615,-4.4615,-4.4615,-4.4564,-4.4378,-4.3301,-4.2252,-4.2066,-4.106,-4.0096,-4.0096,-4.0096,-4.0096,-4.0096,-4.0096,-4.0096,-4.0096,-4.0096,-4.0096,-4.0096,-4.0096,-4.0096,-4.0096,-4.0096,-4.0028,-3.9859,-3.9351,-3.892,-3.8751,-3.7364,-3.6502,-3.6502,-3.5943,-3.56,-3.56,-3.56,-3.56,-3.56,-3.56,-3.5515,-3.5329,-3.516,-3.4793,-3.4252,-3.4805,-3.4793,-2.659,-2.8652,-3.0581,-3.0533,-3.0262,-2.9907,-2.9465,-2.8298,0.0,0.0,0.0,0.0,0.0,0.0,0.0,0.0,-3.5453,0.0,0.0,0.0,0.0,0.0,0.0,0.0,0.0,0.0,0.0,0.0,0.0,-5.3501,-5.3501,-5.3501,-5.3501,-5.3501,-5.3501,-5.3501,-5.3501,-5.3501,-5.3501,-5.3501,-5.3501,-5.3078,-5.2283,-5.1961,-5.1183,-5.0067,-4.9729,-4.9373,-4.9001,-4.9001,-4.9001,-4.9001,-4.9001,-4.9001,-4.9001,-4.9001,-4.9001,-4.89,-4.8173,-4.7208,-4.6109,-4.4987,-4.4615,-4.4615,-4.4615,-4.4615,-4.4615,-4.4615,-4.4615,-4.4615,-4.4615,-4.369,-4.2726,-4.2371,-4.1424,-4.0493,-4.018,-4.0096,-4.0096,-4.0096,-4.0096,-4.0096,-4.0096,-4.0096,-4.0096,-4.0096,-4.0096,-4.0096,-4.0096,-4.0096,-4.0096,-4.0096,-3.9757,-3.9495,-3.9495,-3.8471,-3.7675,-3.7313,-3.6569,-3.6146,-3.6146,-3.5785,-3.56,-3.56,-3.56,-3.56,-3.56,-3.56,-3.538,-3.5013,-3.5397,-3.538,-2.5828,-2.8687,-3.1413,-3.1582,-3.1309,-3.1004,-3.0886,0.0,0.0,0.0,0.0,0.0,0.0,-3.0345,0.0,0.0,0.0,0.0,0.0,0.0,0.0,0.0,0.0,0.0,0.0,0.0,0.0,0.0,0.0,-5.3501,-5.3501,-5.3501,-5.3501,-5.3501,-5.3501,-5.3501,-5.3501,-5.3501,-5.3501,-5.3501,-5.3382,-5.2909,-5.2114,-5.1386,-5.0642,-4.9898,0.0,0.0,-4.9001,-4.9001,-4.9001,-4.9001,-4.9001,-4.9001,-4.9001,-4.9001,-4.9001,-4.8883,-4.8037,-4.6786,-4.5432,-4.4818,-4.4615,-4.4615,-4.4615,-4.4615,-4.4615,-4.4615,-4.4615,-4.4615,-4.4615,-4.3995,-4.3189,-4.2472,-4.1728,-4.1001,-4.0265,-4.0096,-4.0096,-4.0096,-4.0096,-4.0096,-4.0096,-4.0096,-4.0096,-4.0096,-4.0096,-4.0096,-4.0096,-4.0096,-4.0096,-4.0096,-4.0096,-4.0096,-4.0096,-3.9537,-3.8903,-3.8278,-3.7432,-3.6931,-3.6795,-3.6146,-3.5718,-3.56,-3.56,-3.56,-3.56,-3.56,-3.56,-3.56,-3.56,-3.56,-2.7757,-3.0279,-3.1549,-2.911,-2.9379,-3.0108,-2.9484,0.0,0.0,0.0,0.0,0.0,0.0,-3.3744,0.0,0.0,0.0,0.0,0.0,0.0,0.0,0.0,0.0,0.0,0.0,0.0,0.0,0.0,0.0,-5.3501,-5.3501,-5.3501,-5.3501,-5.3501,-5.3501,-5.3501,-5.3501,-5.3501,-5.3501,-5.3501,-5.2807,-5.2097,-5.132,-5.0608,-4.9864,-4.9171,0.0,-4.9001,-4.9001,-4.9001,-4.9001,-4.9001,-4.9001,-4.9001,-4.9001,-4.9001,-4.9001,-4.8815,-4.7428,-4.5991,-4.4767,-4.4649,-4.4615,-4.4615,-4.4615,-4.4615,-4.4615,-4.4615,-4.4615,-4.4615,-4.4615,-4.3995,-4.3189,-4.2472,-4.1728,-4.1001,-4.0265,-4.0096,-4.0096,-4.0096,-4.0096,-4.0096,-4.0096,-4.0096,-4.0096,-4.0096,-4.0096,-4.0096,-4.0096,-4.0096,-4.0096,-4.0096,-4.0096,-4.0096,-4.0096,-3.9994,-3.9893,-3.9774,-3.8481,-3.7449,-3.6829,-3.6694,-3.6299,-3.5616,-3.56,-3.56,-3.56,-3.56,-3.56,-3.56,-3.56,-3.56,-2.6082,-2.818,-2.9837,-2.9685,-3.1698,-3.3508,-3.2747,-3.1952,0.0,0.0,0.0,0.0,0.0,0.0,0.0,0.0,0.0,0.0,0.0,0.0,0.0,0.0,0.0,0.0,0.0,0.0,0.0,0.0,0.0,0.0,-5.3501,-5.3501,-5.3501,-5.3501,-5.3078,-5.2858,-5.2858,-5.2469,-5.2469,-5.2841,-5.208,-5.1336,-5.0591,-5.0253,-4.9695,-4.9001,0.0,-4.9001,-4.9001,-4.9001,-4.9001,-4.9001,-4.9001,-4.9001,-4.9001,-4.9001,-4.8494,-4.7716,-4.7039,-4.5821,-4.4615,-4.4615,-4.4615,-4.4615,-4.4615,-4.4615,-4.4615,-4.4615,-4.4615,-4.4615,-4.4615,-4.4344,-4.3859,-4.3081,-4.2337,-4.1593,-4.0849,-4.0383,-4.0096,-4.0096,-4.0096,-4.0096,-4.0096,-4.0096,-4.0096,-4.0096,-4.0096,-4.0096,-4.0096,-4.0096,-4.0096,-4.0096,-4.0096,-4.0096,-4.0096,-4.0096,-3.9943,-3.9537,-3.887,-3.8159,-3.7415,-3.7015,-3.6643,-3.6265,-3.5802,-3.56,-3.56,-3.56,-3.56,-3.56,-3.56,-3.56,-2.5168,-2.6793,-2.867,-3.1106,-3.3766,-3.578,-3.5859,-3.4742,0.0,0.0,0.0,0.0,0.0,0.0,0.0,0.0,0.0,0.0,0.0,0.0,0.0,0.0,0.0,0.0,0.0,0.0,0.0,0.0,0.0,0.0,-5.323,-5.323,-5.3145,-5.2976,-5.2367,-5.2046,-5.2046,-5.1319,-5.1319,-5.2029,-5.1302,-5.0659,-5.0084,-4.9915,-4.9526,-4.9001,-4.9001,-4.9001,-4.9001,-4.9001,-4.9001,-4.9001,-4.9001,-4.9001,-4.9001,-4.9001,-4.8071,-4.6786,-4.6786,-4.5821,-4.4615,-4.4615,-4.4615,-4.4615,-4.4615,-4.4615,-4.4615,-4.4615,-4.4615,-4.4615,-4.4615,-4.4615,-4.4412,-4.3578,-4.2844,-4.21,-4.1373,-4.0612,-4.0096,-4.0096,-4.0096,-4.0096,-4.0096,-4.0096,-4.0096,-4.0096,-4.0096,-4.0096,-4.0096,-4.0096,-4.0096,-4.0096,-4.0096,-4.0096,-4.0096,-4.0096,-3.9859,-3.9276,-3.9242,-3.892,-3.8193,-3.7618,-3.7235,-3.7043,-3.6282,-3.5893,-3.5893,-3.5684,-3.56,-3.56,-3.56,-3.56,-2.7723,-2.879,-2.9619,-3.2527,-3.2933,-3.3343,-3.6084,-3.5526,0.0,-3.7144,0.0,0.0,0.0,0.0,0.0,0.0,0.0,0.0,0.0,0.0,0.0,0.0,0.0,0.0,0.0,0.0,0.0,0.0,0.0,0.0,-5.2435,-5.2384,-5.208,-5.1371,-5.1319,-5.1302,-5.1302,-5.0541,-5.0541,-5.1252,-5.0524,-5.0135,-5.0067,-4.939,-4.9052,-4.9001,-4.9001,-4.9001,-4.9001,-4.9001,-4.9001,-4.9001,-4.9001,-4.9001,-4.9001,-4.9001,-4.8071,-4.6786,-4.6786,-4.5821,-4.4615,-4.4615,-4.4615,-4.4615,-4.4615,-4.4615,-4.4615,-4.4615,-4.4615,-4.4615,-4.4615,-4.4615,-4.4412,-4.3578,-4.2844,-4.21,-4.1373,-4.0612,-4.0096,-4.0096,-4.0096,-4.0096,-4.0096,-4.0096,-4.0096,-4.0096,-4.0096,-4.0096,-4.0096,-4.0096,-4.0096,-4.0096,-4.0096,-4.0096,-4.0096,-4.0096,-4.0079,-4.0028,-4.0028,-3.9706,-3.8937,-3.8853,-3.8514,-3.7838,-3.7077,-3.6711,-3.6711,-3.596,-3.56,-3.56,-3.56,-3.56,-2.637,-2.7909,-2.9602,-3.209,-3.3541,0.0,0.0,-3.8447,-3.9732,-4.1068,-4.1313,0.0,0.0,0.0,0.0,0.0,0.0,0.0,0.0,0.0,0.0,0.0,0.0,0.0,0.0,0.0,0.0,0.0,0.0,0.0,-5.164,-5.164,-5.1505,-5.1217,-5.076,-5.0524,-5.0524,-4.9779,-4.956,-4.9847,-4.9543,-4.9424,-4.9407,-4.9137,-4.9001,-4.9001,-4.9001,-4.9001,-4.9001,-4.9001,-4.9001,-4.9001,-4.9001,-4.9001,-4.8951,-4.8494,-4.7665,-4.6718,-4.6278,-4.5449,-4.4615,-4.4615,-4.4615,-4.4615,-4.4615,-4.4615,-4.4615,-4.4615,-4.4615,-4.4615,-4.4615,-4.4615,-4.453,-4.4215,-4.3183,-4.2219,-4.1931,-4.0933,-4.0096,-4.0096,-4.0096,-4.0096,-4.0096,-4.0096,-4.0096,-4.0096,-4.0096,-4.0096,-4.0096,-4.0096,-4.0096,-4.0096,-4.0096,-4.0096,-4.0096,-4.0096,-4.0096,-4.0096,-4.0096,-3.9977,-3.9706,-3.9225,-3.887,-3.8582,-3.7855,-3.7246,-3.6795,-3.6485,-3.6096,-3.56,-3.56,-3.56,-2.6167,-2.7791,-2.9871,-3.209,0.0,0.0,-3.8193,-4.0341,-4.2371,-4.3842,-4.373,0.0,0.0,0.0,0.0,0.0,0.0,0.0,0.0,0.0,0.0,0.0,0.0,0.0,0.0,0.0,0.0,0.0,0.0,0.0,0.0,-5.0862,-5.076,-5.0524,-5.0016,-4.9746,-4.9746,-4.9255,-4.9001,-4.9001,-4.9001,-4.9001,-4.9001,-4.9001,-4.9001,-4.9001,-4.9001,-4.9001,-4.9001,-4.9001,-4.9001,-4.9001,-4.9001,-4.8866,-4.8595,-4.8075,-4.7293,-4.638,-4.5889,-4.5213,-4.4615,-4.4615,-4.4615,-4.4615,-4.4615,-4.4615,-4.4615,-4.4615,-4.4615,-4.4615,-4.4615,-4.4615,-4.4615,-4.4615,-4.3589,-4.2574,-4.2337,-4.1305,-4.0383,-4.0146,-4.0096,-4.0096,-4.0096,-4.0096,-4.0096,-4.0096,-4.0096,-4.0096,-4.0096,-4.0096,-4.0096,-4.0096,-4.0096,-4.0096,-4.0096,-4.0096,-4.0096,-4.0096,-4.0096,-4.0096,-4.0096,-3.9622,-3.9368,-3.9368,-3.8616,-3.799,-3.7506,-3.7032,-3.6502,-3.5977,-3.5718,-3.56,-2.779,-2.8922,-3.0649,0.0,0.0,0.0,-3.9639,-4.0696,-4.21,-4.5111,-4.4519,-4.3426,-4.3409,0.0,0.0,-4.5602,-4.7564,0.0,0.0,0.0,0.0,0.0,0.0,0.0,0.0,0.0,0.0,0.0,0.0,0.0,0.0,-5.0084,-4.9746,-4.9018,-4.9001,-4.9001,-4.9001,-4.9001,-4.9001,-4.9001,-4.9001,-4.9001,-4.9001,-4.9001,-4.9001,-4.9001,-4.9001,-4.9001,-4.9001,-4.9001,-4.8984,-4.8984,-4.8984,-4.8545,-4.7872,-4.7872,-4.6972,-4.5703,-4.5703,-4.5213,-4.4615,-4.4615,-4.4615,-4.4615,-4.4615,-4.4615,-4.4615,-4.4615,-4.4615,-4.4615,-4.4615,-4.4615,-4.4615,-4.4615,-4.3995,-4.3217,-4.2455,-4.1711,-4.0984,-4.0248,-4.0096,-4.0096,-4.0096,-4.0096,-4.0096,-4.0096,-4.0096,-4.0096,-4.0096,-4.0096,-4.0096,-4.0096,-4.0096,-4.0096,-4.0096,-4.0096,-4.0096,-4.0096,-4.0096,-4.0096,-4.0096,-4.0096,-4.0096,-4.0096,-3.9377,-3.9005,-3.8988,-3.754,-3.6812,-3.6778,-3.5994,-3.56,-2.7182,-2.8907,0.0,-3.3609,0.0,0.0,0.0,-4.3436,0.0,0.0,-4.6874,-4.6232,-4.5229,0.0,0.0,-4.643,-4.7462,-4.8494,0.0,0.0,0.0,0.0,0.0,0.0,0.0,0.0,0.0,0.0,0.0,0.0,0.0,-4.9323,-4.9221,-4.9018,-4.9001,-4.9001,-4.9001,-4.9001,-4.9001,-4.9001,-4.9001,-4.9001,-4.9001,-4.9001,-4.9001,-4.9001,-4.9001,-4.9001,-4.8968,-4.8443,-4.7919,-4.7445,-4.7445,-4.731,-4.7056,-4.6549,-4.6092,-4.5635,-4.5094,-4.4801,-4.4615,-4.4615,-4.4615,-4.4615,-4.4615,-4.4615,-4.4615,-4.4615,-4.4615,-4.4615,-4.4615,-4.4615,-4.4615,-4.4615,-4.3995,-4.3217,-4.2455,-4.1711,-4.0984,-4.0248,-4.0096,-4.0096,-4.0096,-4.0096,-4.0096,-4.0096,-4.0096,-4.0096,-4.0096,-4.0096,-4.0096,-4.0096,-4.0096,-4.0096,-4.0096,-4.0096,-4.0096,-4.0096,-4.0096,-4.0096,-4.0096,-4.0096,-4.0096,-4.0096,-3.9893,-3.9537,-3.8988,-3.8548,-3.7828,-3.6795,-3.6575,-3.6146,-2.9245,-3.1123,0.0,-3.6101,-3.843,-4.0916,-4.4045,0.0,0.0,0.0,0.0,-4.7293,-4.6701,-4.6701,0.0,-4.7192,-4.7868,-4.8494,0.0,0.0,0.0,0.0,0.0,0.0,0.0,0.0,0.0,0.0,0.0,0.0,0.0,-4.9001,-4.9001,-4.9001,-4.9001,-4.9001,-4.9001,-4.9001,-4.9001,-4.9001,-4.9001,-4.9001,-4.9001,-4.9001,-4.9001,-4.8984,-4.8697,-4.8578,-4.8528,-4.7784,-4.7208,-4.6786,-4.6786,-4.6616,-4.6312,-4.5872,-4.5517,-4.5196,-4.4767,-4.4615,-4.4615,-4.4615,-4.4615,-4.4615,-4.4615,-4.4615,-4.4615,-4.4615,-4.4615,-4.4615,-4.4615,-4.4615,-4.4615,-4.4615,-4.3995,-4.3217,-4.2455,-4.1711,-4.0984,-4.0248,-4.0096,-4.0096,-4.0096,-4.0096,-4.0096,-4.0096,-4.0096,-4.0096,-4.0096,-4.0096,-4.0096,-4.0096,-4.0096,-4.0096,-4.0096,-4.0096,-4.0096,-4.0096,-4.0096,-4.0096,-4.0096,-4.0096,-4.0096,-4.0096,-4.0096,-3.9893,-3.9453,-3.914,-3.8531,-3.7675,-3.7083,-3.6535,-3.256,0.0,0.0,-3.9351,-4.0417,0.0,-4.5855,-4.7428,-4.8176,-4.8866,0.0,-4.7208,-4.7872,-4.7462,-4.7225,-4.7872,-4.8578,-4.9001,0.0,0.0,0.0,0.0,0.0,0.0,0.0,0.0,0.0,0.0,0.0,0.0,-4.9001,-4.9001,-4.9001,-4.9001,-4.9001,-4.9001,-4.9001,-4.9001,-4.9001,-4.9001,-4.9001,-4.8968,-4.89,-4.8968,-4.8968,-4.8866,-4.8139,-4.7753,-4.7635,-4.6972,-4.665,-4.6583,-4.6583,-4.6194,-4.5602,-4.5602,-4.5179,-4.4615,-4.4615,-4.4615,-4.4615,-4.4615,-4.4615,-4.4615,-4.4615,-4.4615,-4.4615,-4.4615,-4.4615,-4.4615,-4.4615,-4.4615,-4.4581,-4.4513,-4.3927,-4.32,-4.2371,-4.1677,-4.0984,-4.0248,-4.0096,-4.0096,-4.0096,-4.0096,-4.0096,-4.0096,-4.0096,-4.0096,-4.0096,-4.0096,-4.0096,-4.0096,-4.0096,-4.0096,-4.0096,-4.0096,-4.0096,-4.0096,-4.0096,-4.0096,-4.0096,-4.0096,-4.0096,-4.0096,-4.0096,-4.0096,-4.0096,-3.9436,-3.9056,-3.8954,-3.7574,-3.6863,-3.0683,-3.3148,0.0,0.0,-4.2753,-4.5602,-4.6566,-4.7817,-4.8815,-4.8968,-4.8748,-4.8578,-4.8731,0.0,0.0,0.0,0.0,0.0,0.0,0.0,0.0,0.0,0.0,0.0,0.0,0.0,0.0,0.0,0.0,0.0,-4.9001,-4.9001,-4.9001,-4.9001,-4.9001,-4.9001,-4.9001,-4.9001,-4.9001,-4.9001,-4.9001,-4.8714,-4.8173,-4.8748,-4.8697,-4.8105,-4.7361,-4.6718,-4.6177,-4.6007,-4.5585,-4.5089,-4.5089,-4.4987,-4.4852,-4.4852,-4.475,-4.4615,-4.4615,-4.4615,-4.4615,-4.4615,-4.4615,-4.4615,-4.4615,-4.4615,-4.4615,-4.4615,-4.4615,-4.4615,-4.4615,-4.4615,-4.4445,-4.3809,-4.3538,-4.3047,-4.1728,-4.1322,-4.0984,-4.0248,-4.0096,-4.0096,-4.0096,-4.0096,-4.0096,-4.0096,-4.0096,-4.0096,-4.0096,-4.0096,-4.0096,-4.0096,-4.0096,-4.0096,-4.0096,-4.0096,-4.0096,-4.0096,-4.0096,-4.0096,-4.0096,-4.0096,-4.0096,-4.0096,-4.0096,-4.0096,-4.0096,-3.9943,-3.9571,-3.8971,-3.8075,-3.7347,-3.163,0.0,0.0,-4.0307,0.0,0.0,-4.6718,-4.7665,-4.8578,0.0,0.0,0.0,0.0,0.0,0.0,0.0,0.0,0.0,0.0,0.0,0.0,0.0,0.0,0.0,0.0,0.0,0.0,0.0,0.0,-4.9001,-4.9001,-4.9001,-4.9001,-4.9001,-4.8663,-4.8477,-4.8477,-4.8122,-4.7953,-4.7953,-4.7953,-4.775,-4.7394,-4.7767,-4.7733,-4.7344,-4.6583,-4.6058,-4.5669,-4.5314,-4.4942,-4.4615,-4.4615,-4.4615,-4.4615,-4.4615,-4.4615,-4.4615,-4.4615,-4.4615,-4.4615,-4.4615,-4.4615,-4.4615,-4.4615,-4.4615,-4.4615,-4.4615,-4.4615,-4.4615,-4.4615,-4.4299,-4.3826,-4.3064,-4.2878,-4.2574,-4.1441,-4.0916,-4.0544,-4.018,-4.0096,-4.0096,-4.0096,-4.0096,-4.0096,-4.0096,-4.0096,-4.0096,-4.0096,-4.0096,-4.0096,-4.0096,-4.0096,-4.0096,-4.0096,-4.0096,-4.0096,-4.0096,-4.0096,-4.0096,-4.0096,-4.0096,-4.0096,-4.0096,-4.0096,-4.0096,-4.0096,-4.0096,-3.991,-3.952,-3.8768,-3.8024,-3.2256,0.0,-3.7726,-4.1525,-4.4012,0.0,0.0,0.0,0.0,0.0,0.0,0.0,0.0,0.0,0.0,0.0,0.0,0.0,0.0,0.0,0.0,0.0,0.0,0.0,0.0,0.0,0.0,0.0,0.0,-4.8951,-4.8832,-4.8815,-4.8748,-4.8629,-4.8037,-4.7733,-4.7733,-4.7107,-4.6786,-4.6786,-4.6667,-4.6599,-4.6599,-4.6464,-4.6481,-4.6566,-4.5838,-4.5517,-4.5466,-4.4869,-4.4615,-4.4615,-4.4615,-4.4615,-4.4615,-4.4615,-4.4615,-4.4615,-4.4615,-4.4615,-4.4615,-4.4615,-4.4615,-4.4615,-4.4615,-4.4615,-4.4615,-4.4615,-4.4615,-4.4615,-4.4615,-4.4096,-4.3403,-4.2506,-4.2286,-4.2049,-4.1204,-4.0536,-4.0096,-4.0096,-4.0096,-4.0096,-4.0096,-4.0096,-4.0096,-4.0096,-4.0096,-4.0096,-4.0096,-4.0096,-4.0096,-4.0096,-4.0096,-4.0096,-4.0096,-4.0096,-4.0096,-4.0096,-4.0096,-4.0096,-4.0096,-4.0096,-4.0096,-4.0096,-4.0096,-4.0096,-4.0096,-4.0096,-4.0096,-4.0079,-3.9326,-3.8667,0.0,0.0,-3.7845,0.0,0.0,0.0,0.0,0.0,0.0,0.0,0.0,0.0,0.0,0.0,0.0,0.0,0.0,0.0,0.0,0.0,0.0,0.0,0.0,0.0,0.0,0.0,0.0,0.0,-4.9001,-4.8731,-4.8075,-4.8041,-4.7767,-4.7107,-4.6989,-4.6938,-4.6938,-4.6836,-4.6786,-4.6786,-4.616,-4.5855,-4.5838,-4.5179,-4.5229,-4.5805,-4.506,-4.475,-4.475,-4.4649,-4.4615,-4.4615,-4.4615,-4.4615,-4.4615,-4.4615,-4.4615,-4.4615,-4.4615,-4.4615,-4.4615,-4.4615,-4.4615,-4.4615,-4.4615,-4.4615,-4.4615,-4.4615,-4.4615,-4.4615,-4.4615,-4.453,-4.409,-4.2625,-4.2286,-4.1914,-4.0553,-4.018,-4.0096,-4.0096,-4.0096,-4.0096,-4.0096,-4.0096,-4.0096,-4.0096,-4.0096,-4.0096,-4.0096,-4.0096,-4.0096,-4.0096,-4.0096,-4.0096,-4.0096,-4.0096,-4.0096,-4.0096,-4.0096,-4.0096,-4.0096,-4.0096,-4.0096,-4.0096,-4.0096,-4.0096,-4.0096,-4.0096,-4.0096,-4.0079,-3.9326,-3.8937,-2.9835,0.0,0.0,0.0,0.0,0.0,0.0,0.0,0.0,0.0,0.0,0.0,0.0,0.0,0.0,0.0,0.0,0.0,0.0,0.0,0.0,0.0,0.0,0.0,0.0,0.0,0.0,0.0,-4.8392,-4.8071,-4.7327,-4.7293,-4.7141,-4.6802,-4.6397,-4.6177,-4.6177,-4.5754,-4.5579,-4.5579,-4.5229,-4.5077,-4.506,-4.475,-4.4784,-4.506,-4.475,-4.4615,-4.4615,-4.4615,-4.4615,-4.4615,-4.4615,-4.4615,-4.4615,-4.4615,-4.4615,-4.4615,-4.4615,-4.4615,-4.4615,-4.4615,-4.4615,-4.4615,-4.4615,-4.4615,-4.4615,-4.4615,-4.4615,-4.4615,-4.4615,-4.4265,-4.3656,-4.2557,-4.1982,-4.139,-4.0333,-4.0096,-4.0096,-4.0096,-4.0096,-4.0096,-4.0096,-4.0096,-4.0096,-4.0096,-4.0096,-4.0096,-4.0096,-4.0096,-4.0096,-4.0096,-4.0096,-4.0096,-4.0096,-4.0096,-4.0096,-4.0096,-4.0096,-4.0096,-4.0096,-4.0096,-4.0096,-4.0096,-4.0096,-4.0096,-4.0096,-4.0096,-4.0096,-4.0096,-3.9774,-3.9377,0.0,0.0,0.0,0.0,0.0,0.0,0.0,0.0,0.0,0.0,0.0,0.0,0.0,0.0,0.0,0.0,0.0,0.0,0.0,0.0,0.0,0.0,0.0,0.0,0.0,0.0,0.0,0.0,-4.7631,-4.731,-4.6549,-4.6515,-4.643,-4.6244,-4.5703,-4.5415,-4.5415,-4.4886,-4.4615,-4.4615,-4.4615,-4.4615,-4.4615,-4.4615,-4.4615,-4.4615,-4.4615,-4.4615,-4.4615,-4.4615,-4.4615,-4.4615,-4.4615,-4.4615,-4.4615,-4.4615,-4.4615,-4.4615,-4.4615,-4.4615,-4.4615,-4.4615,-4.4615,-4.4615,-4.4615,-4.4615,-4.4615,-4.4615,-4.4615,-4.4615,-4.4615,-4.4147,-4.3521,-4.276,-4.2016,-4.1221,-4.0299,-4.0096,-4.0096,-4.0096,-4.0096,-4.0096,-4.0096,-4.0096,-4.0096,-4.0096,-4.0096,-4.0096,-4.0096,-4.0096,-4.0096,-4.0096,-4.0096,-4.0096,-4.0096,-4.0096,-4.0096,-4.0096,-4.0096,-4.0096,-4.0096,-4.0096,-4.0096,-4.0096,-3.9901,-3.9901,-4.0096,-3.9901,-3.9901,-4.0096,-4.0096,-3.9808,0.0,0.0,0.0,0.0,0.0,0.0,0.0,0.0,0.0,0.0,0.0,0.0,0.0,0.0,0.0,0.0,0.0,0.0,0.0,0.0,0.0,0.0,0.0,0.0,0.0,0.0,0.0,0.0,-4.6853,-4.6532,-4.5805,-4.5771,-4.5432,-4.475,-4.4682,-4.4666,-4.4666,-4.4632,-4.4615,-4.4615,-4.4615,-4.4615,-4.4615,-4.4615,-4.4615,-4.4615,-4.4615,-4.4615,-4.4615,-4.4615,-4.4615,-4.4615,-4.4615,-4.4615,-4.4615,-4.4615,-4.4615,-4.4615,-4.4615,-4.4615,-4.4615,-4.4615,-4.4615,-4.4615,-4.4615,-4.4615,-4.4615,-4.4615,-4.4615,-4.4615,-4.4615,-4.4581,-4.4333,-4.3538,-4.2777,-4.1847,-4.0417,-4.0096,-4.0096,-4.0096,-4.0096,-4.0096,-4.0096,-4.0096,-4.0096,-4.0096,-4.0096,-4.0096,-4.0096,-4.0096,-4.0096,-4.0096,-4.0096,-4.0096,-4.0096,-4.0096,-4.0096,-4.0096,-4.0096,-4.0096,-4.0096,-4.0096,-4.0096,-4.0096,-3.9342,-3.9342,-4.0096,-3.9342,-3.9342,-4.0096,-4.0096,-4.0079,0.0,0.0,0.0,0.0,0.0,0.0,0.0,0.0,0.0,0.0,0.0,0.0,0.0,0.0,0.0,0.0,0.0,0.0,0.0,0.0,0.0,0.0,0.0,0.0,0.0,0.0,0.0,0.0,0.0,-4.5771,-4.501,-4.4976,-4.4886,-4.4615,-4.4615,-4.4615,-4.4615,-4.4615,-4.4615,-4.4615,-4.4615,-4.4615,-4.4615,-4.4615,-4.4615,-4.4615,-4.4615,-4.4615,-4.4615,-4.4615,-4.4615,-4.4615,-4.4615,-4.4615,-4.4615,-4.4615,-4.4615,-4.4615,-4.4615,-4.4615,-4.4615,-4.4615,-4.4615,-4.4615,-4.4615,-4.4615,-4.4615,-4.4615,-4.4615,-4.4615,-4.4615,-4.4615,-4.4293,-4.2997,-4.2134,-4.1322,-4.0316,-4.0096,-4.0096,-4.0096,-4.0096,-4.0096,-4.0096,-4.0096,-4.0096,-4.0096,-4.0096,-4.0096,-4.0096,-4.0096,-4.0096,-4.0096,-4.0096,-4.0096,-4.0096,-4.0096,-4.0096,-4.0096,-3.961,-3.9342,-3.9342,-3.8887,-3.8624,-3.8624,-3.7831,-3.8044,-3.9342,-3.8569,-3.8596,-3.9342,-3.9342,-3.9342,-2.4898,0.0,0.0,0.0,0.0,0.0,0.0,0.0,0.0,0.0,0.0,0.0,0.0,0.0,0.0,0.0,0.0,0.0,0.0,0.0,0.0,0.0,0.0,0.0,0.0,0.0,0.0,0.0,0.0,0.0,-4.4632,-4.4615,-4.4615,-4.4615,-4.4615,-4.4615,-4.4615,-4.4615,-4.4615,-4.4615,-4.4615,-4.4615,-4.4615,-4.4615,-4.4615,-4.4615,-4.4615,-4.4615,-4.4615,-4.4615,-4.4615,-4.4615,-4.4615,-4.4615,-4.4615,-4.4615,-4.4615,-4.4615,-4.4615,-4.4615,-4.4615,-4.4615,-4.4615,-4.4615,-4.4615,-4.4615,-4.4615,-4.4615,-4.4615,-4.4615,-4.4615,-4.4615,-4.4276,-4.298,-4.2117,-4.1373,-4.0612,-4.0282,-4.0096,-4.0096,-4.0096,-4.0096,-4.0096,-4.0096,-4.0096,-4.0096,-4.0096,-4.0096,-4.0096,-4.0096,-4.0096,-4.0096,-4.0096,-4.0096,-4.0096,-4.0096,-4.0096,-4.0096,-3.9342,-3.8908,-3.8908,-3.8189,-3.7793,-3.7793,-3.6994,-3.7098,-3.8129,-3.7645,-3.779,-3.8525,-3.8525,-3.8398,0.0,0.0,0.0,0.0,0.0,0.0,0.0,0.0,0.0,0.0,0.0,0.0,0.0,0.0,0.0,0.0,0.0,0.0,0.0,0.0,0.0,0.0,0.0,0.0,0.0,0.0,0.0,0.0,-4.4615,-4.4615,-4.4615,-4.4615,-4.4615,-4.4615,-4.4615,-4.4615,-4.4615,-4.4615,-4.4615,-4.4615,-4.4615,-4.4615,-4.4615,-4.4615,-4.4615,-4.4615,-4.4615,-4.4615,-4.4615,-4.4615,-4.4615,-4.4615,-4.4615,-4.4615,-4.4615,-4.4615,-4.4615,-4.4615,-4.4615,-4.4615,-4.4615,-4.4615,-4.4615,-4.4615,-4.4615,-4.4615,-4.4615,-4.4615,-4.4615,-4.4615,-4.4615,-4.4615,-4.4384,-4.3572,-4.2828,-4.2083,-4.1339,-4.0595,-4.0096,-4.0096,-4.0096,-4.0096,-4.0096,-4.0096,-4.0096,-4.0096,-4.0096,-4.0096,-4.0096,-4.0096,-4.0096,-4.0096,-4.0096,-4.0096,-4.007,-4.007,-4.007,-4.007,-3.9289,-3.8854,-3.8881,-3.8149,-3.7735,-3.7735,-3.698,-3.6584,-3.6584,-3.6584,-3.698,-3.7748,-3.7748,-3.7338,-2.3291,0.0,0.0,0.0,0.0,0.0,0.0,0.0,0.0,0.0,0.0,0.0,0.0,0.0,0.0,0.0,0.0,0.0,0.0,0.0,0.0,0.0,0.0,0.0,0.0,0.0,0.0,0.0,-4.4615,-4.4615,-4.4615,-4.4615,-4.4615,-4.4615,-4.4615,-4.4615,-4.4615,-4.4615,-4.4615,-4.4615,-4.4615,-4.4615,-4.4615,-4.4615,-4.4615,-4.4615,-4.4615,-4.4615,-4.4615,-4.4615,-4.4615,-4.4615,-4.4615,-4.4615,-4.4615,-4.4615,-4.4615,-4.4615,-4.4615,-4.4615,-4.4615,-4.4615,-4.4615,-4.4615,-4.4615,-4.4615,-4.4615,-4.4615,-4.4615,-4.4615,-4.4615,-4.4615,-4.4276,-4.2912,-4.2439,-4.1948,-4.0688,-4.0248,-4.0096,-4.0096,-4.0096,-4.0096,-4.0096,-4.0096,-4.0096,-4.0096,-4.0096,-4.0096,-4.0096,-4.0096,-4.0096,-4.0096,-4.0096,-3.9859,-3.9289,-3.9236,-3.9236,-3.9236,-3.7987,-3.7512,-3.8092,-3.6829,-3.6148,-3.6148,-3.5926,-3.5814,-3.5814,-3.5814,-3.6196,-3.6934,-3.6934,-3.6813,0.0,0.0,0.0,0.0,0.0,0.0,0.0,-3.1106,0.0,0.0,0.0,0.0,0.0,0.0,0.0,0.0,0.0,0.0,0.0,0.0,0.0,0.0,0.0,0.0,0.0,-4.4615,-4.4615,-4.4615,-4.4615,-4.4615,-4.4615,-4.4265,-4.4096,-4.4096,-4.4096,-4.3944,-4.365,-4.4293,-4.4418,-4.4096,-4.4445,-4.4615,-4.4615,-4.4615,-4.4615,-4.4615,-4.4615,-4.4615,-4.4615,-4.4615,-4.4615,-4.4615,-4.4615,-4.4615,-4.4615,-4.4615,-4.4615,-4.4615,-4.4615,-4.4615,-4.4615,-4.4615,-4.4615,-4.4615,-4.4615,-4.4615,-4.4615,-4.4615,-4.4615,-4.4615,-4.4615,-4.4333,-4.3859,-4.2963,-4.2286,-4.161,-4.073,-4.0333,-4.0096,-4.0096,-4.0096,-4.0096,-4.0096,-4.0096,-4.0096,-4.0096,-4.0096,-4.0096,-4.0096,-4.0096,-4.0096,-4.0096,-4.0096,-3.9782,-3.8962,-3.8908,-3.8772,-3.8469,-3.7277,-3.6813,-3.7263,-3.6133,-3.5504,-3.5504,-3.5504,-3.5504,-3.5504,-3.5504,-3.5733,-3.6134,-3.6134,-3.6134,0.0,0.0,0.0,0.0,0.0,0.0,-3.1478,-3.1157,-3.092,0.0,0.0,0.0,0.0,0.0,0.0,0.0,0.0,0.0,0.0,0.0,0.0,0.0,0.0,0.0,-4.4344,-4.4344,-4.4344,-4.4344,-4.4344,-4.4344,-4.4344,-4.3673,-4.3274,-4.3274,-4.3274,-4.2963,-4.2303,-4.3667,-4.3978,-4.3274,-4.3995,-4.4395,-4.4479,-4.4479,-4.453,-4.4615,-4.4615,-4.4615,-4.4615,-4.4615,-4.4615,-4.4615,-4.4615,-4.4615,-4.4615,-4.4615,-4.4615,-4.4615,-4.4615,-4.4615,-4.4615,-4.4615,-4.4615,-4.4615,-4.4615,-4.4615,-4.4615,-4.4615,-4.4615,-4.4581,-4.4496,-4.3872,-4.3232,-4.3063,-4.2044,-4.104,-4.0955,-4.0493,-4.0096,-4.0096,-4.0096,-4.0096,-4.0096,-4.0096,-4.0096,-4.0096,-4.002,-3.9995,-4.007,-4.002,-3.9995,-4.0096,-4.0096,-3.9756,-3.8854,-3.8772,-3.8469,-3.7719,-3.6919,-3.6523,-3.6615,-3.5894,-3.5504,-3.5504,-3.5504,-3.5504,-3.5504,-3.5504,-3.5504,-3.5504,-3.5504,-3.5504,-2.9516,0.0,0.0,0.0,0.0,0.0,-2.6826,-2.7791,-2.9433,0.0,0.0,0.0,0.0,0.0,0.0,0.0,0.0,0.0,0.0,0.0,0.0,0.0,0.0,0.0,-4.277,-4.277,-4.277,-4.277,-4.277,-4.277,-4.277,-4.2591,-4.2506,-4.2506,-4.2506,-4.2439,-4.2286,-4.2591,-4.2658,-4.2523,-4.2658,-4.3047,-4.3639,-4.3639,-4.3995,-4.4615,-4.4615,-4.4615,-4.4615,-4.4615,-4.4615,-4.4615,-4.4615,-4.4615,-4.4615,-4.4615,-4.4615,-4.4615,-4.4615,-4.4615,-4.4615,-4.4615,-4.4615,-4.4615,-4.4615,-4.4615,-4.4615,-4.4615,-4.4615,-4.4462,-4.3809,-4.3071,-4.2223,-4.1034,-4.0519,-4.0127,-3.9487,-3.9737,-4.0096,-4.0096,-4.0096,-4.0096,-4.0096,-4.0096,-4.0096,-4.0096,-3.9542,-3.9368,-4.002,-3.9516,-3.9368,-4.002,-4.0096,-3.9532,-3.8149,-3.8007,-3.7674,-3.6873,-3.6117,-3.5975,-3.6584,-3.5894,-3.5504,-3.5504,-3.5504,-3.5504,-3.5504,-3.5504,-3.5504,-3.5504,-3.5504,-3.5504,0.0,0.0,0.0,-3.0866,0.0,0.0,0.0,-2.84,-2.8924,-3.0801,0.0,0.0,0.0,0.0,0.0,0.0,0.0,0.0,0.0,0.0,0.0,0.0,0.0,0.0,-4.2286,-4.2286,-4.2286,-4.2286,-4.2286,-4.2286,-4.2286,-4.1948,-4.1745,-4.1745,-4.1745,-4.1559,-4.1213,-4.1914,-4.2117,-4.1762,-4.2117,-4.2489,-4.2861,-4.2861,-4.3267,-4.3995,-4.3995,-4.4215,-4.4615,-4.4615,-4.4615,-4.4615,-4.4615,-4.4615,-4.4615,-4.4615,-4.431,-4.4006,-4.4457,-4.4327,-4.4035,-4.4457,-4.4615,-4.4615,-4.4615,-4.4298,-4.4035,-4.4485,-4.4012,-4.3382,-4.3394,-4.2317,-4.1019,-4.0293,-3.9526,-3.8954,-3.8909,-3.9236,-3.961,-4.002,-4.0096,-4.0096,-4.0096,-4.0096,-4.0096,-4.0096,-3.9411,-3.9059,-3.9463,-3.8843,-3.8652,-3.9411,-3.9489,-3.9049,-3.7892,-3.7793,-3.7294,-3.6117,-3.5686,-3.5668,-3.6023,-3.5701,-3.5504,-3.5504,-3.5504,-3.5504,-3.5504,-3.5504,-3.5504,-3.5504,-3.5504,-3.5504,0.0,0.0,0.0,0.0,0.0,-3.1533,0.0,0.0,0.0,-3.1833,0.0,0.0,0.0,0.0,0.0,0.0,0.0,0.0,0.0,0.0,0.0,0.0,0.0,0.0,-4.1441,-4.1305,-4.1407,-4.183,-4.1474,-4.1424,-4.1847,-4.1305,-4.0984,-4.0984,-4.0984,-4.0696,-4.0113,-4.1297,-4.1576,-4.1001,-4.1576,-4.1948,-4.2083,-4.2083,-4.2489,-4.3172,-4.3172,-4.354,-4.4136,-4.4294,-4.4378,-4.4355,-4.4542,-4.4615,-4.457,-4.4412,-4.3902,-4.3366,-4.3902,-4.3739,-4.3413,-4.4121,-4.444,-4.4508,-4.4056,-4.3539,-4.3178,-4.3605,-4.2788,-4.188,-4.2412,-4.1071,-3.9597,-3.9467,-3.8466,-3.7732,-3.8342,-3.8564,-3.8924,-3.9731,-3.9876,-3.9927,-4.007,-4.0096,-4.0045,-3.9901,-3.9209,-3.869,-3.869,-3.8019,-3.7863,-3.8608,-3.869,-3.8386,-3.7632,-3.7573,-3.6965,-3.5587,-3.5504,-3.5504,-3.5504,-3.5504,-3.5504,-3.5504,-3.5504,-3.5504,-3.5504,-3.5504,-3.5504,-3.5504,-3.5504,-3.5504,0.0,0.0,0.0,0.0,-3.465,0.0,0.0,0.0,-3.1159,-2.8889,0.0,0.0,0.0,0.0,0.0,0.0,0.0,0.0,0.0,0.0,0.0,0.0,0.0,0.0,0.0,-3.7804,-3.8251,-4.0197,-3.8539,-3.8285,-4.0248,-4.0282,-4.0231,-4.0231,-4.0231,-4.018,-4.0096,-4.0282,-4.0316,-4.0231,-4.0316,-4.0679,-4.1322,-4.1322,-4.1728,-4.2422,-4.2422,-4.2428,-4.2526,-4.3244,-4.3518,-4.3532,-4.4298,-4.4615,-4.4514,-4.3726,-4.3383,-4.3199,-4.252,-4.2738,-4.3306,-4.3413,-4.3977,-4.4192,-4.205,-4.1868,-4.214,-4.0861,-4.0379,-4.011,-3.9556,-3.8688,-3.781,-3.7154,-3.6875,-3.6752,-3.6828,-3.7411,-3.8149,-3.8881,-3.9032,-3.9262,-3.9978,-4.0096,-3.9876,-3.9139,-3.8386,-3.7921,-3.7921,-3.7233,-3.7054,-3.7835,-3.7921,-3.7587,-3.6783,-3.6737,-3.6368,-3.5554,-3.5504,-3.5504,-3.5504,-3.5504,-3.5504,-3.5504,-3.5504,-3.5504,-3.5504,-3.5504,-3.5504,-3.5504,-3.5504,-3.5504,0.0,0.0,0.0,0.0,0.0,0.0,-3.092,0.0,-2.9975,0.0,0.0,0.0,0.0,0.0,0.0,0.0,0.0,0.0,0.0,0.0,0.0,0.0,0.0,0.0,0.0,0.0,0.0,0.0,-3.7278,-3.7254,-3.9343,-3.9876,-4.0096,-4.0096,-4.0096,-4.0096,-4.0096,-4.0096,-4.0096,-4.0096,-4.0096,-4.0002,-3.9877,-4.0347,-4.0725,-4.1049,-4.1485,-4.1647,-4.1651,-4.1965,-4.2063,-4.1997,-4.2378,-4.3046,-4.3814,-4.3426,-4.2645,-4.1804,-4.1965,-4.1901,-4.1853,-4.2379,-4.28,-4.2904,-4.1898,-4.1198,-4.0768,-4.0635,-3.9625,-3.8651,-3.885,-3.7989,-3.6987,-3.6677,-3.6275,-3.6086,-3.6492,-3.6889,-3.7322,-3.8104,-3.8246,-3.8374,-3.8723,-3.9129,-3.9139,-3.8386,-3.7616,-3.7084,-3.7084,-3.643,-3.6259,-3.701,-3.7084,-3.6964,-3.663,-3.6615,-3.6275,-3.5569,-3.5504,-3.5504,-3.5504,-3.5504,-3.5504,-3.5504,-3.5504,-3.5504,-3.5504,-3.5504,-3.5504,-3.5504,-3.5504,-3.5504,-3.7519,0.0,0.0,0.0,0.0,0.0,0.0,0.0,0.0,0.0,0.0,0.0,0.0,0.0,0.0,0.0,0.0,0.0,0.0,0.0,0.0,0.0,0.0,0.0,0.0,0.0,0.0,0.0,0.0,-3.5897,-3.8564,-3.9236,-3.9699,-4.0096,-3.9901,-3.9782,-3.9782,-3.9782,-3.9662,-3.948,-3.9901,-3.9584,-3.8635,-3.9411,-3.9764,-3.9787,-4.0103,-4.0354,-4.0533,-4.0561,-4.0596,-4.0658,-4.0926,-4.1672,-4.2583,-4.2583,-4.1804,-4.0758,-4.1162,-4.1028,-4.0779,-4.1224,-4.1645,-4.1821,-4.0987,-4.0232,-3.972,-3.9942,-3.8697,-3.7431,-3.8074,-3.7297,-3.6306,-3.6306,-3.5894,-3.5636,-3.6196,-3.6306,-3.6538,-3.7308,-3.7485,-3.7485,-3.7485,-3.8104,-3.833,-3.7587,-3.6964,-3.6523,-3.6337,-3.5831,-3.5701,-3.6244,-3.6306,-3.6306,-3.6306,-3.6306,-3.6054,-3.5537,-3.5504,-3.5504,-3.5504,-3.5504,-3.5504,-3.5504,-3.5504,-3.5504,-3.5504,-3.5504,-3.5504,-3.5504,-3.5504,-3.5504,0.0,0.0,0.0,-3.3537,0.0,0.0,0.0,0.0,-3.1158,0.0,0.0,0.0,0.0,0.0,0.0,0.0,0.0,0.0,0.0,0.0,0.0,0.0,0.0,0.0,0.0,0.0,0.0,0.0,-3.2675,0.0,-3.7819,-3.8051,-3.8685,-4.0054,-3.9342,-3.8935,-3.8935,-3.8935,-3.858,-3.7892,-3.9401,-3.9305,-3.7863,-3.8608,-3.8951,-3.8887,-3.821,-3.8283,-3.8894,-3.8937,-3.9295,-3.9833,-4.0658,-4.0926,-4.0777,-4.0777,-4.0758,-4.0588,-3.9773,-4.0025,-4.0616,-3.9982,-4.0795,-4.1453,-3.8458,-3.8571,-3.9411,-3.7941,-3.7038,-3.6543,-3.6577,-3.6064,-3.5537,-3.5537,-3.5537,-3.5504,-3.5537,-3.5537,-3.575,-3.6492,-3.6646,-3.6646,-3.6646,-3.7293,-3.7573,-3.6768,-3.6615,-3.6337,-3.5651,-3.5504,-3.5504,-3.5537,-3.5537,-3.5537,-3.5537,-3.5537,-3.5537,-3.5504,-3.5504,-3.5504,-3.5504,-3.5504,-3.5504,-3.5504,-3.5504,-3.5504,-3.5504,-3.5504,-3.5504,-3.5504,-3.5504,-3.5504,0.0,0.0,-3.8535,-3.533,0.0,0.0,0.0,0.0,0.0,0.0,0.0,0.0,0.0,0.0,0.0,0.0,0.0,0.0,0.0,0.0,0.0,0.0,0.0,0.0,0.0,0.0,0.0,0.0,-3.1064,0.0,0.0,-3.7203,-3.8228,-3.8685,-3.9333,-3.9437,-3.8908,-3.8908,-3.8525,-3.7822,-3.8318,-3.8019,-3.7024,-3.7819,-3.786,-3.7379,-3.769,-3.7628,-3.7354,-3.7369,-3.7698,-3.8216,-3.8488,-3.9123,-3.99,-4.05,-4.0328,-3.9793,-3.9517,-3.9574,-3.9799,-3.9571,-3.9843,-4.0074,-3.9033,-3.8767,-3.8735,-3.8227,-3.7599,-3.7,-3.6596,-3.6327,-3.6043,-3.5609,-3.5504,-3.5504,-3.5504,-3.5504,-3.5554,-3.5799,-3.5863,-3.5863,-3.5863,-3.6101,-3.6196,-3.5926,-3.5863,-3.5782,-3.5537,-3.5504,-3.5504,-3.5504,-3.5504,-3.5504,-3.5504,-3.5504,-3.5504,-3.5504,-3.5504,-3.5504,-3.5504,-3.5504,-3.5504,-3.5504,-3.5504,-3.5504,-3.5504,-3.5504,-3.5504,-3.5504,-3.5504,-3.5504,-4.0357,-4.0013,0.0,-3.6258,-3.5278,0.0,-3.1007,0.0,0.0,0.0,0.0,0.0,0.0,0.0,0.0,0.0,0.0,0.0,0.0,0.0,0.0,0.0,0.0,0.0,0.0,0.0,-2.7535,-3.009,-2.9546,0.0,0.0,-3.5792,-3.7075,-3.7562,-3.8411,-3.8591,-3.8072,-3.8072,-3.7716,-3.6981,-3.7531,-3.7249,-3.6228,-3.701,-3.71,-3.66,-3.6874,-3.6844,-3.66,-3.6552,-3.6897,-3.7434,-3.7659,-3.8437,-3.9481,-4.0025,-3.99,-3.9388,-3.9388,-3.9388,-3.9379,-3.9125,-3.923,-3.9379,-3.9125,-3.8916,-3.8751,-3.8751,-3.8272,-3.7659,-3.727,-3.6836,-3.6432,-3.6237,-3.6013,-3.5908,-3.6133,-3.6193,-3.6193,-3.6193,-3.6193,-3.6193,-3.6193,-3.6193,-3.6028,-3.5579,-3.5504,-3.5504,-3.5504,-3.5504,-3.5504,-3.5504,-3.5504,-3.5504,-3.5504,-3.5504,-3.5504,-3.5504,-3.5504,-3.5504,-3.5504,-3.5504,-3.5504,-3.5504,-3.5504,-3.5504,-3.5504,-3.5504,-3.5504,-3.5504,-3.5504,-3.5504]},{"header":{"parameterUnit":"m.s-1","parameterCategory":1,"la1":30.6,"la2":29.2853,"lo1":-89.7004,"lo2":-87.6739,"dy":0.0162,"dx":0.0183,"nx":112,"ny":82,"refTime":"2024-05-19T06:00:00:Z","depth":0,"parameterNumber":3,"parameterNumberName":"V-component_of_WINDS"},"data":[0.0,0.0,0.0,0.0,0.0,0.0,0.0,0.0,0.0,0.0,0.0,0.0,0.0,0.0,0.0,0.0,0.0,0.0,0.0,0.0,0.0,0.0,0.0,0.0,0.0,0.0,0.0,0.0,0.0,0.0,0.0,0.0,0.0,0.0,0.0,0.0,0.0,0.0,0.0,0.0,0.0,0.0,0.0,0.0,0.0,0.0,0.0,0.0,0.0,0.0,0.0,0.0,0.0,0.0,0.0,0.0,0.0,0.0,0.0,0.0,0.0,0.0,0.0,0.0,0.0,0.0,0.0,0.0,0.0,0.0,0.0,0.0,0.0,0.0,0.0,0.0,0.0,0.0,0.0,0.0,0.0,0.0,0.0,0.0,0.0,0.0,0.0,0.0,0.0,0.0,0.0,0.8489,0.9011,0.9384,0.9659,0.9185,0.849,0.7618,0.0,0.0,0.0,0.0,0.0,0.0,0.0,0.0,0.0,0.0,0.0,0.0,0.0,0.0,0.0,0.0,0.0,0.0,0.0,0.0,0.0,0.0,0.0,0.0,0.0,0.0,0.0,0.0,0.0,0.0,0.0,0.0,0.0,0.0,0.0,0.0,0.0,0.0,0.0,0.0,0.0,0.0,0.0,0.0,0.0,0.0,0.0,0.0,0.0,0.0,0.0,0.0,0.0,0.0,0.0,0.0,0.0,0.0,0.0,0.0,0.0,0.0,0.0,0.0,0.0,0.0,0.0,0.0,0.0,0.0,0.0,0.0,0.0,0.0,0.0,0.0,0.0,0.0,0.0,0.0,0.0,0.0,0.0,0.0,0.0,0.0,0.0,0.0,0.0,0.0,0.0,0.0,0.0,0.0,0.0,0.0,0.0,0.0,0.0,0.0,0.0,0.0,0.0,0.0,0.7381,0.9313,0.9566,0.9633,0.9708,0.9344,0.8771,0.7892,0.0,0.0,0.0,0.0,0.0,0.0,0.0,0.0,0.0,0.0,0.0,0.0,0.0,0.0,0.0,0.0,0.0,0.0,0.0,0.0,0.0,0.0,0.0,0.0,0.0,0.0,0.0,0.0,0.0,0.0,0.0,0.0,0.0,0.0,0.0,0.0,0.0,0.0,0.0,0.0,0.0,0.0,0.0,0.0,0.0,0.0,0.0,0.0,0.0,0.0,0.0,0.0,0.0,0.0,0.0,0.0,0.0,0.0,0.0,0.0,0.0,0.0,0.0,0.0,0.0,0.0,0.0,0.0,0.0,0.0,0.0,0.0,0.0,0.0,0.0,0.0,0.0,0.0,0.0,0.0,0.0,0.0,0.0,0.0,0.0,0.0,0.0,0.0,0.0,0.0,0.0,0.0,0.0,0.0,0.0,0.0,0.0,0.0,0.0,0.0,0.0,0.0,0.0,0.7428,0.8277,0.9546,0.9715,0.9715,0.9715,0.9265,0.8701,0.8043,0.7384,0.0,0.0,0.0,0.0,0.0,0.0,0.0,0.0,0.0,0.0,0.0,0.0,0.0,0.0,0.0,0.0,0.0,0.0,0.0,0.0,0.0,0.0,0.0,0.0,0.0,0.0,0.0,0.0,0.0,0.0,0.0,0.0,0.0,0.0,0.0,0.0,0.0,0.0,0.0,0.0,0.0,0.0,0.0,0.0,0.0,0.0,0.0,0.0,0.0,0.0,0.0,0.0,0.0,0.0,0.0,0.0,0.0,0.0,0.0,0.0,0.0,0.0,0.0,0.0,0.0,0.0,0.0,0.0,0.0,0.0,0.0,0.0,0.0,0.0,0.0,0.0,0.0,0.0,0.0,0.0,0.0,0.0,0.0,0.0,0.0,0.0,0.0,0.0,0.0,0.0,0.0,0.0,0.0,0.0,0.0,0.0,0.0,0.0,0.0,0.0,0.0,0.0,0.8477,0.9185,0.9668,0.9746,0.976,0.9693,0.9085,0.8525,0.8134,0.7272,0.0,0.0,0.0,0.0,0.0,0.0,0.0,0.0,0.0,0.0,0.0,0.0,0.0,0.0,0.0,0.0,0.0,0.0,0.0,0.0,0.0,0.0,0.0,0.0,0.0,0.0,0.0,0.0,0.0,0.0,0.0,0.0,0.0,0.0,0.0,0.0,0.0,0.0,0.0,0.0,0.0,0.0,0.0,0.0,0.0,0.0,0.0,0.0,0.0,0.0,0.0,0.0,0.0,0.0,0.0,0.0,0.0,0.0,0.0,0.0,0.0,0.0,0.0,0.0,0.0,0.0,0.0,0.0,0.0,0.0,0.0,0.0,0.0,0.0,0.0,0.0,0.0,0.0,0.0,0.0,0.0,0.0,0.0,0.0,0.0,0.0,0.0,0.0,0.0,0.0,0.0,0.0,0.0,0.0,0.0,0.0,0.0,0.0,0.0,0.0,0.0,0.0,0.8571,0.9668,0.9708,0.9927,0.9973,0.9735,0.8925,0.8331,0.812,0.6882,0.0,0.0,0.0,0.0,0.0,0.0,0.0,0.0,0.0,0.0,0.0,0.0,0.0,0.0,0.0,0.0,0.0,0.0,0.0,0.0,0.0,0.0,0.0,0.0,0.0,0.0,0.0,0.0,0.0,0.0,0.0,0.0,0.0,0.0,0.0,0.0,0.0,0.0,0.0,0.0,0.0,0.0,0.0,0.0,0.0,0.0,0.0,0.0,0.0,0.0,0.0,0.0,0.0,0.0,0.0,0.0,0.0,0.0,0.0,0.0,0.0,0.0,0.0,0.0,0.0,0.0,0.0,0.0,0.0,0.0,0.0,0.0,0.0,0.0,0.0,0.0,0.0,0.0,0.0,0.0,0.0,0.0,0.0,0.0,0.0,0.0,0.0,0.0,0.0,0.0,0.0,0.0,0.0,0.0,0.0,0.0,0.0,0.0,0.0,0.0,0.0,0.0,0.8263,0.9279,0.0,0.978,0.9969,1.0308,0.9671,0.9041,0.8521,0.0,0.0,0.0,0.0,0.0,0.0,0.0,0.0,0.0,0.0,0.0,0.0,0.0,0.0,0.0,0.0,0.0,0.0,0.0,0.0,0.0,0.0,0.0,0.0,0.0,0.0,0.0,0.0,0.0,0.0,0.0,0.0,0.0,0.0,0.0,0.0,0.0,0.0,0.0,0.0,0.0,0.0,0.0,0.0,0.0,0.0,0.0,0.0,0.0,0.0,0.0,0.0,0.0,0.0,0.0,0.0,0.0,0.0,0.0,0.0,0.0,0.0,0.0,0.0,0.0,0.0,0.0,0.0,0.0,0.0,0.0,0.0,0.0,0.0,0.0,0.0,0.0,0.0,0.0,0.0,0.0,0.0,0.0,0.0,0.0,0.0,0.0,0.0,0.0,0.0,0.0,0.0,0.0,0.0,0.0,0.0,0.0,0.0,0.0,0.0,0.0,0.0,0.7027,0.829,0.9239,0.0,0.9766,1.0065,1.0665,1.0071,0.9453,0.8921,0.0,0.0,0.0,0.0,0.0,0.0,0.0,0.0,0.0,0.0,0.0,0.0,0.0,0.0,0.0,0.0,0.0,0.0,0.0,0.0,0.0,0.0,0.0,0.0,0.0,0.0,0.0,0.0,0.0,0.0,0.0,0.0,0.0,0.0,0.0,0.0,0.0,0.0,0.0,0.0,0.0,0.0,0.0,0.0,0.0,0.0,0.0,0.0,0.0,0.0,0.0,0.0,0.0,0.0,0.0,0.0,0.0,0.0,0.0,0.0,0.0,0.0,0.0,0.0,0.0,0.0,0.0,0.0,0.0,0.0,0.0,0.0,0.0,0.0,0.0,0.0,0.0,0.0,0.0,0.0,0.0,0.0,0.0,0.0,0.0,0.0,0.0,0.0,0.0,0.0,0.0,0.0,0.0,0.0,0.0,0.0,0.0,0.0,0.0,0.0,0.0,0.0,0.7399,0.8791,0.9715,0.9715,0.994,1.0256,1.068,0.9922,0.9376,0.0,0.0,0.0,0.0,0.0,0.0,0.0,0.0,0.0,0.0,0.0,0.0,0.0,0.0,0.0,0.0,0.0,0.0,0.0,0.0,0.0,0.0,0.0,0.0,0.0,0.0,0.0,0.0,0.0,0.0,0.0,0.0,0.0,0.0,0.0,0.0,0.0,0.0,0.0,0.0,0.0,0.0,0.0,0.0,0.0,0.0,0.0,0.0,0.0,0.0,0.0,0.0,0.0,0.0,0.0,0.0,0.0,0.0,0.0,0.0,0.0,0.0,0.0,0.0,0.0,0.0,0.0,0.0,0.0,0.0,0.0,0.0,0.0,0.0,0.0,0.0,0.0,0.0,0.0,0.0,0.0,0.0,0.0,0.0,0.0,0.0,0.0,0.0,0.0,0.0,0.0,0.0,0.0,0.0,0.0,0.0,0.0,0.0,0.0,0.0,0.0,0.0,0.0,0.7655,0.8898,0.976,0.9967,0.988,1.0058,1.0665,1.0514,0.9953,0.8942,0.0,0.0,0.0,0.0,0.0,0.0,0.0,0.0,0.0,0.0,0.0,0.0,0.0,0.0,0.0,0.0,0.0,0.0,0.0,0.0,0.0,0.0,0.0,0.0,0.0,0.0,0.0,0.0,0.0,0.0,0.0,0.0,0.0,0.0,0.0,0.0,0.0,0.0,0.0,0.0,0.0,0.0,0.0,0.0,0.0,0.0,0.0,0.0,0.0,0.0,0.0,0.0,0.0,0.0,0.0,0.0,0.0,0.0,0.0,0.0,0.0,0.0,0.0,0.0,0.0,0.0,0.0,0.0,0.0,0.0,0.0,0.0,0.0,0.0,0.0,0.0,0.0,0.0,0.0,0.0,0.0,0.0,0.0,0.0,0.0,0.0,0.0,0.0,0.0,0.0,0.0,0.0,0.0,0.0,0.0,0.0,0.0,0.0,0.0,0.0,0.0,0.0,0.7936,0.9031,0.9793,1.0087,0.986,0.9962,1.0629,1.0767,1.034,0.9236,0.0,0.0,0.0,0.0,0.0,0.0,0.0,0.0,0.0,0.0,0.0,0.0,0.0,0.0,0.0,0.0,0.0,0.0,0.0,0.0,0.0,0.0,0.0,0.0,0.0,0.0,0.0,0.0,0.0,0.0,0.0,0.0,0.0,0.0,0.0,0.0,0.0,0.0,0.0,0.0,0.0,0.0,0.0,0.0,0.0,0.0,0.0,0.0,0.0,0.0,0.0,0.0,0.0,0.0,0.0,0.0,0.0,0.0,0.0,0.0,0.0,0.0,0.0,0.0,0.0,0.0,0.0,0.0,0.0,0.0,0.0,0.0,0.0,0.0,0.0,0.0,0.0,0.0,0.0,0.0,0.0,0.0,0.0,0.0,0.0,0.0,0.0,0.0,0.0,0.0,0.0,0.0,0.0,0.0,0.0,0.0,0.0,0.0,0.0,0.0,0.0,0.0,0.8248,0.9186,0.9806,1.0127,0.99,0.9967,1.0544,1.0692,1.0506,0.9904,0.0,0.0,0.0,0.0,0.0,0.0,0.0,0.0,0.0,0.0,0.0,0.0,0.0,0.0,0.0,0.0,0.0,0.0,0.0,0.0,0.0,0.0,0.0,0.0,0.0,0.0,0.0,0.0,0.0,0.0,0.0,0.0,0.0,0.0,0.0,0.0,0.0,0.0,0.0,0.0,0.0,0.0,0.0,0.0,0.0,0.0,0.0,0.0,0.0,0.0,0.0,0.0,0.0,0.0,0.0,0.0,0.0,0.0,0.0,0.0,0.8751,0.0,0.0,0.0,0.0,0.0,0.0,0.0,0.0,0.0,0.0,0.0,0.0,0.0,0.0,0.0,0.0,0.0,0.0,0.0,0.0,0.0,0.0,0.0,0.0,0.0,0.0,0.0,0.0,0.0,0.0,0.0,0.0,0.0,0.0,0.0,0.0,0.0,0.0,0.0,0.0,0.0,0.8524,0.9285,0.9916,1.0439,1.02,0.9986,0.9925,1.0221,1.0161,0.9622,0.901,0.0,0.0,0.0,0.0,0.0,0.0,0.0,0.0,0.0,0.0,0.0,0.0,0.0,0.0,0.0,0.0,0.0,0.0,0.0,0.0,0.0,0.0,0.0,0.0,0.0,0.0,0.0,0.0,0.0,0.0,0.0,0.0,0.0,0.0,0.0,0.0,0.0,0.0,0.0,0.0,0.0,0.0,0.0,0.0,0.0,0.0,0.0,0.0,0.0,0.0,0.0,0.0,0.0,0.0,0.0,0.0,0.0,0.0,0.0,0.0,0.9713,0.0,0.0,0.0,0.0,0.0,0.0,0.0,0.0,0.0,0.0,0.0,0.0,0.0,0.0,0.0,0.0,0.0,0.0,0.0,0.0,0.0,0.0,0.0,0.0,0.0,0.0,0.0,0.0,0.0,0.0,0.0,0.0,0.0,0.0,0.0,0.0,0.0,0.0,0.0,0.0,0.8778,0.9406,0.9943,1.0533,1.0294,1.0,0.9706,1.0363,1.0514,0.9873,0.9761,0.0,0.0,0.0,0.0,0.0,0.0,0.0,0.0,0.0,0.0,0.0,0.0,0.0,0.0,0.0,0.0,0.0,0.0,0.0,0.0,0.0,0.0,0.0,0.0,0.0,0.0,0.0,0.0,0.0,0.0,0.0,0.0,0.0,0.0,0.0,0.0,0.0,0.0,0.0,0.0,0.0,0.0,0.0,0.0,0.0,0.0,0.0,0.0,0.0,0.0,0.0,0.0,0.0,1.2719,1.2766,1.2766,1.2766,1.2899,1.3119,1.2141,1.1643,1.1462,1.0481,0.0,0.0,0.0,0.0,0.0,0.0,0.0,0.0,0.0,0.0,0.0,0.0,0.0,0.0,0.0,0.0,0.0,0.0,0.0,0.0,0.0,0.0,0.0,0.0,1.0094,0.991,0.8698,0.0,0.0,0.0,0.0,0.0,0.0,0.0,0.0,0.0,0.0,0.0,0.9011,0.9539,0.9997,1.0533,1.0341,1.0053,0.9742,1.0518,1.0811,1.0327,1.053,1.043,0.0,0.0,0.0,0.0,0.0,0.0,0.0,0.0,0.0,0.0,0.0,0.0,0.0,0.0,0.0,0.0,0.0,0.0,0.0,0.0,0.0,0.0,0.0,0.0,0.0,0.0,0.0,0.0,0.0,0.0,0.0,0.0,0.9138,0.973,0.0,0.0,0.0,0.0,0.0,0.0,0.0,0.0,0.0,0.0,0.0,0.0,0.0,1.2587,1.267,1.3447,1.3814,1.3861,1.4369,1.466,1.466,1.466,1.468,1.4707,1.4553,0.0,1.2158,1.1785,0.0,0.0,0.0,0.0,0.0,0.0,0.0,0.0,0.0,0.0,0.0,0.0,0.0,0.0,0.0,0.0,0.0,0.0,0.0,0.0,0.0,0.0,1.1002,1.0862,1.0848,1.0828,0.0,0.9559,0.8444,0.7799,0.7279,0.0,0.0,0.0,0.0,0.0,0.0,0.0,0.9118,0.969,1.0187,1.0553,1.0559,1.0311,0.9762,0.9841,1.0125,1.0687,1.007,1.0184,1.1287,0.9717,0.0,0.0,0.0,0.0,0.0,0.0,0.0,0.0,0.0,0.0,0.0,0.0,0.0,0.0,0.0,0.0,0.0,0.0,0.0,0.0,0.0,0.0,0.0,0.0,0.0,0.0,0.0,0.0,0.0,0.9152,1.0074,1.0334,1.0396,1.0243,0.0,0.0,0.0,0.0,0.0,0.0,0.0,0.0,0.0,1.3333,1.3607,1.4062,1.4767,1.5162,1.5398,1.5558,1.5818,1.5945,1.5945,1.5945,1.5945,1.5932,1.5819,1.5164,1.4208,1.326,1.2472,1.179,0.0,0.0,0.0,0.0,1.0855,1.0828,1.163,1.169,1.141,1.1209,0.0,0.0,0.0,0.0,0.0,0.0,0.0,0.0,0.0,0.0,1.1924,1.2,1.2147,1.2144,1.1804,1.1223,1.0401,0.0,0.8831,0.8432,0.7486,0.0,0.0,0.0,0.0,0.8704,0.959,0.9923,1.0234,1.0559,1.0593,1.0499,1.0293,1.0601,1.097,1.1334,1.1387,1.1565,1.1921,1.0997,0.9953,0.0,0.0,0.0,0.0,0.0,0.0,0.0,0.0,0.0,0.0,0.0,0.0,0.0,0.0,0.0,0.0,0.0,0.0,0.0,0.0,0.0,0.0,0.0,0.0,0.0,0.0,0.0,0.0,1.0184,1.0955,1.1028,1.1523,1.1563,0.0,0.0,0.0,0.0,0.0,0.0,1.2846,1.3259,1.3943,1.4937,1.5044,1.5498,1.6373,1.6386,1.6493,1.6707,1.6707,1.6707,1.6707,1.6707,1.6707,1.6693,1.648,1.6259,1.5898,1.4512,1.3768,1.336,1.2619,1.2278,1.2281,1.2538,1.2512,1.2458,1.3387,1.3467,1.3105,1.2919,1.2418,1.1695,1.0922,0.0,0.0,0.0,0.0,1.1209,1.194,1.2311,1.2592,1.2851,1.3039,1.3086,1.2632,1.2532,1.2037,0.0,1.0194,0.9947,0.8678,0.0,0.0,0.0,0.0,0.9132,1.0007,1.018,1.0314,1.0566,1.0593,1.0561,1.0458,1.0899,1.1208,1.1284,1.1965,1.2271,1.2101,1.1872,1.1087,0.9668,0.0,0.0,0.0,0.0,0.0,0.0,0.0,0.0,0.0,0.0,0.0,0.0,0.0,0.0,0.0,0.0,0.0,0.0,0.0,0.0,0.0,0.0,0.0,0.0,0.0,0.0,0.0,0.0,0.0,1.2184,1.2752,0.0,0.0,0.0,0.0,1.265,1.2953,1.3514,1.4319,1.495,1.5545,1.6166,1.6453,1.6627,1.6687,1.6687,1.6693,1.6707,1.6707,1.6707,1.6707,1.6707,1.6707,1.6707,1.6693,1.6673,1.6573,1.543,1.4599,1.4008,1.364,1.3347,1.318,1.3427,1.3527,1.3567,1.3948,1.4041,1.4062,1.4322,1.3828,1.3006,1.2385,1.179,0.0,0.0,1.2004,1.2291,1.2656,1.2933,1.3166,1.318,1.32,1.32,1.3173,1.316,1.2719,0.0,1.0942,1.0748,1.0083,0.0,0.992,0.9659,0.9853,1.0053,1.0077,1.0399,1.0579,1.0593,1.0593,1.0383,0.9791,0.9766,0.9841,0.9903,1.0542,1.1182,1.1787,1.2049,1.1745,1.0818,0.9572,0.0,0.0,0.0,0.0,0.0,0.0,0.0,0.0,0.0,0.0,0.0,0.0,0.0,0.0,0.0,0.0,0.0,0.0,0.0,0.0,0.0,0.0,0.0,0.0,0.0,0.0,0.0,0.0,1.3674,1.4255,0.0,1.3788,1.4068,1.4255,1.4224,1.4796,1.5317,1.5631,1.6254,1.6757,1.7101,1.7408,1.7662,1.7856,1.7856,1.7856,1.7856,1.7856,1.7756,1.7516,1.7516,1.7462,1.7261,1.7125,1.7038,1.6991,1.6339,1.5852,1.5491,1.4963,1.471,1.4629,1.473,1.477,1.481,1.5104,1.5084,1.4883,1.4609,1.4309,1.3975,1.3574,1.3307,1.32,1.3494,1.3647,1.3754,1.3861,1.3968,1.4008,1.3821,1.3774,1.3721,1.3487,1.3447,1.324,1.2559,1.2104,1.159,1.0815,1.0681,1.0648,1.0541,1.0615,1.0681,1.0681,1.0768,1.0801,1.0613,1.0593,1.053,1.0343,1.0351,1.0378,1.0437,1.1065,1.1566,1.1789,1.2358,1.2227,1.1369,1.0361,0.9217,0.0,0.0,0.0,0.0,0.0,0.0,0.0,0.0,0.0,0.0,0.0,0.0,0.0,0.0,0.0,0.0,0.0,0.0,0.0,0.0,0.0,0.0,0.0,0.0,0.0,0.0,1.4235,1.4623,1.5357,1.5605,1.5017,1.5585,1.5905,1.5765,1.6382,1.676,1.6867,1.7241,1.7589,1.7883,1.809,1.829,1.849,1.849,1.849,1.849,1.849,1.8384,1.8196,1.8196,1.8029,1.7729,1.7535,1.7395,1.7326,1.6981,1.674,1.6563,1.5925,1.5691,1.5678,1.5578,1.5538,1.5571,1.5718,1.5705,1.5458,1.497,1.4816,1.4763,1.4469,1.4382,1.4422,1.4616,1.4669,1.4669,1.4669,1.4669,1.4596,1.4302,1.4229,1.4148,1.3854,1.3753,1.3666,1.3373,1.2866,1.2238,1.1557,1.1356,1.1256,1.1156,1.1136,1.1136,1.1136,1.1056,1.0922,1.076,1.0646,1.0571,1.0493,1.0408,1.045,1.0629,1.1158,1.1566,1.1789,1.2368,1.2338,1.1616,1.0596,0.9648,0.8799,0.0,0.0,0.0,0.0,0.0,0.0,0.0,0.0,0.0,0.0,0.0,0.0,0.0,0.0,0.0,0.0,0.0,0.0,0.0,0.0,0.0,0.0,0.0,1.3307,1.4269,1.5062,1.5089,1.6046,1.6513,1.5917,1.6687,1.7246,1.7246,1.7507,1.7742,1.7989,1.8015,1.8203,1.8497,1.851,1.8517,1.8517,1.8517,1.8517,1.8517,1.8517,1.851,1.8504,1.8504,1.8343,1.8009,1.8009,1.7883,1.7575,1.7347,1.7226,1.7159,1.6569,1.6328,1.6239,1.5945,1.5791,1.5784,1.5784,1.5784,1.5785,1.5504,1.5411,1.5357,1.5122,1.5035,1.5035,1.5035,1.5035,1.5035,1.5022,1.5022,1.4948,1.4603,1.4536,1.4456,1.4162,1.4102,1.4015,1.3673,1.318,1.2717,1.2385,1.2127,1.1832,1.1475,1.1422,0.0,1.1409,1.1196,1.1015,1.0995,1.0774,1.0479,1.014,0.9846,0.986,1.0275,1.0613,1.1091,1.1765,1.2063,1.2041,1.1636,1.0322,0.9631,0.9612,0.0,0.0,0.0,0.0,0.0,0.0,0.0,0.0,0.0,0.0,0.0,0.0,0.0,0.0,0.0,0.0,0.0,0.0,0.0,0.0,0.0,0.0,1.4569,1.4539,1.5311,1.6201,1.6787,1.7148,1.7448,1.7736,1.7976,1.8123,1.8123,1.8196,1.8277,1.8364,1.8571,1.8661,1.8804,1.9018,1.9125,1.9125,1.9125,1.9125,1.9125,1.9125,1.9011,1.8804,1.8804,1.8644,1.837,1.837,1.8196,1.7862,1.7829,1.7669,1.7402,1.682,1.646,1.6308,1.6179,1.6012,1.5784,1.5784,1.5784,1.5764,1.5684,1.5712,1.5698,1.5618,1.5591,1.5591,1.5591,1.5591,1.5545,1.5331,1.5277,1.5204,1.491,1.4843,1.4763,1.4462,1.4402,1.4315,1.4021,1.3661,1.3307,1.3013,1.275,1.2516,1.2429,1.2198,0.0,1.1777,1.1712,1.1463,1.1035,1.0922,1.0668,1.016,0.9846,0.986,1.0275,1.0613,1.1091,1.1765,1.2372,1.25,1.2051,1.1044,1.0302,0.0,0.0,0.0,0.0,0.0,0.0,0.0,0.0,0.0,0.0,0.0,0.0,0.0,0.0,0.0,0.0,0.0,0.0,0.0,0.0,0.0,0.0,1.6168,1.68,1.6935,1.6881,1.7014,1.7522,1.7809,1.8103,1.8457,1.8597,1.8671,1.8671,1.8784,1.8858,1.8858,1.9018,1.9112,1.9112,1.9392,1.9492,1.9424,1.9486,1.9486,1.9424,1.9424,1.9279,1.9112,1.9112,1.8951,1.8671,1.8671,1.843,1.7995,1.7995,1.7862,0.0,0.0,0.0,0.0,0.0,1.6166,1.5999,1.5872,1.5784,1.5784,1.5784,1.5784,1.5784,1.5784,1.5784,1.5784,1.5784,1.5784,1.5744,1.5618,1.5578,1.5504,1.5211,1.5189,1.5064,1.477,1.4609,1.4469,1.4302,1.4028,0.0,1.3607,1.3227,1.2938,1.2804,1.2636,1.2415,1.2127,1.198,1.1772,1.1396,1.1136,1.0978,1.0996,1.0305,0.0,0.0,0.0,1.1294,1.1946,1.2373,0.0,0.0,0.0,0.0,0.0,0.0,0.0,0.0,0.9772,0.9572,0.0,0.0,0.0,0.0,0.0,0.0,0.0,0.0,0.0,0.0,0.0,0.0,0.0,0.0,0.0,0.0,1.8895,1.9176,1.9635,1.8587,1.7736,1.7736,1.821,1.8551,1.8584,1.8824,1.8985,1.9018,1.9265,1.9491,1.9466,0.0,0.0,0.0,0.0,1.9726,1.9466,1.972,1.97,1.9477,1.9477,1.9457,1.9424,1.9424,1.9225,1.8978,1.8978,1.8657,1.8089,1.8089,1.7943,1.7602,1.7326,1.7199,1.7132,1.6576,1.6375,1.6279,1.5979,0.0,0.0,1.5791,1.5784,1.5784,1.5784,1.5784,1.5784,1.5784,1.5784,1.5784,1.5784,1.5784,1.5718,1.5504,1.5444,1.5364,1.5122,1.4803,1.4603,1.4492,1.4309,1.4128,1.4095,1.3627,1.3153,1.2884,1.2804,1.2677,1.2338,1.2078,1.194,1.1906,0.0,0.0,1.2006,1.0906,1.0678,1.1865,1.1697,1.1755,1.2181,1.2254,1.2281,1.2281,1.2281,1.2467,1.2905,1.2905,1.2686,1.2242,1.0702,1.0361,0.0,0.0,0.0,0.0,0.0,0.0,0.0,0.0,0.0,0.0,0.0,0.0,0.0,0.0,0.0,2.0105,1.9032,1.8506,2.023,1.9422,1.8664,1.8664,1.8764,1.8931,1.9172,1.9252,1.9379,1.9613,1.9686,1.982,2.0054,2.0067,2.0067,2.0067,2.012,2.012,2.0067,2.012,2.0,1.972,0.0,0.0,1.9424,1.9424,1.9339,1.9279,1.9279,1.9078,1.8758,1.8758,1.8382,1.7849,1.7414,1.7199,1.7159,1.6754,1.662,1.658,1.6286,1.6186,1.6146,1.5905,1.5784,1.5784,1.5784,1.5784,0.0,1.5784,1.5784,1.5784,1.5784,1.5784,1.5764,1.5711,1.5698,1.5665,1.5378,1.5271,1.5084,1.4609,1.4476,1.4362,1.4128,1.3794,1.342,1.3166,1.2945,1.2677,1.2338,1.2251,1.2131,1.1933,1.1806,1.1572,1.1253,1.0771,1.1012,1.2245,1.2789,1.2847,1.2306,1.2586,1.2754,1.2754,1.2754,1.2803,1.2905,1.2905,1.2842,1.2768,1.2412,1.2148,0.0,0.0,0.0,0.0,0.0,0.0,0.0,0.0,0.0,0.0,0.0,1.9414,0.0,0.0,2.1284,2.2397,2.1989,2.1316,2.0856,2.0482,1.9912,1.8995,1.9058,1.9265,1.9553,1.9586,1.97,1.9993,2.0013,2.008,2.0167,2.0173,2.0173,2.0173,2.0374,2.0381,2.0173,2.0381,2.0307,2.0013,1.9867,1.9726,1.9579,1.9432,1.9424,1.9424,1.9424,1.9199,1.8911,1.8771,1.8444,1.7962,1.7716,1.7502,1.738,1.7034,1.6927,1.6887,1.6593,1.6393,1.6246,1.6099,1.5952,1.5784,1.5784,1.5784,1.5784,1.5784,1.5784,1.5784,1.5784,1.5784,1.5784,1.5784,1.5784,1.5744,1.5645,1.5498,1.5311,1.5017,1.4723,1.4476,1.4329,1.4062,1.3768,1.3433,1.3173,1.2904,1.2603,1.2392,1.2245,1.2098,1.1993,1.1926,1.2031,1.1911,1.1981,1.2388,1.2958,1.3257,1.3204,1.3381,1.3408,1.3203,1.3193,1.3096,1.2905,1.3096,1.3193,1.3203,1.3408,1.3164,0.0,0.0,0.0,0.0,0.0,0.0,0.0,0.0,1.8952,1.9655,2.0935,2.2101,2.264,2.3918,2.4741,2.4061,2.4289,2.3729,2.1397,2.1082,2.0601,1.9146,1.9225,1.9486,1.9773,1.98,1.9947,2.0294,2.0321,2.0341,2.0401,2.034,2.034,2.034,2.0635,2.0648,2.0408,2.0641,2.0615,2.0314,2.008,1.9907,1.9793,1.9559,1.9419,1.9424,1.9424,1.9232,1.8985,1.8691,1.843,1.8155,1.8035,1.7896,1.7635,1.7393,1.7286,1.7246,1.6894,1.664,1.6476,1.6362,1.6112,1.5905,1.5798,1.5784,1.5784,1.5784,1.5784,1.5784,1.5784,1.5784,1.5784,1.5784,1.5784,1.5784,1.5784,1.5645,1.5464,1.5404,1.501,1.4656,1.4536,1.4322,1.4055,1.3653,1.3407,1.316,1.2831,1.2569,1.2365,1.2311,1.2091,1.2189,1.2732,1.2825,1.2686,1.2309,1.2859,1.3451,1.3978,1.4072,1.3948,1.3607,1.3633,1.3467,1.3125,1.3467,1.3633,1.3607,1.3948,1.3743,1.7151,1.7441,1.7969,1.874,1.8711,1.9251,0.0,0.0,2.2021,2.3981,2.4524,2.4487,2.3995,2.418,2.4139,2.3431,2.2363,2.1643,2.1545,2.0458,1.9577,1.9383,1.941,1.9486,1.9773,1.98,2.0027,2.0581,2.0628,2.0742,2.0995,2.1009,2.1009,2.1009,2.1042,2.1042,2.1009,2.1042,2.0915,2.0621,2.0595,2.0307,1.98,1.9766,1.9613,1.9424,1.9424,1.941,1.9292,1.8998,1.8851,1.8771,1.8195,1.7969,1.7902,1.7649,1.7535,1.7548,1.7253,1.7132,1.7018,1.6489,1.6253,1.6172,1.5912,1.5784,1.5784,1.5784,1.5784,1.5784,1.5784,1.5784,1.5784,1.5784,1.5784,1.5784,1.5784,1.5758,1.5705,1.5444,1.5344,1.513,1.4609,1.4496,1.4239,1.3686,1.3573,1.3387,1.2857,1.2757,1.263,1.2331,1.2271,1.2074,1.162,1.2017,1.2159,1.1889,1.2919,1.3592,1.3649,1.3946,1.4085,1.4036,1.4036,1.4016,1.3968,1.4016,1.4036,1.4036,1.4085,1.4055,1.9424,1.9709,0.0,0.0,2.1035,2.165,2.3139,2.3389,2.376,2.5166,2.5664,2.5946,2.6157,2.5494,2.4651,0.0,2.4003,2.3448,2.0709,2.1486,2.1578,1.9374,1.9259,1.9546,2.0007,2.0054,2.0294,2.0882,2.0929,2.0982,2.1102,2.1109,2.1109,2.1109,2.1109,2.1109,2.1109,2.1109,2.1049,2.0922,2.0755,2.0548,2.0294,1.996,1.9639,1.9424,1.9424,1.9424,1.9417,1.9232,1.9078,1.8898,1.8595,1.8288,1.7955,1.7695,1.7582,1.7562,1.7442,1.734,1.7159,1.6918,1.6603,1.6253,1.6126,1.5965,1.5784,1.5784,1.5784,1.5784,1.5784,1.5784,1.5784,1.5784,1.5784,1.5784,1.5784,1.5784,1.5792,1.5671,1.5511,1.5264,1.485,1.4636,1.4584,1.4801,1.4104,1.3453,1.3073,1.2898,1.267,1.2338,1.2305,1.2349,1.2479,1.265,1.2749,1.2846,1.3726,1.4154,1.3949,1.4535,1.4738,1.4521,1.4512,1.4358,1.4104,1.4358,1.4512,1.4521,1.4738,1.4855,2.0674,0.0,0.0,2.2012,2.2881,2.3765,2.3848,2.4434,2.5176,2.5937,2.6338,2.6536,2.6337,2.5821,2.476,2.2879,2.4192,2.4,2.0082,2.1581,2.2029,1.9205,1.9045,1.9352,1.994,2.0067,2.0361,2.0949,2.0989,2.1029,2.1109,2.1109,2.1109,2.1109,2.1109,2.1109,2.1109,2.1109,2.1109,2.1109,2.0895,2.0755,2.0661,2.0067,1.9686,1.9486,1.9406,1.9424,1.9424,1.9424,1.9239,1.9038,1.8958,1.8611,1.8075,1.7822,1.7655,1.7582,1.7582,1.7442,1.7306,1.7226,1.6857,1.6471,1.6724,1.6347,1.5872,1.6251,1.6062,1.5784,1.5784,1.5784,1.5784,1.5784,1.6062,1.6251,1.5879,1.6062,1.6197,1.5872,1.5658,1.5424,1.5182,1.4836,1.492,1.5673,1.4876,1.4171,1.4216,1.367,1.3003,1.2368,1.2305,1.2578,1.3254,1.3189,1.3423,1.4079,1.4519,1.4744,1.4724,1.5176,1.5148,1.4639,1.4838,1.4693,1.4116,1.4693,1.4961,1.4971,1.5264,1.541,0.0,0.0,2.3051,2.2598,2.376,2.5117,2.5566,2.6006,2.6455,2.6885,2.6982,2.6153,2.3341,2.4225,2.4102,2.0157,2.1017,2.1613,2.0017,1.9663,1.9381,1.8958,1.8684,1.8744,0.0,1.9646,2.0054,2.0648,2.0688,2.0815,2.1096,2.1109,2.1109,2.1109,2.1109,2.1109,2.1109,2.1109,2.1109,2.1109,2.1102,2.0949,2.0661,2.0067,1.98,1.9773,1.9492,1.9424,1.9424,1.9424,1.9366,1.9325,1.9038,1.8738,1.8444,1.8089,1.7842,1.7582,1.7582,1.7575,1.7522,1.7293,1.6991,1.6882,1.7792,1.7003,1.6062,1.7271,1.6763,1.5784,1.5784,1.5784,1.5784,1.5784,1.6756,1.7318,1.6062,1.6756,1.7271,1.6062,1.5771,1.5678,1.5431,1.5144,1.5236,1.597,1.5848,1.593,1.6679,1.5348,1.3814,1.2442,1.2305,1.2578,1.3254,1.3294,1.3926,1.5362,1.511,1.5241,1.6015,1.5635,1.504,1.4225,1.4972,1.4992,1.4198,1.4992,1.5391,1.5391,1.5371,1.541,0.0,0.0,2.375,2.4473,2.4336,2.4473,2.6166,2.5219,2.4503,2.6554,2.6037,2.4946,2.4056,2.4266,2.3572,2.0725,2.2089,2.2575,1.9935,2.0858,2.1126,1.9139,1.9178,0.0,0.0,0.0,0.0,2.0621,2.0675,2.0802,2.1096,2.1109,2.1109,2.1109,2.1109,2.1109,2.1109,2.1109,2.1109,2.1109,2.1109,2.0955,2.0668,2.0474,2.0167,1.9793,1.9693,1.9546,1.9424,1.9424,1.9424,1.9417,1.9259,1.9038,1.8744,1.845,1.8726,1.9098,1.8012,1.7582,1.7569,1.7468,1.7293,1.7194,1.8105,1.7882,1.7534,1.8612,1.7994,1.7037,1.7037,1.6433,1.5784,1.5784,1.6109,1.6574,1.699,1.7412,1.7816,1.8164,1.763,1.6976,1.6644,1.5846,1.5694,1.704,1.6821,1.6317,1.5896,1.4981,1.3939,1.2756,1.2418,1.2903,1.4434,1.393,1.4233,1.5791,1.568,1.5629,1.569,1.5821,1.575,1.547,1.5409,1.5264,1.4991,1.5264,1.541,1.541,1.541,1.541,2.2988,2.3799,2.4373,2.4963,2.5048,2.5205,2.6017,2.5194,2.4532,2.5663,2.4737,2.3489,2.2574,2.2273,2.1661,2.0185,2.1403,2.2103,2.0768,2.1356,2.1653,2.1058,2.0615,2.0312,0.0,0.0,0.0,2.0584,2.0615,2.0802,2.1096,2.1109,2.1109,2.1109,2.1109,2.1109,2.1109,2.1109,2.1109,2.1109,2.1109,2.1009,2.0828,2.0722,2.0414,1.9947,1.9846,1.9633,1.9424,1.9982,1.9866,1.9424,1.9982,1.9681,1.8885,1.8597,1.8885,1.9248,1.8566,1.8655,1.8961,1.8506,1.8147,1.8013,1.8496,1.8505,1.8507,1.9368,1.914,1.8427,1.7854,1.7084,1.6339,1.592,1.6157,1.6574,1.6943,1.7731,1.8457,1.8772,1.8596,1.8287,1.8054,1.7251,1.687,1.7657,1.7801,1.7468,1.6546,1.6116,1.5358,1.4028,1.3383,1.3755,1.5561,1.4807,1.495,1.6689,1.6574,1.6346,1.6192,1.6273,1.6175,1.5878,1.5864,1.5719,1.5438,1.5719,1.5849,1.5849,1.5849,1.5849,2.3623,2.4502,2.5064,2.4446,2.5905,2.7083,2.5329,2.5797,2.6072,2.4248,2.3199,2.1807,0.0,0.0,1.8844,1.8476,1.9051,2.0305,2.2246,2.1061,2.1121,0.0,0.0,0.0,0.0,0.0,0.0,2.047,0.0,2.1044,2.1215,2.1292,2.1355,2.1355,2.1292,2.1229,2.1229,2.1172,2.1109,2.1109,2.1109,2.1109,2.1096,2.0822,2.0535,2.0241,1.9947,1.9659,1.956,2.0931,2.0702,1.9642,2.1031,2.0629,1.9131,1.8834,1.8591,1.8494,1.9412,2.0554,2.1397,2.0135,1.952,1.9315,1.925,1.9074,1.9085,1.9921,2.0174,1.9857,1.8342,1.7839,1.7498,1.6292,1.685,1.7412,1.6244,1.7848,1.9177,1.8095,1.8818,1.9579,1.9488,1.9146,1.8677,1.8044,1.882,1.9264,1.8604,1.8495,1.7837,1.6045,1.503,1.5056,1.6525,1.5807,1.6053,1.7862,1.7637,1.7422,1.7422,1.697,1.6399,1.5615,1.6306,1.6329,1.5547,1.6329,1.6697,1.6697,1.6697,1.6697,2.4512,2.5605,2.654,2.6766,2.6172,2.5696,2.6285,2.3891,2.1776,2.2874,2.1561,1.965,0.0,0.0,0.0,1.7717,2.0106,0.0,2.0729,2.1726,0.0,2.3163,0.0,2.2661,2.2586,2.2033,0.0,0.0,2.2892,2.3863,2.2999,2.4101,2.4763,2.4763,2.3559,2.2959,2.2959,2.1727,2.1109,2.1109,2.1109,2.1109,2.1109,2.1036,2.0842,2.0548,2.0247,1.996,1.9732,1.9904,2.0371,2.1088,2.1472,2.1979,2.2536,2.2253,2.2546,2.2919,2.1936,2.0964,2.0231,2.0939,2.1137,2.1167,2.179,2.1939,2.2075,2.2981,2.2418,2.1437,2.1009,1.9987,1.8948,1.8626,1.8133,1.787,1.8442,1.9039,1.967,2.026,2.0612,2.0576,1.967,1.9906,2.0166,1.9972,2.0398,2.0287,1.9034,1.8659,1.8003,1.6748,1.5901,1.5878,1.6965,1.6563,1.6749,1.794,1.791,1.7852,1.7852,1.7441,1.7119,1.6904,1.6757,1.6602,1.6392,1.6602,1.6697,1.6697,1.6697,1.6697,2.4591,2.5975,2.7033,2.6017,2.5767,2.5587,2.5026,2.2628,2.0604,2.0953,1.9523,0.0,0.0,0.0,0.0,0.0,0.0,0.0,2.1924,2.2699,2.3952,0.0,2.5669,0.0,2.522,2.4498,2.3466,0.0,2.2975,2.3234,2.2514,2.3373,2.3854,2.3854,2.2952,2.2834,2.3574,2.1908,2.1481,2.2223,2.2223,2.2223,2.2223,2.2944,2.2708,2.1751,0.0,2.0837,1.9846,2.0354,2.0931,2.1635,2.2315,2.3095,2.378,2.348,2.3756,2.4086,2.3427,2.2527,2.1661,2.17,2.2106,2.2574,2.2466,2.2849,2.3365,2.37,2.357,2.3168,2.2254,2.1296,2.0392,1.9666,1.9001,1.868,1.936,1.9898,2.0666,2.1854,2.2076,2.1712,2.0486,2.0669,2.0905,2.0743,2.0666,2.0508,2.0014,1.9633,1.9093,1.8314,1.7485,1.728,1.8052,1.7358,1.7269,1.8212,1.8115,1.8008,1.8008,1.7783,1.7656,1.7656,1.7389,1.7262,1.7262,1.7262,1.7262,1.7262,1.7262,1.7262,2.4679,2.6154,2.7137,2.4449,2.5354,2.6114,2.3094,2.1916,2.0941,1.895,0.0,1.637,1.4618,1.6284,1.7485,1.5992,0.0,2.0955,2.3934,2.3633,2.4954,2.9993,2.9095,2.8165,2.8381,2.8239,2.6901,2.4116,2.2584,2.1657,2.1418,2.1657,2.1657,2.1418,2.1664,2.2341,2.3574,2.2404,2.2459,2.3938,2.3938,2.3938,2.4,2.5375,2.5092,2.349,2.3452,2.2317,2.0545,2.1803,2.2272,2.2307,2.3599,2.4211,2.4344,2.4141,2.4042,2.4005,2.4293,2.4467,2.4307,2.2738,2.3026,2.3741,2.2567,2.3026,2.3876,2.3472,2.422,2.4685,2.2815,2.2291,2.1871,2.0363,1.9861,1.9716,1.9716,2.0576,2.1658,2.2862,2.3091,2.2775,2.1702,2.1525,2.1406,2.1069,2.0625,2.0578,2.1205,2.0879,2.0458,2.0039,1.9212,1.8873,1.9321,1.8198,1.7792,1.8562,1.8256,1.8066,1.8008,1.8008,1.8008,1.8008,1.8008,1.8008,1.8008,1.8008,1.8008,1.8008,1.8008,1.8008,2.693,2.7635,2.7989,2.7146,2.6702,2.5986,2.3965,2.1864,0.0,0.0,0.0,1.6159,1.405,1.6453,1.8079,1.5814,0.0,0.0,0.0,0.0,2.605,0.0,0.0,0.0,0.0,0.0,0.0,0.0,0.0,2.4586,2.3263,2.4409,2.4525,2.3201,2.4471,2.4655,2.3636,2.4655,2.5314,2.5558,2.5558,2.5558,2.5619,2.5855,2.5822,2.5505,2.528,0.0,2.4031,2.4031,2.4538,2.5316,2.5599,2.6436,2.7501,2.7488,2.7241,2.6774,2.5353,2.5396,2.5941,2.5212,2.5177,2.5333,2.5069,2.5177,2.5362,2.5237,2.515,2.4951,2.4202,2.3724,2.3304,2.265,2.1712,2.098,2.098,2.1159,2.1658,2.2862,2.3091,2.3047,2.2818,2.2775,2.2746,2.2678,2.2313,2.1984,2.1785,2.1104,2.0576,2.0498,1.9975,1.9695,1.9777,1.9267,1.8834,1.8617,1.8529,1.8344,1.8027,1.8008,1.8008,1.8008,1.8008,1.8008,1.8008,1.8008,1.8008,1.8008,1.8008,1.8008,2.4412,2.5541,2.6794,2.5368,2.4935,2.4521,2.3115,0.0,0.0,0.0,0.0,1.558,1.414,0.0,0.0,0.0,0.0,0.0,0.0,0.0,0.0,0.0,0.0,0.0,0.0,0.0,0.0,0.0,0.0,2.568,2.4893,2.5558,2.5619,2.4893,2.5619,2.6045,2.6114,2.6045,2.6409,2.7263,2.7263,2.7263,2.7254,2.8119,2.8059,2.7237,2.6864,2.6065,2.487,2.4515,2.5052,2.61,2.61,2.6997,2.8291,2.8291,2.8164,2.7838,2.6484,2.6346,2.6611,2.5898,2.5693,2.5693,2.5693,2.5693,2.5693,2.5693,2.5586,2.5264,2.459,2.4268,2.3955,2.3247,2.2677,2.2262,2.2262,2.2262,2.2403,2.3003,2.3091,2.3091,2.3091,2.3091,2.3091,2.3091,2.2783,2.2441,2.2236,2.1455,2.082,2.0625,2.0419,2.0254,2.0254,1.9863,1.9434,1.9004,1.8724,1.8412,1.8027,1.8008,1.8008,1.8008,1.8008,1.8008,1.8008,1.8008,1.8008,1.8008,1.8008,1.8008,2.21,2.3545,2.5576,2.3519,2.3237,2.3223,2.2163,2.0229,0.0,0.0,1.5946,1.5096,1.4439,0.0,0.0,0.0,0.0,0.0,0.0,0.0,0.0,0.0,0.0,0.0,0.0,0.0,0.0,0.0,0.0,0.0,2.6037,2.5976,2.5976,2.5976,2.634,2.7134,2.8358,2.7503,2.7692,2.8911,2.8911,2.8911,2.897,3.0333,3.0206,2.8893,2.8489,2.7423,2.5863,2.5429,2.5787,2.6554,2.6554,2.7276,2.8291,2.8291,2.8291,2.8174,2.7314,2.7012,2.6875,2.5966,2.5693,2.5693,2.5693,2.5693,2.5693,2.5693,2.5693,2.5479,2.4648,2.4414,2.4199,2.3296,2.3091,2.3091,2.3091,2.3091,2.3091,2.3091,2.3091,2.3091,2.3091,2.3091,2.3091,2.3091,2.2818,2.2617,2.2519,2.1846,2.1201,2.0752,2.0664,2.0605,2.0605,2.0254,1.9873,1.9443,1.9065,1.8685,1.8301,1.8193,1.8144,1.8144,1.8057,1.8008,1.8008,1.8008,1.8008,1.8008,1.8008,1.8008,2.3708,2.4565,2.5856,2.4852,2.4014,2.3223,2.2163,0.0,0.0,1.7058,1.6002,1.523,1.4762,1.4996,0.0,0.0,0.0,1.952,0.0,0.0,0.0,0.0,0.0,0.0,0.0,0.0,0.0,0.0,0.0,0.0,2.6158,2.5976,2.5976,2.5976,2.7443,2.8239,2.8417,2.9776,3.0518,3.0645,3.0645,3.0645,3.0704,3.083,3.083,3.0616,3.0161,0.0,0.0,2.8641,2.8327,2.8121,2.8121,2.8174,2.8291,2.8291,2.8291,2.8174,2.7314,2.7012,2.6875,2.5966,2.5693,2.5693,2.5693,2.5693,2.5693,2.5693,2.5693,2.5479,2.4648,2.4414,2.4199,2.3296,2.3091,2.3091,2.3091,2.3091,2.3091,2.3091,2.3091,2.3091,2.3091,2.3091,2.3091,2.3091,2.3062,2.2896,2.2568,2.2109,2.166,2.1181,2.081,2.0605,2.0605,2.0566,2.0361,1.9883,1.9787,1.9609,1.9189,1.8789,1.8539,1.8539,1.8203,1.8008,1.8008,1.8008,1.8008,1.8008,1.8008,1.8008,2.1698,2.2573,2.4127,2.4328,2.3145,2.1891,2.1883,0.0,1.8799,1.7058,1.5995,1.5342,1.515,1.4989,1.5432,1.7116,1.747,1.8832,0.0,0.0,0.0,0.0,0.0,0.0,0.0,0.0,0.0,0.0,0.0,0.0,2.9039,2.892,2.892,2.892,2.9589,2.9903,2.9903,3.0587,3.0889,3.0889,3.0889,3.0889,3.0889,3.0889,3.0889,3.085,3.0137,0.0,0.0,2.8828,2.8437,2.8291,2.8291,2.8291,2.8291,2.8291,2.8291,2.8174,2.7314,2.7012,2.6875,2.5966,2.5693,2.5693,2.5693,2.5693,2.5693,2.5693,2.5693,2.5479,2.4648,2.3988,2.352,2.3179,2.3091,2.3091,2.3091,2.3091,2.3091,2.3091,2.3091,2.3091,2.3091,2.3091,2.3091,2.3091,2.3091,2.3033,2.2867,2.2519,2.21,2.167,2.0996,2.0605,2.0605,2.0605,2.0381,1.9941,1.9912,1.9727,1.9307,1.9121,1.9023,1.9023,1.8568,1.8354,1.8354,1.8135,1.8008,1.8008,1.8008,1.8008,2.0353,2.1301,2.3065,2.3613,2.238,2.1161,0.0,0.0,1.8643,1.7028,1.5995,1.541,1.541,1.5243,1.5707,1.7527,1.782,1.8929,2.2084,0.0,0.0,0.0,0.0,0.0,0.0,0.0,0.0,0.0,0.0,0.0,3.0889,3.0889,3.0889,3.0889,3.0889,3.0889,3.0889,3.0889,3.0889,3.0889,3.0889,3.0889,3.0889,3.0889,3.081,3.0644,2.9893,0.0,0.0,2.8594,2.8291,2.8291,2.8291,2.8291,2.8291,2.8291,2.8291,2.8174,2.7314,2.7012,2.6875,2.5966,2.5693,2.5693,2.5693,2.5693,2.5693,2.5693,2.5596,2.5361,2.4609,2.3877,2.3257,2.312,2.3091,2.3091,2.3091,2.3091,2.3091,2.3091,2.3091,2.3091,2.3091,2.3091,2.3091,2.3091,2.3091,2.3091,2.3091,2.273,2.2353,2.1934,2.1211,2.0752,2.0615,2.0605,2.0478,2.0127,2.0107,1.9971,1.9715,1.9541,1.9473,1.9473,1.9053,1.8734,1.8598,1.8305,1.8135,1.8008,1.8008,1.8008,2.073,2.1812,2.3403,2.2912,2.2188,2.1527,0.0,1.9855,1.8247,1.696,1.5995,1.541,1.541,1.5771,1.6388,1.7246,1.8457,2.0039,2.2207,0.0,0.0,0.0,0.0,0.0,0.0,0.0,0.0,0.0,0.0,0.0,3.0889,3.0889,3.0889,3.0889,3.0889,3.0889,3.0889,3.0889,3.0889,3.0889,3.0889,3.0889,3.0889,3.0889,3.0644,3.0176,0.0,0.0,0.0,2.8467,2.8291,2.8291,2.8291,2.8291,2.8291,2.8291,2.8291,2.8174,2.7314,2.7012,2.6875,2.5966,2.5693,2.5693,2.5693,2.5693,2.5693,2.5693,2.542,2.5018,2.4531,2.4102,2.3672,2.3198,2.3091,2.3091,2.3091,2.3091,2.3091,2.3091,2.3091,2.3091,2.3091,2.3091,2.3091,2.3091,2.3091,2.3091,2.3091,2.273,2.2353,2.1934,2.1494,2.1045,2.0644,2.0605,2.0605,2.0595,2.0595,2.0595,2.0595,2.0137,1.9902,1.9902,1.9492,1.9072,1.8598,1.8598,1.8383,1.8008,1.8008,1.8008,1.9772,2.0509,2.1563,2.2042,2.1044,1.9949,1.9908,1.9023,1.7842,1.6543,1.5811,1.541,1.541,1.5527,1.6289,1.835,1.9023,0.0,0.0,0.0,0.0,0.0,0.0,0.0,0.0,0.0,0.0,0.0,0.0,0.0,3.0889,3.0889,3.0889,3.0889,3.0889,3.0889,3.0889,3.0889,3.0889,3.0889,3.0889,3.0889,3.0889,3.0889,3.0635,0.0,0.0,0.0,2.8887,2.8467,2.8291,2.8291,2.8291,2.8291,2.8291,2.8291,2.8291,2.8213,2.7656,2.7266,2.6924,2.6367,2.5977,2.5693,2.5693,2.5693,2.5693,2.5693,2.541,2.5086,2.4893,2.4326,2.375,2.3613,2.3315,2.3091,2.3091,2.3091,2.3091,2.3091,2.3091,2.3091,2.3091,2.3091,2.3091,2.3091,2.3091,2.3091,2.3091,2.2984,2.2783,2.2353,2.1934,2.1377,2.0664,2.0605,2.0605,2.0605,2.0605,2.0605,2.0605,2.0478,2.04,2.04,1.9941,1.9648,1.9512,1.9219,1.8857,1.8412,1.874,1.8721,0.0,1.9789,2.0484,2.1235,2.0313,1.9195,1.9076,1.8252,1.7246,1.63,1.5743,1.541,1.541,1.5547,1.624,1.8037,1.873,0.0,0.0,0.0,0.0,0.0,0.0,0.0,0.0,0.0,0.0,0.0,0.0,0.0,3.0889,3.0889,3.0889,3.0889,3.0889,3.0889,3.0889,3.0889,3.0889,3.0889,3.0889,3.0889,3.0889,3.0713,3.0381,0.0,0.0,2.9082,0.0,2.8398,2.8291,2.8291,2.8291,2.8291,2.8291,2.8291,2.8291,2.8232,2.7812,2.7383,2.6943,2.6523,2.6094,2.5693,2.5693,2.5693,2.5693,2.5693,2.5537,2.5283,2.5165,2.4551,2.3984,2.3828,2.3457,2.3091,2.3091,2.3091,2.3091,2.3091,2.3091,2.3091,2.3091,2.3091,2.3091,2.3091,2.3091,2.3091,2.3091,2.3091,2.2935,2.2559,2.2275,2.1836,2.1163,2.0791,2.0605,2.0605,2.0605,2.0605,2.0605,2.0605,2.0605,2.0605,2.0303,2.0078,1.9912,1.9492,1.915,1.8851,1.916,1.9141,0.0,1.9385,0.0,0.0,1.9697,1.8994,1.852,1.7506,0.0,1.6144,1.5693,1.5439,1.5537,1.586,1.631,1.6911,1.7983,0.0,0.0,0.0,0.0,0.0,0.0,0.0,0.0,0.0,0.0,0.0,0.0,0.0,3.0889,3.0889,3.0889,3.0889,3.0889,3.0889,3.0889,3.0889,3.0889,3.0889,3.0889,3.0869,3.083,3.0391,2.9951,0.0,2.9092,2.8682,2.8291,2.8291,2.8291,2.8291,2.8291,2.8291,2.8291,2.8291,2.8291,2.8232,2.7812,2.7383,2.6943,2.6484,2.6074,2.5693,2.5693,2.5693,2.5693,2.5693,2.5693,2.5596,2.5225,2.4766,2.4316,2.3926,2.3477,2.3091,2.3091,2.3091,2.3091,2.3091,2.3091,2.3091,2.3091,2.3091,2.3091,2.3091,2.3091,2.3091,2.3091,2.3091,2.2945,2.2598,2.2529,2.2353,2.1963,2.1123,2.0654,2.0654,2.0625,2.0605,2.0605,2.0605,2.0605,2.0605,2.0605,2.04,1.9961,1.957,1.9365,1.9336,1.9365,1.9365,1.6652,0.0,1.792,1.7695,1.7447,1.7184,0.0,1.6467,1.6094,1.5654,0.0,1.5723,1.6738,1.6486,1.6995,1.9689,2.0146,2.0713,0.0,0.0,0.0,0.0,0.0,0.0,0.0,0.0,0.0,0.0,0.0,3.0889,3.0889,3.0889,3.0889,3.0889,3.0889,3.0889,3.0889,3.0889,3.0889,3.0889,3.0889,3.0703,3.0361,3.0244,2.9785,2.9062,2.8965,2.8682,2.8291,2.8291,2.8291,2.8291,2.8291,2.8291,2.8291,2.8291,2.8291,2.8232,2.7812,2.7383,2.6894,2.6133,2.5771,2.5693,2.5693,2.5693,2.5693,2.5693,2.5693,2.5664,2.5557,2.5,2.4394,2.4287,2.3647,2.3091,2.3091,2.3091,2.3091,2.3091,2.3091,2.3091,2.3091,2.3091,2.3091,2.3091,2.3091,2.3091,2.3091,2.3091,2.3052,2.2955,2.2662,2.2471,2.2373,2.1572,2.1074,2.1074,2.0752,2.0605,2.0605,2.0605,2.0605,2.0605,2.0605,2.0556,2.0449,2.0351,2.0088,1.9775,2.0145,2.0088,1.539,1.6584,1.7656,1.7584,1.7428,1.7223,1.7012,1.6338,0.0,0.0,0.0,0.0,0.0,0.0,0.0,0.0,2.0469,0.0,0.0,0.0,0.0,0.0,0.0,0.0,0.0,0.0,0.0,0.0,0.0,3.0889,3.0889,3.0889,3.0889,3.0889,3.0889,3.0889,3.0889,3.0889,3.0889,3.0889,3.0889,3.0644,3.0185,3.0,2.9551,2.8906,2.8711,2.8506,2.8291,2.8291,2.8291,2.8291,2.8291,2.8291,2.8291,2.8291,2.8291,2.8232,2.7812,2.7256,2.6621,2.5908,2.5693,2.5693,2.5693,2.5693,2.5693,2.5693,2.5693,2.5693,2.5693,2.5225,2.4668,2.4463,2.3916,2.3379,2.314,2.3091,2.3091,2.3091,2.3091,2.3091,2.3091,2.3091,2.3091,2.3091,2.3091,2.3091,2.3091,2.3091,2.3091,2.3091,2.2896,2.2803,2.2803,2.2155,2.1697,2.1543,2.1113,2.0869,2.0869,2.0713,2.0605,2.0605,2.0605,2.0605,2.0605,2.0605,2.0478,2.0215,2.0488,2.0478,1.4912,1.6562,1.8091,1.8188,1.8076,1.79,1.7832,0.0,0.0,0.0,0.0,0.0,0.0,1.7519,0.0,0.0,0.0,0.0,0.0,0.0,0.0,0.0,0.0,0.0,0.0,0.0,0.0,0.0,0.0,3.0889,3.0889,3.0889,3.0889,3.0889,3.0889,3.0889,3.0889,3.0889,3.0889,3.0889,3.082,3.0547,3.0088,2.9668,2.9238,2.8809,0.0,0.0,2.8291,2.8291,2.8291,2.8291,2.8291,2.8291,2.8291,2.8291,2.8291,2.8223,2.7734,2.7012,2.623,2.581,2.5693,2.5693,2.5693,2.5693,2.5693,2.5693,2.5693,2.5693,2.5693,2.54,2.4998,2.4521,2.4092,2.3672,2.3188,2.3091,2.3091,2.3091,2.3091,2.3091,2.3091,2.3091,2.3091,2.3091,2.3091,2.3091,2.3091,2.3091,2.3091,2.3091,2.3091,2.3091,2.3091,2.2769,2.2461,2.21,2.1611,2.1268,2.119,2.0869,2.0674,2.0605,2.0605,2.0605,2.0605,2.0605,2.0605,2.0605,2.0605,2.0605,1.5985,1.7438,1.8169,1.6807,1.7005,1.7383,1.698,0.0,0.0,0.0,0.0,0.0,0.0,1.9482,0.0,0.0,0.0,0.0,0.0,0.0,0.0,0.0,0.0,0.0,0.0,0.0,0.0,0.0,0.0,3.0889,3.0889,3.0889,3.0889,3.0889,3.0889,3.0889,3.0889,3.0889,3.0889,3.0889,3.0488,3.0078,2.9704,2.9219,2.8789,2.8389,0.0,2.8291,2.8291,2.8291,2.8291,2.8291,2.8291,2.8291,2.8291,2.8291,2.8291,2.8184,2.7383,2.6553,2.5781,2.5713,2.5693,2.5693,2.5693,2.5693,2.5693,2.5693,2.5693,2.5693,2.5693,2.54,2.4998,2.4521,2.4092,2.3672,2.3188,2.3091,2.3091,2.3091,2.3091,2.3091,2.3091,2.3091,2.3091,2.3091,2.3091,2.3091,2.3091,2.3091,2.3091,2.3091,2.3091,2.3091,2.3091,2.3033,2.2974,2.2906,2.2217,2.1621,2.121,2.1132,2.0957,2.0615,2.0605,2.0605,2.0605,2.0605,2.0605,2.0605,2.0605,2.0605,1.502,1.6269,1.7227,1.7139,1.8301,1.9346,1.8906,1.8447,0.0,0.0,0.0,0.0,0.0,0.0,0.0,0.0,0.0,0.0,0.0,0.0,0.0,0.0,0.0,0.0,0.0,0.0,0.0,0.0,0.0,0.0,3.0889,3.0889,3.0889,3.0889,3.0644,3.0518,3.0518,3.0293,3.0293,3.0508,3.0068,2.9639,2.9209,2.9014,2.8691,2.8291,0.0,2.8291,2.8291,2.8291,2.8291,2.8291,2.8291,2.8291,2.8291,2.8291,2.7998,2.7549,2.7158,2.6455,2.5693,2.5693,2.5693,2.5693,2.5693,2.5693,2.5693,2.5693,2.5693,2.5693,2.5693,2.5538,2.5322,2.4873,2.4443,2.4014,2.3584,2.3257,2.3091,2.3091,2.3091,2.3091,2.3091,2.3091,2.3091,2.3091,2.3091,2.3091,2.3091,2.3091,2.3091,2.3091,2.3091,2.3091,2.3091,2.3091,2.3003,2.2769,2.2441,2.2031,2.1602,2.1317,2.1103,2.0937,2.0723,2.0605,2.0605,2.0605,2.0605,2.0605,2.0605,2.0605,1.4494,1.5469,1.6553,1.7959,1.9446,2.0605,2.0703,2.0059,0.0,0.0,0.0,0.0,0.0,0.0,0.0,0.0,0.0,0.0,0.0,0.0,0.0,0.0,0.0,0.0,0.0,0.0,0.0,0.0,0.0,0.0,3.0732,3.0732,3.0684,3.0586,3.0234,3.0049,3.0049,2.9629,2.9629,3.0039,2.9619,2.9248,2.8916,2.8818,2.8594,2.8291,2.8291,2.8291,2.8291,2.8291,2.8291,2.8291,2.8291,2.8291,2.8291,2.8291,2.7754,2.7012,2.7012,2.6455,2.5693,2.5693,2.5693,2.5693,2.5693,2.5693,2.5693,2.5693,2.5693,2.5693,2.5693,2.5693,2.5577,2.5223,2.4736,2.4307,2.3887,2.3447,2.3091,2.3091,2.3091,2.3091,2.3091,2.3091,2.3091,2.3091,2.3091,2.3091,2.3091,2.3091,2.3091,2.3091,2.3091,2.3091,2.3091,2.3091,2.2955,2.2676,2.2656,2.2471,2.2051,2.1719,2.1444,2.1387,2.0947,2.0723,2.0723,2.0654,2.0605,2.0605,2.0605,2.0605,1.5966,1.658,1.7058,1.8779,1.9014,1.9202,2.0781,2.0459,0.0,2.1445,0.0,0.0,0.0,0.0,0.0,0.0,0.0,0.0,0.0,0.0,0.0,0.0,0.0,0.0,0.0,0.0,0.0,0.0,0.0,0.0,3.0273,3.0244,3.0068,2.9734,2.9629,2.9619,2.9619,2.918,2.918,2.9665,2.917,2.8945,2.8906,2.8516,2.832,2.8291,2.8291,2.8291,2.8291,2.8291,2.8291,2.8291,2.8291,2.8291,2.8291,2.8291,2.7754,2.7012,2.7012,2.6455,2.5693,2.5693,2.5693,2.5693,2.5693,2.5693,2.5693,2.5693,2.5693,2.5693,2.5693,2.5693,2.5577,2.5223,2.4736,2.4307,2.3887,2.3447,2.3091,2.3091,2.3091,2.3091,2.3091,2.3091,2.3091,2.3091,2.3091,2.3091,2.3091,2.3091,2.3091,2.3091,2.3091,2.3091,2.3091,2.3091,2.3081,2.3052,2.3052,2.2867,2.248,2.2432,2.2236,2.1846,2.1406,2.1142,2.1142,2.0762,2.0605,2.0605,2.0605,2.0605,1.5225,1.6113,1.7048,1.8481,1.9365,0.0,0.0,2.2197,2.2939,2.3711,2.3912,0.0,0.0,0.0,0.0,0.0,0.0,0.0,0.0,0.0,0.0,0.0,0.0,0.0,0.0,0.0,0.0,0.0,0.0,0.0,2.9814,2.9814,2.9736,2.957,2.9307,2.917,2.917,2.874,2.8613,2.8779,2.8603,2.8535,2.8525,2.8369,2.8291,2.8291,2.8291,2.8291,2.8291,2.8291,2.8291,2.8291,2.8291,2.8291,2.8262,2.7998,2.7519,2.6973,2.6719,2.624,2.5693,2.5693,2.5693,2.5693,2.5693,2.5693,2.5693,2.5693,2.5693,2.5693,2.5693,2.5693,2.5645,2.5527,2.4932,2.4375,2.4209,2.3633,2.3091,2.3091,2.3091,2.3091,2.3091,2.3091,2.3091,2.3091,2.3091,2.3091,2.3091,2.3091,2.3091,2.3091,2.3091,2.3091,2.3091,2.3091,2.3091,2.3091,2.3091,2.3023,2.2867,2.2646,2.2441,2.2275,2.1855,2.1504,2.119,2.1064,2.084,2.0605,2.0605,2.0605,1.5107,1.6045,1.7246,1.8481,0.0,0.0,2.2051,2.3291,2.4463,2.5312,2.5311,0.0,0.0,0.0,0.0,0.0,0.0,0.0,0.0,0.0,0.0,0.0,0.0,0.0,0.0,0.0,0.0,0.0,0.0,0.0,0.0,2.9365,2.9307,2.917,2.8877,2.8721,2.8721,2.8437,2.8291,2.8291,2.8291,2.8291,2.8291,2.8291,2.8291,2.8291,2.8291,2.8291,2.8291,2.8291,2.8291,2.8291,2.8291,2.8213,2.8057,2.7826,2.7305,2.6777,2.6494,2.6103,2.5693,2.5693,2.5693,2.5693,2.5693,2.5693,2.5693,2.5693,2.5693,2.5693,2.5693,2.5693,2.5693,2.5693,2.5166,2.458,2.4443,2.3848,2.3257,2.312,2.3091,2.3091,2.3091,2.3091,2.3091,2.3091,2.3091,2.3091,2.3091,2.3091,2.3091,2.3091,2.3091,2.3091,2.3091,2.3091,2.3091,2.3091,2.3091,2.3091,2.3091,2.2818,2.2672,2.2672,2.2295,2.1934,2.16,2.1327,2.1074,2.0771,2.0674,2.0605,1.6085,1.6741,1.7695,0.0,0.0,0.0,2.2828,2.3496,2.4307,2.6045,2.5703,2.5135,2.5125,0.0,0.0,2.6328,2.7461,0.0,0.0,0.0,0.0,0.0,0.0,0.0,0.0,0.0,0.0,0.0,0.0,0.0,0.0,2.8916,2.8721,2.8301,2.8291,2.8291,2.8291,2.8291,2.8291,2.8291,2.8291,2.8291,2.8291,2.8291,2.8291,2.8291,2.8291,2.8291,2.8291,2.8291,2.8281,2.8281,2.8281,2.8027,2.7708,2.7708,2.7119,2.6387,2.6387,2.6103,2.5693,2.5693,2.5693,2.5693,2.5693,2.5693,2.5693,2.5693,2.5693,2.5693,2.5693,2.5693,2.5693,2.5693,2.54,2.4951,2.4512,2.4082,2.3662,2.3179,2.3091,2.3091,2.3091,2.3091,2.3091,2.3091,2.3091,2.3091,2.3091,2.3091,2.3091,2.3091,2.3091,2.3091,2.3091,2.3091,2.3091,2.3091,2.3091,2.3091,2.3091,2.3091,2.3091,2.3091,2.2734,2.2519,2.251,2.1619,2.12,2.1181,2.0781,2.0605,1.5693,1.6689,0.0,1.9404,0.0,0.0,0.0,2.5078,0.0,0.0,2.7131,2.6759,2.6113,0.0,0.0,2.6807,2.7402,2.7998,0.0,0.0,0.0,0.0,0.0,0.0,0.0,0.0,0.0,0.0,0.0,0.0,0.0,2.8476,2.8418,2.8301,2.8291,2.8291,2.8291,2.8291,2.8291,2.8291,2.8291,2.8291,2.8291,2.8291,2.8291,2.8291,2.8291,2.8291,2.8271,2.7969,2.7666,2.7393,2.7393,2.7314,2.7168,2.6875,2.6611,2.6348,2.6035,2.5801,2.5693,2.5693,2.5693,2.5693,2.5693,2.5693,2.5693,2.5693,2.5693,2.5693,2.5693,2.5693,2.5693,2.5693,2.54,2.4951,2.4512,2.4082,2.3662,2.3179,2.3091,2.3091,2.3091,2.3091,2.3091,2.3091,2.3091,2.3091,2.3091,2.3091,2.3091,2.3091,2.3091,2.3091,2.3091,2.3091,2.3091,2.3091,2.3091,2.3091,2.3091,2.3091,2.3091,2.3091,2.2974,2.2769,2.251,2.2256,2.1785,2.119,2.1064,2.0869,1.6885,1.7969,0.0,2.0791,2.2187,2.3623,2.543,0.0,0.0,0.0,0.0,2.7305,2.6963,2.6963,0.0,2.7246,2.7637,2.7998,0.0,0.0,0.0,0.0,0.0,0.0,0.0,0.0,0.0,0.0,0.0,0.0,0.0,2.8291,2.8291,2.8291,2.8291,2.8291,2.8291,2.8291,2.8291,2.8291,2.8291,2.8291,2.8291,2.8291,2.8291,2.8281,2.8115,2.8047,2.8018,2.7588,2.7256,2.7012,2.7012,2.6914,2.6738,2.6484,2.6279,2.6094,2.5781,2.5693,2.5693,2.5693,2.5693,2.5693,2.5693,2.5693,2.5693,2.5693,2.5693,2.5693,2.5693,2.5693,2.5693,2.5693,2.54,2.4951,2.4512,2.4082,2.3662,2.3179,2.3091,2.3091,2.3091,2.3091,2.3091,2.3091,2.3091,2.3091,2.3091,2.3091,2.3091,2.3091,2.3091,2.3091,2.3091,2.3091,2.3091,2.3091,2.3091,2.3091,2.3091,2.3091,2.3091,2.3091,2.3091,2.2974,2.2721,2.2598,2.2246,2.1697,2.1356,2.1094,1.8799,0.0,0.0,2.2662,2.3276,0.0,2.6475,2.7383,2.7885,2.8213,0.0,2.7256,2.7708,2.7402,2.7266,2.7708,2.8047,2.8291,0.0,0.0,0.0,0.0,0.0,0.0,0.0,0.0,0.0,0.0,0.0,0.0,2.8291,2.8291,2.8291,2.8291,2.8291,2.8291,2.8291,2.8291,2.8291,2.8291,2.8291,2.8271,2.8232,2.8271,2.8271,2.8213,2.7793,2.764,2.7571,2.7119,2.6934,2.6894,2.6894,2.667,2.6328,2.6328,2.6084,2.5693,2.5693,2.5693,2.5693,2.5693,2.5693,2.5693,2.5693,2.5693,2.5693,2.5693,2.5693,2.5693,2.5693,2.5693,2.5674,2.5635,2.5361,2.4941,2.4463,2.4062,2.3662,2.3179,2.3091,2.3091,2.3091,2.3091,2.3091,2.3091,2.3091,2.3091,2.3091,2.3091,2.3091,2.3091,2.3091,2.3091,2.3091,2.3091,2.3091,2.3091,2.3091,2.3091,2.3091,2.3091,2.3091,2.3091,2.3091,2.3091,2.3091,2.2711,2.2549,2.249,2.1639,2.1229,1.7715,1.9187,0.0,0.0,2.4621,2.6328,2.6885,2.7607,2.8184,2.8271,2.8144,2.8047,2.8135,0.0,0.0,0.0,0.0,0.0,0.0,0.0,0.0,0.0,0.0,0.0,0.0,0.0,0.0,0.0,0.0,0.0,2.8291,2.8291,2.8291,2.8291,2.8291,2.8291,2.8291,2.8291,2.8291,2.8291,2.8291,2.8125,2.7812,2.8144,2.8115,2.7773,2.7344,2.6973,2.666,2.6562,2.6318,2.5966,2.5966,2.5908,2.583,2.583,2.5771,2.5693,2.5693,2.5693,2.5693,2.5693,2.5693,2.5693,2.5693,2.5693,2.5693,2.5693,2.5693,2.5693,2.5693,2.5693,2.5596,2.5293,2.5137,2.4853,2.4092,2.3857,2.3662,2.3179,2.3091,2.3091,2.3091,2.3091,2.3091,2.3091,2.3091,2.3091,2.3091,2.3091,2.3091,2.3091,2.3091,2.3091,2.3091,2.3091,2.3091,2.3091,2.3091,2.3091,2.3091,2.3091,2.3091,2.3091,2.3091,2.3091,2.3091,2.3003,2.2789,2.25,2.1982,2.1562,1.8262,0.0,0.0,2.3271,0.0,0.0,2.6973,2.7519,2.8047,0.0,0.0,0.0,0.0,0.0,0.0,0.0,0.0,0.0,0.0,0.0,0.0,0.0,0.0,0.0,0.0,0.0,0.0,0.0,0.0,2.8291,2.8291,2.8291,2.8291,2.8291,2.8096,2.7988,2.7988,2.7783,2.7685,2.7685,2.7685,2.7568,2.7363,2.7578,2.7559,2.7334,2.6894,2.6592,2.6367,2.6162,2.5947,2.5693,2.5693,2.5693,2.5693,2.5693,2.5693,2.5693,2.5693,2.5693,2.5693,2.5693,2.5693,2.5693,2.5693,2.5693,2.5693,2.5693,2.5693,2.5693,2.5693,2.5576,2.5303,2.4863,2.4756,2.458,2.3926,2.3623,2.3408,2.314,2.3091,2.3091,2.3091,2.3091,2.3091,2.3091,2.3091,2.3091,2.3091,2.3091,2.3091,2.3091,2.3091,2.3091,2.3091,2.3091,2.3091,2.3091,2.3091,2.3091,2.3091,2.3091,2.3091,2.3091,2.3091,2.3091,2.3091,2.3091,2.2984,2.276,2.2383,2.1953,1.8623,0.0,2.1726,2.3975,2.541,0.0,0.0,0.0,0.0,0.0,0.0,0.0,0.0,0.0,0.0,0.0,0.0,0.0,0.0,0.0,0.0,0.0,0.0,0.0,0.0,0.0,0.0,0.0,0.0,2.8262,2.8193,2.8184,2.8144,2.8076,2.7734,2.7559,2.7559,2.7197,2.7012,2.7012,2.6943,2.6904,2.6904,2.6826,2.6836,2.6885,2.6465,2.6279,2.625,2.584,2.5693,2.5693,2.5693,2.5693,2.5693,2.5693,2.5693,2.5693,2.5693,2.5693,2.5693,2.5693,2.5693,2.5693,2.5693,2.5693,2.5693,2.5693,2.5693,2.5693,2.5693,2.5459,2.5059,2.4541,2.4414,2.4277,2.3789,2.3344,2.3091,2.3091,2.3091,2.3091,2.3091,2.3091,2.3091,2.3091,2.3091,2.3091,2.3091,2.3091,2.3091,2.3091,2.3091,2.3091,2.3091,2.3091,2.3091,2.3091,2.3091,2.3091,2.3091,2.3091,2.3091,2.3091,2.3091,2.3091,2.3091,2.3091,2.3091,2.3081,2.2705,2.2324,0.0,0.0,2.1795,0.0,0.0,0.0,0.0,0.0,0.0,0.0,0.0,0.0,0.0,0.0,0.0,0.0,0.0,0.0,0.0,0.0,0.0,0.0,0.0,0.0,0.0,0.0,0.0,0.0,2.8291,2.8135,2.7826,2.7806,2.7578,2.7197,2.7129,2.71,2.71,2.7041,2.7012,2.7012,2.665,2.6475,2.6465,2.6084,2.6113,2.6445,2.6016,2.5771,2.5771,2.5713,2.5693,2.5693,2.5693,2.5693,2.5693,2.5693,2.5693,2.5693,2.5693,2.5693,2.5693,2.5693,2.5693,2.5693,2.5693,2.5693,2.5693,2.5693,2.5693,2.5693,2.5693,2.5645,2.5391,2.4609,2.4414,2.4199,2.3354,2.314,2.3091,2.3091,2.3091,2.3091,2.3091,2.3091,2.3091,2.3091,2.3091,2.3091,2.3091,2.3091,2.3091,2.3091,2.3091,2.3091,2.3091,2.3091,2.3091,2.3091,2.3091,2.3091,2.3091,2.3091,2.3091,2.3091,2.3091,2.3091,2.3091,2.3091,2.3091,2.3081,2.2705,2.248,1.7269,0.0,0.0,0.0,0.0,0.0,0.0,0.0,0.0,0.0,0.0,0.0,0.0,0.0,0.0,0.0,0.0,0.0,0.0,0.0,0.0,0.0,0.0,0.0,0.0,0.0,0.0,0.0,2.7939,2.7754,2.7324,2.7305,2.7217,2.7021,2.6787,2.666,2.666,2.6416,2.6249,2.6249,2.6113,2.6025,2.6016,2.5771,2.5791,2.6016,2.5771,2.5693,2.5693,2.5693,2.5693,2.5693,2.5693,2.5693,2.5693,2.5693,2.5693,2.5693,2.5693,2.5693,2.5693,2.5693,2.5693,2.5693,2.5693,2.5693,2.5693,2.5693,2.5693,2.5693,2.5693,2.5557,2.5205,2.457,2.4238,2.3896,2.3227,2.3091,2.3091,2.3091,2.3091,2.3091,2.3091,2.3091,2.3091,2.3091,2.3091,2.3091,2.3091,2.3091,2.3091,2.3091,2.3091,2.3091,2.3091,2.3091,2.3091,2.3091,2.3091,2.3091,2.3091,2.3091,2.3091,2.3091,2.3091,2.3091,2.3091,2.3091,2.3091,2.3091,2.2906,2.2734,0.0,0.0,0.0,0.0,0.0,0.0,0.0,0.0,0.0,0.0,0.0,0.0,0.0,0.0,0.0,0.0,0.0,0.0,0.0,0.0,0.0,0.0,0.0,0.0,0.0,0.0,0.0,0.0,2.75,2.7314,2.6875,2.6855,2.6807,2.6699,2.6387,2.6221,2.6221,2.5849,2.5693,2.5693,2.5693,2.5693,2.5693,2.5693,2.5693,2.5693,2.5693,2.5693,2.5693,2.5693,2.5693,2.5693,2.5693,2.5693,2.5693,2.5693,2.5693,2.5693,2.5693,2.5693,2.5693,2.5693,2.5693,2.5693,2.5693,2.5693,2.5693,2.5693,2.5693,2.5693,2.5693,2.5488,2.5127,2.4687,2.4258,2.3799,2.3208,2.3091,2.3091,2.3091,2.3091,2.3091,2.3091,2.3091,2.3091,2.3091,2.3091,2.3091,2.3091,2.3091,2.3091,2.3091,2.3091,2.3091,2.3091,2.3091,2.3091,2.3091,2.3091,2.3091,2.3091,2.3091,2.3091,2.3091,2.3387,2.3387,2.3091,2.3387,2.3387,2.3091,2.3091,2.2925,0.0,0.0,0.0,0.0,0.0,0.0,0.0,0.0,0.0,0.0,0.0,0.0,0.0,0.0,0.0,0.0,0.0,0.0,0.0,0.0,0.0,0.0,0.0,0.0,0.0,0.0,0.0,0.0,2.7051,2.6865,2.6445,2.6426,2.623,2.5771,2.5732,2.5723,2.5723,2.5703,2.5693,2.5693,2.5693,2.5693,2.5693,2.5693,2.5693,2.5693,2.5693,2.5693,2.5693,2.5693,2.5693,2.5693,2.5693,2.5693,2.5693,2.5693,2.5693,2.5693,2.5693,2.5693,2.5693,2.5693,2.5693,2.5693,2.5693,2.5693,2.5693,2.5693,2.5693,2.5693,2.5693,2.5674,2.5596,2.5137,2.4697,2.416,2.3276,2.3091,2.3091,2.3091,2.3091,2.3091,2.3091,2.3091,2.3091,2.3091,2.3091,2.3091,2.3091,2.3091,2.3091,2.3091,2.3091,2.3091,2.3091,2.3091,2.3091,2.3091,2.3091,2.3091,2.3091,2.3091,2.3091,2.3091,2.4168,2.4168,2.3091,2.4168,2.4168,2.3091,2.3091,2.3081,0.0,0.0,0.0,0.0,0.0,0.0,0.0,0.0,0.0,0.0,0.0,0.0,0.0,0.0,0.0,0.0,0.0,0.0,0.0,0.0,0.0,0.0,0.0,0.0,0.0,0.0,0.0,0.0,0.0,2.6426,2.5986,2.5967,2.5849,2.5693,2.5693,2.5693,2.5693,2.5693,2.5693,2.5693,2.5693,2.5693,2.5693,2.5693,2.5693,2.5693,2.5693,2.5693,2.5693,2.5693,2.5693,2.5693,2.5693,2.5693,2.5693,2.5693,2.5693,2.5693,2.5693,2.5693,2.5693,2.5693,2.5693,2.5693,2.5693,2.5693,2.5693,2.5693,2.5693,2.5693,2.5693,2.5693,2.5508,2.4824,2.4326,2.3857,2.3218,2.3091,2.3091,2.3091,2.3091,2.3091,2.3091,2.3091,2.3091,2.3091,2.3091,2.3091,2.3091,2.3091,2.3091,2.3091,2.3091,2.3091,2.3091,2.3091,2.3091,2.3091,2.38,2.4168,2.4168,2.4893,2.5263,2.5263,2.6367,2.6025,2.4168,2.5347,2.5305,2.4168,2.4168,2.4168,1.4375,0.0,0.0,0.0,0.0,0.0,0.0,0.0,0.0,0.0,0.0,0.0,0.0,0.0,0.0,0.0,0.0,0.0,0.0,0.0,0.0,0.0,0.0,0.0,0.0,0.0,0.0,0.0,0.0,0.0,2.5703,2.5693,2.5693,2.5693,2.5693,2.5693,2.5693,2.5693,2.5693,2.5693,2.5693,2.5693,2.5693,2.5693,2.5693,2.5693,2.5693,2.5693,2.5693,2.5693,2.5693,2.5693,2.5693,2.5693,2.5693,2.5693,2.5693,2.5693,2.5693,2.5693,2.5693,2.5693,2.5693,2.5693,2.5693,2.5693,2.5693,2.5693,2.5693,2.5693,2.5693,2.5693,2.5499,2.4814,2.4316,2.3887,2.3447,2.3198,2.3091,2.3091,2.3091,2.3091,2.3091,2.3091,2.3091,2.3091,2.3091,2.3091,2.3091,2.3091,2.3091,2.3091,2.3091,2.3091,2.3091,2.3091,2.3091,2.3091,2.4168,2.4787,2.4787,2.588,2.6524,2.6524,2.7562,2.7389,2.59,2.6666,2.6461,2.5378,2.5378,2.5535,0.0,0.0,0.0,0.0,0.0,0.0,0.0,0.0,0.0,0.0,0.0,0.0,0.0,0.0,0.0,0.0,0.0,0.0,0.0,0.0,0.0,0.0,0.0,0.0,0.0,0.0,0.0,0.0,2.5693,2.5693,2.5693,2.5693,2.5693,2.5693,2.5693,2.5693,2.5693,2.5693,2.5693,2.5693,2.5693,2.5693,2.5693,2.5693,2.5693,2.5693,2.5693,2.5693,2.5693,2.5693,2.5693,2.5693,2.5693,2.5693,2.5693,2.5693,2.5693,2.5693,2.5693,2.5693,2.5693,2.5693,2.5693,2.5693,2.5693,2.5693,2.5693,2.5693,2.5693,2.5693,2.5693,2.5693,2.5625,2.5156,2.4727,2.4297,2.3867,2.3437,2.3091,2.3091,2.3091,2.3091,2.3091,2.3091,2.3091,2.3091,2.3091,2.3091,2.3091,2.3091,2.3091,2.3091,2.3091,2.3091,2.3135,2.3135,2.3135,2.3135,2.4253,2.4872,2.483,2.5975,2.6607,2.6607,2.7614,2.8136,2.8136,2.8136,2.7614,2.6554,2.6554,2.7128,1.3447,0.0,0.0,0.0,0.0,0.0,0.0,0.0,0.0,0.0,0.0,0.0,0.0,0.0,0.0,0.0,0.0,0.0,0.0,0.0,0.0,0.0,0.0,0.0,0.0,0.0,0.0,0.0,2.5693,2.5693,2.5693,2.5693,2.5693,2.5693,2.5693,2.5693,2.5693,2.5693,2.5693,2.5693,2.5693,2.5693,2.5693,2.5693,2.5693,2.5693,2.5693,2.5693,2.5693,2.5693,2.5693,2.5693,2.5693,2.5693,2.5693,2.5693,2.5693,2.5693,2.5693,2.5693,2.5693,2.5693,2.5693,2.5693,2.5693,2.5693,2.5693,2.5693,2.5693,2.5693,2.5693,2.5693,2.5499,2.4775,2.4502,2.4219,2.3432,2.3179,2.3091,2.3091,2.3091,2.3091,2.3091,2.3091,2.3091,2.3091,2.3091,2.3091,2.3091,2.3091,2.3091,2.3091,2.3091,2.342,2.4253,2.4339,2.4339,2.4339,2.6108,2.6819,2.6058,2.7879,2.8882,2.8882,2.9157,2.9326,2.9326,2.9326,2.8727,2.7643,2.7643,2.7804,0.0,0.0,0.0,0.0,0.0,0.0,0.0,1.7959,0.0,0.0,0.0,0.0,0.0,0.0,0.0,0.0,0.0,0.0,0.0,0.0,0.0,0.0,0.0,0.0,0.0,2.5693,2.5693,2.5693,2.5693,2.5693,2.5693,2.5557,2.5459,2.5459,2.5459,2.5371,2.5138,2.5508,2.5644,2.5459,2.5596,2.5693,2.5693,2.5693,2.5693,2.5693,2.5693,2.5693,2.5693,2.5693,2.5693,2.5693,2.5693,2.5693,2.5693,2.5693,2.5693,2.5693,2.5693,2.5693,2.5693,2.5693,2.5693,2.5693,2.5693,2.5693,2.5693,2.5693,2.5693,2.5693,2.5693,2.5596,2.5322,2.4805,2.4414,2.4023,2.3516,2.3227,2.3091,2.3091,2.3091,2.3091,2.3091,2.3091,2.3091,2.3091,2.3091,2.3091,2.3091,2.3091,2.3091,2.3091,2.3091,2.3551,2.4702,2.4787,2.4999,2.5462,2.7145,2.7804,2.7197,2.887,2.9792,2.9792,2.9792,2.9792,2.9792,2.9792,2.9456,2.8806,2.8806,2.8806,0.0,0.0,0.0,0.0,0.0,0.0,1.8174,1.7988,1.7852,0.0,0.0,0.0,0.0,0.0,0.0,0.0,0.0,0.0,0.0,0.0,0.0,0.0,0.0,0.0,2.5538,2.5538,2.5538,2.5538,2.5538,2.5538,2.5538,2.5215,2.5047,2.5047,2.5047,2.4805,2.4424,2.5148,2.5391,2.5047,2.54,2.5567,2.5615,2.5615,2.5645,2.5693,2.5693,2.5693,2.5693,2.5693,2.5693,2.5693,2.5693,2.5693,2.5693,2.5693,2.5693,2.5693,2.5693,2.5693,2.5693,2.5693,2.5693,2.5693,2.5693,2.5693,2.5693,2.5693,2.5693,2.5674,2.5625,2.5457,2.5275,2.5177,2.452,2.3994,2.3944,2.3497,2.3091,2.3091,2.3091,2.3091,2.3091,2.3091,2.3091,2.3091,2.3222,2.3266,2.3135,2.3222,2.3266,2.3091,2.3091,2.3594,2.4872,2.4999,2.5462,2.6595,2.7695,2.8215,2.8096,2.9197,2.9792,2.9792,2.9792,2.9792,2.9792,2.9792,2.9792,2.9792,2.9792,2.9792,1.7041,0.0,0.0,0.0,0.0,0.0,1.5449,1.6005,1.695,0.0,0.0,0.0,0.0,0.0,0.0,0.0,0.0,0.0,0.0,0.0,0.0,0.0,0.0,0.0,2.4631,2.4631,2.4631,2.4631,2.4631,2.4631,2.4631,2.459,2.4541,2.4541,2.4541,2.4502,2.4414,2.459,2.4629,2.4551,2.4629,2.4853,2.5195,2.5195,2.54,2.5693,2.5693,2.5693,2.5693,2.5693,2.5693,2.5693,2.5693,2.5693,2.5693,2.5693,2.5693,2.5693,2.5693,2.5693,2.5693,2.5693,2.5693,2.5693,2.5693,2.5693,2.5693,2.5693,2.5693,2.5606,2.5293,2.5816,2.6192,2.5516,2.5197,2.5013,2.4674,2.3817,2.3091,2.3091,2.3091,2.3091,2.3091,2.3091,2.3091,2.3091,2.3877,2.4125,2.3222,2.392,2.4125,2.3222,2.3091,2.393,2.5975,2.6182,2.6625,2.7723,2.8858,2.9067,2.8136,2.9197,2.9792,2.9792,2.9792,2.9792,2.9792,2.9792,2.9792,2.9792,2.9792,2.9792,0.0,0.0,0.0,1.7866,0.0,0.0,0.0,1.6356,1.6699,1.7783,0.0,0.0,0.0,0.0,0.0,0.0,0.0,0.0,0.0,0.0,0.0,0.0,0.0,0.0,2.4414,2.4414,2.4414,2.4414,2.4414,2.4414,2.4414,2.4219,2.4102,2.4102,2.4102,2.3994,2.3734,2.4199,2.4316,2.4111,2.4316,2.4531,2.4746,2.4746,2.498,2.54,2.54,2.5527,2.5693,2.5693,2.5693,2.5693,2.5693,2.5693,2.5693,2.5693,2.61,2.6572,2.5927,2.611,2.6524,2.5927,2.5693,2.5693,2.5693,2.6159,2.6524,2.5878,2.599,2.6131,2.5307,2.5553,2.5944,2.5484,2.5668,2.5722,2.4967,2.4339,2.38,2.3222,2.3091,2.3091,2.3091,2.3091,2.3091,2.3091,2.4092,2.4585,2.4006,2.4925,2.5221,2.4092,2.3963,2.4638,2.6348,2.6524,2.7221,2.8858,2.9482,2.9534,2.8976,2.9495,2.9792,2.9792,2.9792,2.9792,2.9792,2.9792,2.9792,2.9792,2.9792,2.9792,0.0,0.0,0.0,0.0,0.0,1.8621,0.0,0.0,0.0,1.8379,0.0,0.0,0.0,0.0,0.0,0.0,0.0,0.0,0.0,0.0,0.0,0.0,0.0,0.0,2.3926,2.3848,2.3906,2.415,2.3945,2.3916,2.416,2.3848,2.3662,2.3662,2.3662,2.3496,2.3101,2.3783,2.4004,2.3672,2.4004,2.4219,2.4297,2.4297,2.4531,2.4988,2.4988,2.5328,2.5933,2.5702,2.5751,2.6062,2.5781,2.5693,2.5732,2.5965,2.6706,2.7494,2.6706,2.6935,2.7458,2.638,2.5917,2.5761,2.6146,2.6812,2.7243,2.633,2.6542,2.6809,2.5736,2.5789,2.6023,2.5937,2.6376,2.6543,2.5619,2.5284,2.4798,2.3637,2.343,2.3343,2.3135,2.3091,2.3178,2.3387,2.4382,2.5126,2.5126,2.613,2.6389,2.5252,2.5126,2.5588,2.6719,2.6801,2.7666,2.9663,2.9792,2.9792,2.9792,2.9792,2.9792,2.9792,2.9792,2.9792,2.9792,2.9792,2.9792,2.9792,2.9792,2.9792,0.0,0.0,0.0,0.0,2.2128,0.0,0.0,0.0,1.7944,1.6721,0.0,0.0,0.0,0.0,0.0,0.0,0.0,0.0,0.0,0.0,0.0,0.0,0.0,0.0,0.0,2.1826,2.2029,2.3149,2.2194,2.2048,2.3179,2.3198,2.3169,2.3169,2.3169,2.314,2.3091,2.3198,2.3218,2.3169,2.3218,2.3486,2.3857,2.3857,2.4092,2.4492,2.4492,2.5368,2.6703,2.56,2.6019,2.7268,2.6159,2.5693,2.583,2.6993,2.7505,2.772,2.868,2.8355,2.7589,2.7458,2.662,2.6031,2.7767,2.7581,2.6911,2.7367,2.7558,2.7502,2.6996,2.766,2.8298,2.787,2.7851,2.7884,2.7752,2.6994,2.5975,2.483,2.4628,2.4296,2.3256,2.3091,2.343,2.4457,2.5588,2.6307,2.6307,2.7238,2.7481,2.6431,2.6307,2.6748,2.7844,2.7936,2.8478,2.9702,2.9792,2.9792,2.9792,2.9792,2.9792,2.9792,2.9792,2.9792,2.9792,2.9792,2.9792,2.9792,2.9792,2.9792,0.0,0.0,0.0,0.0,0.0,0.0,1.9984,0.0,1.9142,0.0,0.0,0.0,0.0,0.0,0.0,0.0,0.0,0.0,0.0,0.0,0.0,0.0,0.0,0.0,0.0,0.0,0.0,0.0,2.2068,2.2109,2.2715,2.2964,2.3091,2.3091,2.3091,2.3091,2.3091,2.3091,2.3091,2.3091,2.3091,2.3563,2.4377,2.3707,2.3989,2.497,2.4315,2.4962,2.6407,2.5905,2.6668,2.8128,2.7587,2.716,2.6849,2.74,2.8495,2.9681,2.9453,2.9544,2.9579,2.8855,2.8262,2.7996,2.8796,2.8982,2.8745,2.8321,2.833,2.8211,2.733,2.7727,2.8317,2.8143,2.8597,2.8897,2.8255,2.7735,2.7116,2.6005,2.5797,2.5641,2.5147,2.451,2.4457,2.5588,2.6707,2.7441,2.7441,2.8398,2.8648,2.7574,2.7441,2.7602,2.8044,2.8096,2.8597,2.9714,2.9792,2.9792,2.9792,2.9792,2.9792,2.9792,2.9792,2.9792,2.9792,2.9792,2.9792,2.9792,2.9792,2.9792,2.4951,0.0,0.0,0.0,0.0,0.0,0.0,0.0,0.0,0.0,0.0,0.0,0.0,0.0,0.0,0.0,0.0,0.0,0.0,0.0,0.0,0.0,0.0,0.0,0.0,0.0,0.0,0.0,0.0,2.2051,2.2886,2.3169,2.3268,2.3091,2.3387,2.3551,2.3551,2.3551,2.3714,2.4016,2.3387,2.3844,2.521,2.4092,2.4189,2.5225,2.4756,2.5277,2.6448,2.6404,2.7447,2.9068,2.8723,2.8573,2.8588,2.8588,2.9681,3.1134,3.0598,3.0777,3.1009,3.002,2.9568,2.9488,2.9847,3.0179,3.0273,2.9555,2.9359,2.9179,2.8302,2.8297,2.8557,2.8557,2.9197,2.9573,2.8727,2.8557,2.8227,2.7168,2.6924,2.6924,2.6924,2.6005,2.5672,2.6748,2.7602,2.8215,2.8518,2.9275,2.9495,2.8636,2.8557,2.8557,2.8557,2.8557,2.8937,2.9753,2.9792,2.9792,2.9792,2.9792,2.9792,2.9792,2.9792,2.9792,2.9792,2.9792,2.9792,2.9792,2.9792,2.9792,0.0,0.0,0.0,2.585,0.0,0.0,0.0,0.0,2.197,0.0,0.0,0.0,0.0,0.0,0.0,0.0,0.0,0.0,0.0,0.0,0.0,0.0,0.0,0.0,0.0,0.0,0.0,0.0,2.0866,0.0,2.3805,2.395,2.3706,2.3125,2.4168,2.4745,2.4745,2.4745,2.5294,2.6348,2.4145,2.4264,2.6389,2.5252,2.4755,2.4893,2.5955,2.6744,2.7234,2.7138,2.8354,3.0221,2.9068,2.9598,3.1078,3.1078,3.1134,3.1356,3.2568,3.2196,3.1095,3.0541,2.9912,2.9636,3.0935,3.0887,3.0515,3.1137,3.0941,3.0528,3.0488,3.0127,2.9753,2.9753,2.9753,2.9792,2.9753,2.9753,2.9404,2.8255,2.8056,2.8056,2.8056,2.7157,2.6801,2.7896,2.8096,2.8518,2.9585,2.9792,2.9792,2.9753,2.9753,2.9753,2.9753,2.9753,2.9753,2.9792,2.9792,2.9792,2.9792,2.9792,2.9792,2.9792,2.9792,2.9792,2.9792,2.9792,2.9792,2.9792,2.9792,2.9792,0.0,0.0,2.9636,2.7171,0.0,0.0,0.0,0.0,0.0,0.0,0.0,0.0,0.0,0.0,0.0,0.0,0.0,0.0,0.0,0.0,0.0,0.0,0.0,0.0,0.0,0.0,0.0,0.0,2.125,0.0,0.0,2.4045,2.3888,2.3706,2.3692,2.4049,2.4787,2.4787,2.5378,2.6483,2.5724,2.613,2.7522,2.6419,2.6326,2.6971,2.6637,2.7026,2.783,2.7778,2.9058,3.1016,3.0615,3.126,3.2382,3.15,3.1721,3.2513,3.2939,3.284,3.2444,3.2259,3.2049,3.1948,3.2391,3.21,3.1648,3.1864,3.1549,3.1047,3.0708,3.0482,3.0244,2.988,2.9792,2.9792,2.9792,2.9792,2.9702,2.9314,2.9236,2.9236,2.9236,2.891,2.8791,2.9157,2.9236,2.9365,2.9753,2.9792,2.9792,2.9792,2.9792,2.9792,2.9792,2.9792,2.9792,2.9792,2.9792,2.9792,2.9792,2.9792,2.9792,2.9792,2.9792,2.9792,2.9792,2.9792,2.9792,2.9792,2.9792,2.9792,2.912,3.0015,0.0,2.8712,2.7873,0.0,2.5731,0.0,0.0,0.0,0.0,0.0,0.0,0.0,0.0,0.0,0.0,0.0,0.0,0.0,0.0,0.0,0.0,0.0,0.0,0.0,1.866,2.0632,2.127,0.0,0.0,2.4715,2.4773,2.4568,2.4766,2.5241,2.5983,2.5983,2.6532,2.7678,2.6894,2.725,2.8688,2.7574,2.7452,2.8084,2.7787,2.7827,2.8148,2.875,2.9945,3.1411,3.1599,3.2252,3.2982,3.2196,3.2382,3.3124,3.3124,3.3124,3.3043,3.283,3.2918,3.3043,3.283,3.2654,3.2516,3.2516,3.2114,3.1599,3.1273,3.0909,3.057,3.0407,3.0218,3.0131,3.0319,3.0369,3.0369,3.0369,3.0369,3.0369,3.0369,3.0369,3.0231,2.9854,2.9792,2.9792,2.9792,2.9792,2.9792,2.9792,2.9792,2.9792,2.9792,2.9792,2.9792,2.9792,2.9792,2.9792,2.9792,2.9792,2.9792,2.9792,2.9792,2.9792,2.9792,2.9792,2.9792,2.9792,2.9792,2.9792]}]]